[[{"header":{"parameterUnit":"m.s-1","parameterCategory":1,"la1":30.6,"la2":28.766,"lo1":-90.7593,"lo2":-88.6598,"dy":0.0162,"dx":0.0183,"nx":116,"ny":114,"refTime":"2023-04-07T00:00:00:Z","depth":0,"parameterNumber":2,"parameterNumberName":"U-component_of_WINDS"},"data":[0.0,0.0,0.0,0.0,0.0,0.0,0.0,0.0,0.0,0.0,0.0,0.0,0.0,0.0,0.0,0.0,0.0,0.0,0.0,0.0,0.0,0.0,0.0,0.0,0.0,0.0,0.0,0.0,0.0,0.0,0.0,0.0,0.0,0.0,0.0,0.0,0.0,0.0,0.0,0.0,0.0,0.0,0.0,0.0,0.0,0.0,0.0,0.0,0.0,0.0,0.0,0.0,0.0,0.0,0.0,0.0,0.0,0.0,0.0,0.0,0.0,0.0,0.0,0.0,0.0,0.0,0.0,0.0,0.0,0.0,0.0,0.0,0.0,0.0,0.0,0.0,0.0,0.0,0.0,0.0,0.0,0.0,0.0,0.0,0.0,0.0,0.0,0.0,0.0,0.0,0.0,0.0,0.0,0.0,0.0,0.0,0.0,0.0,0.0,0.0,0.0,0.0,0.0,0.0,0.0,0.0,0.0,0.0,0.0,0.0,0.0,0.0,0.0,0.0,0.0,0.0,0.0,0.0,0.0,0.0,0.0,0.0,0.0,0.0,0.0,0.0,0.0,0.0,0.0,0.0,0.0,0.0,0.0,0.0,0.0,0.0,0.0,0.0,0.0,0.0,0.0,0.0,0.0,0.0,0.0,0.0,0.0,0.0,0.0,0.0,0.0,0.0,0.0,0.0,0.0,0.0,0.0,0.0,0.0,0.0,0.0,0.0,0.0,0.0,0.0,0.0,0.0,0.0,0.0,0.0,0.0,0.0,0.0,0.0,0.0,0.0,0.0,0.0,0.0,0.0,0.0,0.0,0.0,0.0,0.0,0.0,0.0,0.0,0.0,0.0,0.0,0.0,0.0,0.0,0.0,0.0,0.0,0.0,0.0,0.0,0.0,0.0,0.0,0.0,0.0,0.0,0.0,0.0,0.0,0.0,0.0,0.0,0.0,0.0,0.0,0.0,0.0,0.0,0.0,0.0,0.0,0.0,0.0,0.0,0.0,0.0,0.0,0.0,0.0,0.0,0.0,0.0,0.0,0.0,0.0,0.0,0.0,0.0,0.0,0.0,0.0,0.0,0.0,0.0,0.0,0.0,0.0,0.0,0.0,0.0,0.0,0.0,0.0,0.0,0.0,0.0,0.0,0.0,0.0,0.0,0.0,0.0,0.0,0.0,0.0,0.0,0.0,0.0,0.0,0.0,0.0,0.0,0.0,0.0,0.0,0.0,0.0,0.0,0.0,0.0,0.0,0.0,0.0,0.0,0.0,0.0,0.0,0.0,0.0,0.0,0.0,0.0,0.0,0.0,0.0,0.0,0.0,0.0,0.0,0.0,0.0,0.0,0.0,0.0,0.0,0.0,0.0,0.0,0.0,0.0,0.0,0.0,0.0,0.0,0.0,0.0,0.0,0.0,0.0,0.0,0.0,0.0,0.0,0.0,0.0,0.0,0.0,0.0,0.0,0.0,0.0,0.0,0.0,0.0,0.0,0.0,0.0,0.0,0.0,0.0,0.0,0.0,0.0,0.0,0.0,0.0,0.0,0.0,0.0,0.0,0.0,0.0,0.0,0.0,0.0,0.0,0.0,0.0,0.0,0.0,0.0,0.0,0.0,0.0,0.0,0.0,0.0,0.0,0.0,0.0,0.0,0.0,0.0,0.0,0.0,0.0,0.0,0.0,0.0,0.0,0.0,0.0,0.0,0.0,0.0,0.0,0.0,0.0,0.0,0.0,0.0,0.0,0.0,0.0,0.0,0.0,0.0,0.0,0.0,0.0,0.0,0.0,0.0,0.0,0.0,0.0,0.0,0.0,0.0,0.0,0.0,0.0,0.0,0.0,0.0,0.0,0.0,0.0,0.0,0.0,0.0,0.0,0.0,0.0,0.0,0.0,0.0,0.0,0.0,0.0,0.0,0.0,0.0,0.0,0.0,0.0,0.0,0.0,0.0,0.0,0.0,0.0,0.0,0.0,0.0,0.0,0.0,0.0,0.0,0.0,0.0,0.0,0.0,0.0,0.0,0.0,0.0,0.0,0.0,0.0,0.0,0.0,0.0,0.0,0.0,0.0,0.0,0.0,0.0,0.0,0.0,0.0,0.0,0.0,0.0,0.0,0.0,0.0,0.0,0.0,0.0,0.0,0.0,0.0,0.0,0.0,0.0,0.0,0.0,0.0,0.0,0.0,0.0,0.0,0.0,0.0,0.0,0.0,0.0,0.0,0.0,0.0,0.0,0.0,0.0,0.0,0.0,0.0,0.0,0.0,0.0,0.0,0.0,0.0,0.0,0.0,0.0,0.0,0.0,0.0,0.0,0.0,0.0,0.0,0.0,0.0,0.0,0.0,0.0,0.0,0.0,0.0,0.0,0.0,0.0,0.0,0.0,0.0,0.0,0.0,0.0,0.0,0.0,0.0,0.0,0.0,0.0,0.0,0.0,0.0,0.0,0.0,0.0,0.0,0.0,0.0,0.0,0.0,0.0,0.0,0.0,0.0,0.0,0.0,0.0,0.0,0.0,0.0,0.0,0.0,0.0,0.0,0.0,0.0,0.0,0.0,0.0,0.0,0.0,0.0,0.0,0.0,0.0,0.0,0.0,0.0,0.0,0.0,0.0,0.0,0.0,0.0,0.0,0.0,0.0,0.0,0.0,0.0,0.0,0.0,0.0,0.0,0.0,0.0,0.0,0.0,0.0,0.0,0.0,0.0,0.0,0.0,0.0,0.0,0.0,0.0,0.0,0.0,0.0,0.0,0.0,0.0,0.0,0.0,0.0,0.0,0.0,0.0,0.0,0.0,0.0,0.0,0.0,0.0,0.0,0.0,0.0,0.0,0.0,0.0,0.0,0.0,0.0,0.0,0.0,0.0,0.0,0.0,0.0,0.0,0.0,0.0,0.0,0.0,0.0,0.0,0.0,0.0,0.0,0.0,0.0,0.0,0.0,0.0,0.0,0.0,0.0,0.0,0.0,0.0,0.0,0.0,0.0,0.0,0.0,0.0,0.0,0.0,0.0,0.0,0.0,0.0,0.0,0.0,0.0,0.0,0.0,0.0,0.0,0.0,0.0,0.0,0.0,0.0,0.0,0.0,0.0,0.0,0.0,0.0,0.0,0.0,0.0,0.0,0.0,0.0,0.0,0.0,0.0,0.0,0.0,0.0,0.0,0.0,0.0,0.0,0.0,0.0,0.0,0.0,0.0,0.0,0.0,0.0,0.0,0.0,0.0,0.0,0.0,0.0,0.0,0.0,0.0,0.0,0.0,0.0,0.0,0.0,0.0,0.0,0.0,0.0,0.0,0.0,0.0,0.0,0.0,0.0,0.0,0.0,0.0,0.0,0.0,0.0,0.0,0.0,0.0,0.0,0.0,0.0,0.0,0.0,0.0,0.0,0.0,0.0,0.0,0.0,0.0,0.0,0.0,0.0,0.0,0.0,0.0,0.0,0.0,0.0,0.0,0.0,0.0,0.0,0.0,0.0,0.0,0.0,0.0,0.0,0.0,0.0,0.0,0.0,0.0,0.0,0.0,0.0,0.0,0.0,0.0,0.0,0.0,0.0,0.0,0.0,0.0,0.0,0.0,0.0,0.0,0.0,0.0,0.0,0.0,0.0,0.0,0.0,0.0,0.0,0.0,0.0,0.0,0.0,0.0,0.0,0.0,0.0,0.0,0.0,0.0,0.0,0.0,0.0,0.0,0.0,0.0,0.0,0.0,0.0,0.0,0.0,0.0,0.0,0.0,0.0,0.0,0.0,0.0,0.0,0.0,0.0,0.0,0.0,0.0,0.0,0.0,0.0,0.0,0.0,0.0,0.0,0.0,0.0,0.0,0.0,0.0,0.0,0.0,0.0,0.0,0.0,0.0,0.0,0.0,0.0,0.0,0.0,0.0,0.0,0.0,0.0,0.0,0.0,0.0,0.0,0.0,0.0,0.0,0.0,0.0,0.0,0.0,0.0,0.0,0.0,0.0,0.0,0.0,0.0,0.0,0.0,0.0,0.0,0.0,0.0,0.0,0.0,0.0,0.0,0.0,0.0,0.0,0.0,0.0,0.0,0.0,0.0,0.0,0.0,0.0,0.0,0.0,0.0,0.0,0.0,0.0,0.0,0.0,0.0,0.0,0.0,0.0,0.0,0.0,0.0,0.0,0.0,0.0,0.0,0.0,0.0,0.0,0.0,0.0,0.0,0.0,0.0,0.0,0.0,0.0,0.0,0.0,0.0,0.0,0.0,0.0,0.0,0.0,0.0,0.0,0.0,0.0,0.0,0.0,0.0,0.0,0.0,0.0,0.0,0.0,0.0,0.0,0.0,0.0,0.0,0.0,0.0,0.0,0.0,0.0,0.0,0.0,0.0,0.0,0.0,0.0,0.0,0.0,0.0,0.0,0.0,0.0,0.0,0.0,0.0,0.0,0.0,0.0,0.0,0.0,0.0,0.0,0.0,0.0,0.0,0.0,0.0,0.0,0.0,0.0,0.0,0.0,0.0,0.0,0.0,0.0,0.0,0.0,0.0,0.0,0.0,0.0,0.0,0.0,0.0,0.0,0.0,0.0,0.0,0.0,0.0,0.0,0.0,0.0,0.0,0.0,0.0,0.0,0.0,0.0,0.0,0.0,0.0,0.0,0.0,0.0,0.0,0.0,0.0,0.0,0.0,0.0,0.0,0.0,0.0,0.0,0.0,0.0,0.0,0.0,0.0,0.0,0.0,0.0,0.0,0.0,0.0,0.0,0.0,0.0,0.0,0.0,0.0,0.0,0.0,0.0,0.0,0.0,0.0,0.0,0.0,0.0,0.0,0.0,0.0,0.0,0.0,0.0,0.0,0.0,0.0,0.0,0.0,0.0,0.0,0.0,0.0,0.0,0.0,0.0,0.0,0.0,0.0,0.0,0.0,0.0,0.0,0.0,0.0,0.0,0.0,0.0,0.0,0.0,0.0,0.0,0.0,0.0,0.0,0.0,0.0,0.0,0.0,0.0,0.0,0.0,0.0,0.0,0.0,0.0,0.0,0.0,0.0,0.0,0.0,0.0,0.0,0.0,0.0,0.0,0.0,0.0,0.0,0.0,0.0,0.0,0.0,0.0,0.0,0.0,0.0,0.0,0.0,0.0,0.0,0.0,0.0,0.0,0.0,0.0,0.0,0.0,0.0,0.0,0.0,0.0,0.0,0.0,0.0,0.0,0.0,0.0,0.0,0.0,0.0,0.0,0.0,0.0,0.0,0.0,0.0,0.0,0.0,0.0,0.0,0.0,0.0,0.0,0.0,0.0,0.0,0.0,0.0,0.0,0.0,0.0,0.0,0.0,0.0,0.0,0.0,0.0,0.0,0.0,0.0,0.0,0.0,0.0,0.0,0.0,0.0,0.0,0.0,0.0,0.0,0.0,0.0,0.0,0.0,0.0,0.0,0.0,0.0,0.0,0.0,0.0,0.0,0.0,0.0,0.0,0.0,0.0,0.0,0.0,0.0,0.0,0.0,0.0,0.0,0.0,0.0,0.0,0.0,0.0,0.0,0.0,0.0,0.0,0.0,0.0,0.0,0.0,0.0,0.0,0.0,0.0,0.0,0.0,0.0,0.0,0.0,0.0,0.0,0.0,0.0,0.0,0.0,0.0,0.0,0.0,0.0,0.0,0.0,0.0,0.0,0.0,0.0,0.0,0.0,0.0,0.0,0.0,0.0,0.0,0.0,0.0,0.0,0.0,0.0,0.0,0.0,0.0,0.0,0.0,0.0,0.0,0.0,0.0,0.0,0.0,0.0,0.0,0.0,0.0,0.0,0.0,0.0,0.0,0.0,0.0,0.0,0.0,0.0,0.0,0.0,0.0,0.0,0.0,0.0,0.0,0.0,0.0,0.0,0.0,0.0,0.0,0.0,0.0,0.0,0.0,0.0,0.0,0.0,0.0,0.0,0.0,0.0,0.0,0.0,0.0,0.0,0.0,0.0,0.0,0.0,0.0,0.0,0.0,0.0,0.0,0.0,0.0,0.0,0.0,0.0,0.0,0.0,0.0,0.0,0.0,0.0,0.0,0.0,0.0,0.0,0.0,0.0,0.0,0.0,0.0,0.0,0.0,0.0,0.0,0.0,0.0,0.0,0.0,0.0,0.0,0.0,5.5488,5.3066,0.0,0.0,0.0,0.0,0.0,0.0,0.0,0.0,0.0,0.0,0.0,0.0,0.0,0.0,0.0,0.0,0.0,0.0,0.0,0.0,0.0,0.0,0.0,0.0,0.0,0.0,0.0,0.0,0.0,0.0,0.0,0.0,0.0,0.0,0.0,0.0,0.0,5.119,5.119,5.1344,5.1652,5.1652,5.1652,5.1652,0.0,0.0,0.0,0.0,0.0,0.0,0.0,0.0,0.0,0.0,0.0,0.0,0.0,0.0,0.0,0.0,0.0,0.0,0.0,0.0,0.0,0.0,0.0,0.0,0.0,0.0,0.0,0.0,0.0,0.0,0.0,0.0,0.0,0.0,0.0,0.0,0.0,0.0,0.0,0.0,0.0,0.0,0.0,0.0,0.0,0.0,0.0,0.0,0.0,0.0,0.0,0.0,0.0,0.0,0.0,0.0,0.0,0.0,0.0,0.0,0.0,0.0,0.0,0.0,0.0,0.0,0.0,0.0,0.0,0.0,5.783,5.6173,0.0,0.0,0.0,0.0,0.0,0.0,0.0,0.0,0.0,0.0,0.0,0.0,0.0,0.0,0.0,0.0,0.0,0.0,0.0,0.0,0.0,0.0,0.0,4.8583,4.8583,4.8583,4.8706,4.8789,0.0,0.0,0.0,0.0,0.0,0.0,5.0882,5.0882,5.119,5.1867,5.1867,5.2175,5.2676,5.2676,5.2676,5.2676,5.2676,0.0,0.0,0.0,0.0,0.0,0.0,0.0,0.0,0.0,0.0,0.0,0.0,0.0,0.0,0.0,0.0,0.0,0.0,0.0,0.0,0.0,0.0,0.0,0.0,0.0,0.0,0.0,0.0,0.0,0.0,0.0,0.0,0.0,0.0,0.0,0.0,0.0,0.0,0.0,0.0,0.0,0.0,0.0,0.0,0.0,0.0,0.0,0.0,0.0,0.0,0.0,0.0,0.0,0.0,0.0,0.0,0.0,0.0,0.0,0.0,0.0,0.0,0.0,6.1997,6.2115,6.1437,6.1467,6.1921,6.2508,6.0956,6.0233,5.9878,5.7218,0.0,0.0,0.0,0.0,0.0,0.0,0.0,0.0,0.0,0.0,0.0,0.0,0.0,0.0,0.0,0.0,0.0,0.0,0.0,4.8583,4.8583,4.8583,4.8583,4.8583,4.9189,4.9549,4.9549,0.0,0.0,0.0,0.0,0.0,5.1559,5.1559,5.1898,5.2575,5.2575,5.2614,5.2676,5.2676,5.2676,5.2676,5.2676,5.2676,5.2676,0.0,0.0,0.0,0.0,0.0,0.0,0.0,0.0,0.0,0.0,0.0,0.0,0.0,0.0,0.0,0.0,0.0,0.0,0.0,0.0,0.0,0.0,0.0,0.0,0.0,0.0,0.0,0.0,0.0,0.0,0.0,0.0,0.0,0.0,0.0,0.0,0.0,0.0,0.0,0.0,0.0,5.1762,5.241,0.0,0.0,0.0,0.0,0.0,0.0,0.0,0.0,0.0,0.0,0.0,0.0,0.0,5.9942,6.2469,6.3382,6.413,6.4693,6.5948,6.6745,6.7125,6.7125,6.7097,6.6951,6.6697,0.0,6.039,5.9678,0.0,0.0,0.0,0.0,0.0,0.0,0.0,0.0,0.0,0.0,0.0,0.0,0.0,0.0,0.0,0.0,0.0,0.0,0.0,0.0,0.0,4.8974,4.922,4.922,4.9866,5.0266,5.0266,5.0882,0.0,0.0,0.0,5.1959,5.2267,5.2267,5.2421,5.2676,5.2676,5.2676,5.2706,5.3076,5.326,5.326,5.366,5.3414,5.2676,5.2676,0.0,0.0,0.0,0.0,0.0,0.0,0.0,0.0,0.0,0.0,0.0,0.0,0.0,0.0,0.0,0.0,0.0,0.0,0.0,0.0,0.0,0.0,0.0,0.0,0.0,0.0,0.0,0.0,0.0,0.0,0.0,0.0,0.0,0.0,0.0,0.0,0.0,0.0,0.0,5.2467,5.3332,5.4109,5.4123,5.4308,0.0,0.0,0.0,0.0,0.0,0.0,0.0,0.0,0.0,6.253,6.2499,6.3288,6.5171,6.5757,6.6107,6.6253,6.7142,6.7707,6.7985,6.8151,6.8068,6.779,6.779,6.6377,6.4031,6.2906,6.1674,6.0254,0.0,0.0,0.0,0.0,5.4826,5.4634,0.0,0.0,0.0,0.0,0.0,0.0,0.0,0.0,0.0,0.0,0.0,0.0,4.8881,4.9374,4.9764,4.9949,5.0574,5.0944,5.0944,5.159,5.1959,5.1959,5.2429,5.2676,5.2676,5.2676,5.2903,5.3326,5.3057,5.3284,5.3921,5.4182,5.4431,5.4679,5.4936,5.4375,5.3199,5.3199,5.3199,5.3176,0.0,0.0,0.0,0.0,0.0,0.0,0.0,0.0,0.0,0.0,0.0,0.0,0.0,0.0,0.0,0.0,0.0,0.0,0.0,0.0,0.0,0.0,0.0,0.0,0.0,0.0,0.0,0.0,0.0,0.0,0.0,0.0,0.0,0.0,0.0,0.0,0.0,5.3842,5.4668,5.5541,5.5343,5.5396,0.0,0.0,0.0,0.0,0.0,0.0,5.9835,5.9986,6.1599,6.5114,6.5263,6.5946,6.7383,6.7612,6.7612,6.7412,6.7869,6.8124,6.8208,6.8433,6.8405,6.8208,6.8208,6.7897,6.7295,6.5704,6.4545,6.3624,6.1726,6.0419,5.947,5.8463,5.7882,5.7381,0.0,0.0,0.0,0.0,0.0,0.0,0.0,0.0,0.0,0.0,0.0,4.8881,4.9579,4.9672,4.998,5.0574,5.1251,5.1652,5.1652,5.2298,5.2645,5.2645,5.2676,5.2676,5.2676,5.2676,5.3446,5.4966,5.4075,5.4903,5.7257,5.6396,5.6461,5.7268,5.6406,5.5479,5.4614,5.4614,5.4614,5.4591,5.438,0.0,0.0,0.0,0.0,0.0,0.0,0.0,0.0,0.0,0.0,0.0,0.0,0.0,0.0,0.0,0.0,0.0,0.0,0.0,0.0,0.0,0.0,0.0,0.0,0.0,0.0,0.0,0.0,0.0,0.0,0.0,0.0,0.0,0.0,0.0,0.0,0.0,0.0,5.617,5.5964,0.0,0.0,0.0,0.0,5.7375,5.7785,5.8881,6.0799,6.0923,6.2477,6.5832,6.5952,6.6882,6.8766,6.8795,6.8795,6.8826,6.8855,6.9031,6.9321,6.9321,6.9321,6.9321,6.9321,6.9118,6.8674,6.7325,6.6572,6.6048,6.4338,6.3311,6.2699,6.2361,6.1799,6.1415,0.0,0.0,0.0,0.0,0.0,0.0,0.0,0.0,4.8583,4.8583,4.8583,4.8881,4.9641,5.0103,5.0605,5.1282,5.1959,5.2359,5.2359,5.2575,5.2676,5.2676,5.2676,5.2891,5.3322,5.3322,5.4129,5.5727,5.5404,5.6008,5.7502,5.7625,5.785,5.8205,5.8312,5.7828,5.6847,5.5356,5.4706,5.4683,5.4613,5.4519,0.0,0.0,0.0,0.0,0.0,0.0,0.0,0.0,0.0,0.0,0.0,0.0,0.0,0.0,0.0,0.0,0.0,0.0,0.0,0.0,0.0,0.0,0.0,0.0,0.0,0.0,0.0,0.0,0.0,0.0,0.0,0.0,0.0,0.0,0.0,0.0,0.0,5.6762,5.6779,0.0,5.7526,5.8397,5.8746,5.8512,5.9374,6.0827,6.2761,6.2853,6.4396,6.7752,6.7872,6.8201,6.8889,6.8919,6.8919,6.8919,6.9123,6.9269,6.9416,7.0025,7.0212,7.0067,7.0503,7.0511,7.0151,6.9659,6.8617,6.7275,6.6514,6.571,6.4875,6.4546,6.4034,6.3423,0.0,0.0,0.0,0.0,0.0,0.0,0.0,4.8583,4.8583,4.8583,4.882,4.9251,4.998,5.0636,5.1313,5.199,5.2452,5.2676,5.2676,5.2676,5.2799,5.3014,5.326,5.3568,5.4029,5.4029,5.4971,5.6941,5.6588,5.7365,5.9148,5.9287,5.9668,6.0259,6.04,6.0227,5.9752,5.7534,5.6138,5.5407,5.5407,5.5312,5.5201,0.0,0.0,0.0,0.0,0.0,0.0,0.0,0.0,0.0,0.0,0.0,0.0,0.0,0.0,0.0,0.0,0.0,0.0,0.0,0.0,0.0,0.0,0.0,0.0,0.0,0.0,0.0,0.0,0.0,0.0,0.0,0.0,0.0,0.0,5.6063,5.6569,5.7418,5.7504,5.7749,5.8373,5.9224,5.9801,5.9946,6.0798,6.2377,6.4779,6.4901,6.6126,6.88,6.8919,6.8919,6.8919,6.9105,6.9228,6.9228,6.971,6.9891,6.9922,7.0562,7.0749,7.0603,7.1066,7.1132,7.089,7.089,7.012,6.8891,6.8468,6.7655,6.6634,6.6428,6.5862,6.4986,0.0,0.0,0.0,0.0,0.0,0.0,4.8583,4.8583,4.8614,4.8614,4.9251,4.998,5.0636,5.1313,5.199,5.2614,5.2676,5.2706,5.2729,5.2729,5.3014,5.3691,5.4368,5.4706,5.4737,5.4737,5.6008,5.8605,5.7663,5.8972,6.2375,6.1519,6.1981,6.3471,6.2574,6.2541,6.3053,6.1174,5.9032,5.6895,5.6871,5.6847,5.6847,0.0,0.0,0.0,0.0,0.0,0.0,0.0,0.0,0.0,0.0,0.0,0.0,0.0,0.0,0.0,0.0,0.0,0.0,0.0,0.0,0.0,0.0,0.0,0.0,0.0,0.0,0.0,0.0,0.0,0.0,0.0,0.0,0.0,5.6741,5.7034,5.745,5.8075,5.8162,5.8439,5.9031,5.9185,5.9973,6.1846,6.2005,6.3485,6.6727,6.691,6.7517,6.886,6.892,6.8949,6.8949,6.9597,6.9936,6.9936,7.0582,7.089,7.089,7.0921,7.0921,7.0952,7.0952,7.0982,7.0982,7.0982,7.0952,7.0859,7.0182,6.9179,6.8061,6.803,6.7365,6.6196,0.0,0.0,0.0,0.0,0.0,0.0,4.8583,4.8583,4.8789,4.9312,4.9558,5.0165,5.1313,5.159,5.199,5.2614,5.2676,5.2891,5.3383,5.3414,5.3722,5.4399,5.4614,5.4922,5.5407,5.5438,5.6381,5.8305,5.9258,6.0555,6.2199,6.3172,6.3849,6.4289,6.4031,6.3643,6.3097,6.185,6.0555,5.9268,5.8554,5.8264,5.8239,0.0,0.0,0.0,0.0,0.0,0.0,0.0,0.0,0.0,0.0,0.0,0.0,0.0,0.0,0.0,0.0,0.0,0.0,0.0,0.0,0.0,0.0,0.0,0.0,0.0,0.0,0.0,0.0,0.0,0.0,0.0,5.6709,5.7273,5.7273,5.7628,5.8075,5.8666,5.9587,6.0431,6.1011,6.2908,6.405,6.4022,6.494,6.5932,6.6848,6.691,6.7517,6.886,6.9351,6.9628,6.9628,7.0274,7.0644,7.0644,7.0828,7.089,7.0921,7.1444,7.1721,7.1721,7.2183,7.2398,7.2398,7.2398,7.2152,7.1659,7.089,7.028,6.9732,6.9002,6.7756,6.6382,0.0,0.0,0.0,0.0,0.0,0.0,4.8583,4.8583,4.8881,4.9589,4.9928,5.0513,5.159,5.1959,5.2298,5.2667,5.2676,5.2983,5.366,5.4237,5.4706,5.5106,5.5407,5.5745,5.617,5.617,5.6979,5.863,6.0035,6.1317,6.2553,6.3934,6.4749,6.5053,6.5053,6.492,6.4619,6.3214,6.2265,6.1639,6.0191,5.9311,5.8793,5.8642,5.8745,5.894,5.8685,5.8765,5.8983,5.8884,0.0,0.0,0.0,0.0,0.0,0.0,0.0,0.0,0.0,0.0,0.0,0.0,0.0,0.0,0.0,0.0,0.0,0.0,0.0,0.0,0.0,0.0,0.0,0.0,5.7201,5.7935,5.8421,5.8512,5.8693,5.929,6.0583,6.1598,6.2216,6.4207,6.554,6.5674,6.6449,6.7243,6.8122,6.8183,6.8636,6.9691,7.012,7.0305,7.0305,7.1013,7.1352,7.1352,7.1629,7.1783,7.1783,7.2244,7.2429,7.246,7.2829,7.3014,7.3014,7.3014,7.2799,7.2368,0.0,0.0,0.0,0.0,6.8416,6.7247,0.0,0.0,0.0,0.0,0.0,0.0,4.8583,4.8583,4.8881,4.9703,5.0349,5.0974,5.1744,5.2359,5.2676,5.2676,5.2768,5.3137,5.3876,5.513,5.5807,5.5807,5.6447,5.6858,5.6954,5.704,5.7829,5.9363,6.0548,6.1851,6.3272,6.4337,6.5189,6.5797,6.5797,6.6203,6.6686,6.4766,6.3914,6.3632,6.1721,6.0213,5.9033,5.9033,5.9378,5.9875,5.9619,5.9914,6.0351,6.0092,0.0,0.0,0.0,0.0,0.0,0.0,0.0,0.0,0.0,0.0,0.0,0.0,0.0,0.0,0.0,0.0,0.0,0.0,0.0,0.0,0.0,0.0,0.0,0.0,5.771,5.8606,5.969,5.9446,5.9399,5.9914,6.1325,6.2445,6.2981,6.4432,6.5886,6.7152,6.7304,6.8153,6.9907,6.9997,0.0,0.0,0.0,7.1013,7.1013,7.1752,7.2121,7.2121,7.2737,7.3014,7.3014,7.3014,7.3014,7.3014,7.3014,7.3014,7.3014,7.3014,7.3014,7.2922,7.2275,7.1445,7.0465,6.9847,6.9161,6.8441,0.0,0.0,0.0,0.0,0.0,0.0,4.8583,4.8583,4.9066,5.0328,5.0605,5.1159,5.2368,5.2614,5.2676,5.2676,5.3199,5.3999,5.5222,5.6108,5.657,5.657,5.6693,5.7139,5.791,5.8515,5.9344,6.0399,6.2551,6.3759,6.4121,6.5648,6.6453,6.6609,6.6609,6.6656,6.6728,6.5526,6.4538,6.3703,6.2485,6.137,6.0393,6.0393,6.0486,6.0583,6.0324,6.0281,6.0351,6.0092,6.0016,6.0054,6.0297,6.034,0.0,0.0,0.0,0.0,0.0,0.0,0.0,0.0,0.0,0.0,0.0,0.0,0.0,0.0,0.0,0.0,0.0,0.0,0.0,5.7123,5.8273,5.915,5.9392,6.0015,6.0518,6.0627,6.2737,6.4262,6.4406,6.7143,6.9031,6.9271,6.9822,7.031,7.0705,7.0705,7.0767,7.089,7.1475,7.1813,7.1813,7.2491,7.2829,7.2829,7.2953,0.0,7.3014,7.3014,7.3014,7.3014,7.3014,7.3014,7.3014,7.3014,7.3014,7.2983,7.2549,7.1809,7.0856,7.0448,6.9706,6.8847,0.0,0.0,0.0,0.0,0.0,0.0,4.8583,4.8912,4.9528,5.0543,5.0974,5.159,5.2606,5.2676,5.2676,5.2676,5.3629,5.4614,5.5622,5.6831,5.7519,5.7519,5.7956,5.8591,5.9443,5.9809,6.0573,6.1737,6.3441,6.4464,6.4829,6.6152,6.6791,6.6791,6.6791,6.6525,6.5997,6.5002,6.3961,6.294,6.1947,6.1252,6.0794,6.0638,6.0664,6.0742,6.0355,6.0516,6.0844,6.0552,6.0657,6.0991,6.1355,6.1225,6.1067,0.0,0.0,0.0,0.0,0.0,0.0,0.0,0.0,0.0,0.0,0.0,0.0,0.0,0.0,5.5595,5.5857,0.0,5.7082,5.7663,5.8624,5.9424,5.9693,6.1227,6.2188,6.185,6.385,6.5603,6.6269,6.8819,7.0398,7.0398,7.0705,7.1075,7.1413,7.1444,7.1598,7.1937,7.2614,7.3014,7.3014,7.366,7.3999,7.3999,7.3999,7.3999,7.3999,7.3999,7.3814,7.3476,7.3476,7.3291,7.3014,7.3014,7.3014,7.2952,7.2451,7.1923,7.1429,7.1081,7.0519,6.9837,0.0,0.0,0.0,0.0,0.0,0.0,4.8583,4.922,4.9949,5.0605,5.1282,5.1959,5.2637,5.2676,5.2799,5.3076,5.4091,5.5045,5.5838,5.7363,5.8211,5.8211,5.911,6.0021,6.0956,6.1119,6.1892,6.3355,6.4321,6.5037,6.5614,6.6418,6.6791,6.6791,6.6791,6.6235,6.5248,6.4447,6.3395,6.2221,6.1503,6.1082,6.0879,6.0687,6.0735,6.0853,6.0426,6.0768,6.1358,6.1031,6.1368,6.1989,6.2302,6.2172,6.1924,6.2185,6.2331,0.0,0.0,0.0,0.0,0.0,0.0,0.0,0.0,5.5132,5.5125,5.5229,5.5595,5.5987,5.6196,5.688,5.7551,5.8165,5.8894,5.959,6.0181,6.2307,6.3761,6.3565,6.5214,6.6851,6.7984,6.9946,7.1105,7.1105,7.1229,7.1598,7.2368,7.2398,7.2706,7.3384,7.3907,7.4184,7.4184,7.4738,7.5015,7.5015,7.5015,7.5015,7.5015,7.5015,7.4707,7.4184,7.4184,7.3876,7.3383,7.3383,7.3291,7.3105,7.2475,7.2098,7.1913,7.1468,7.1115,7.0797,0.0,0.0,0.0,0.0,0.0,0.0,0.0,0.0,4.9949,5.0605,5.1282,5.1959,5.2637,5.2676,5.3168,5.4368,5.4614,5.526,5.657,5.7621,5.8211,5.8211,5.911,6.0326,6.1886,6.2602,6.3739,6.5392,6.615,6.6563,6.661,6.6749,6.6791,6.6791,6.6791,6.6235,6.5293,6.5181,6.4031,6.2333,6.2581,6.212,6.1359,6.1368,6.1382,6.1332,6.1343,6.1393,6.1453,6.1179,6.1489,6.2053,6.238,6.2812,6.321,6.3286,6.3329,6.3275,6.2873,6.1998,6.0899,5.9467,5.8159,5.6941,0.0,5.5332,5.5229,5.5726,5.5857,5.6223,5.7303,5.7573,5.7808,5.8384,5.9087,5.979,6.0376,6.2385,6.4405,6.6054,6.7629,6.864,6.8766,7.0646,7.1875,7.1875,7.2429,7.3045,7.3722,7.3783,7.4091,7.4769,7.4861,7.4892,7.4892,7.4953,7.5015,7.5015,7.5015,7.5015,7.5015,7.5015,7.4953,7.4892,7.4892,7.4861,7.4769,7.4769,7.443,7.3813,7.3176,7.2523,7.1944,7.121,7.0921,7.0889,0.0,0.0,0.0,0.0,0.0,0.0,0.0,0.0,5.0389,5.0667,5.1621,5.239,5.2676,5.2676,5.3229,5.4583,5.4706,5.5291,5.6717,5.818,5.9021,5.9021,6.0461,6.1965,6.3508,6.3843,6.4769,6.6339,6.6643,6.6791,6.6791,6.6791,6.6791,6.6791,6.6791,6.6235,6.5281,6.5089,6.4103,6.2657,6.2607,6.223,6.1734,6.1989,6.2052,6.1976,6.144,6.1623,0.0,6.1757,6.2111,6.2698,6.2998,6.3143,6.326,6.3448,6.3395,6.3107,6.238,6.1733,6.0808,5.8881,5.781,5.7017,5.6,5.567,5.5726,5.6327,5.6693,5.712,5.7617,5.7957,5.834,5.8915,5.966,6.0341,6.0927,6.3963,6.6437,6.7227,6.9688,7.1133,7.0737,7.1813,7.2737,7.3106,7.3414,7.3876,7.4553,7.4584,7.4707,7.4984,7.5384,7.56,7.56,7.5969,7.6184,7.6184,7.6184,7.6184,7.6184,7.6184,7.5969,7.5569,7.5169,7.5015,7.5015,7.5015,7.483,7.452,7.4072,7.3567,7.2975,7.1448,7.0889,7.0889,0.0,0.0,0.0,0.0,0.0,0.0,0.0,0.0,0.0,0.0,5.199,5.2676,5.2676,5.2676,5.3229,5.4583,5.4706,5.5291,5.6717,5.8318,5.9333,5.9565,6.1351,6.302,6.458,6.4783,6.5527,6.6791,6.6791,6.6791,6.6791,6.6791,6.6791,6.6791,6.6791,6.6235,6.5259,6.4943,6.4117,6.2996,6.2679,6.2397,6.221,6.2544,6.2673,6.2585,6.1907,6.2113,6.2645,6.2446,6.2747,6.3252,6.3453,6.3453,6.3367,6.3481,6.3309,6.2933,6.2233,6.1969,6.1287,5.8821,5.8143,5.7773,5.6377,5.6107,5.6327,5.6928,5.7407,5.7747,5.7904,5.8366,5.8889,5.9343,6.0136,6.1069,6.2095,6.5452,6.8015,6.8554,7.1352,7.3107,7.2614,7.3014,7.3537,7.4214,7.4276,7.4553,7.523,7.5292,7.5353,7.5569,7.6031,7.6277,7.6277,7.6737,7.6983,7.6983,7.6983,7.6983,7.6983,7.6983,7.6737,7.6277,7.5784,7.5569,7.5569,7.5569,7.5381,7.51,7.4745,7.4328,7.3663,7.2046,7.1457,7.1457,0.0,0.0,0.0,0.0,0.0,0.0,0.0,0.0,0.0,0.0,0.0,5.2676,5.2676,5.2676,5.3229,5.4583,5.4706,5.5291,5.6717,5.77,5.8637,5.9543,6.1192,6.2895,6.4559,6.529,6.6034,6.6791,6.6791,6.6791,6.6791,6.6791,6.6791,6.6791,6.6791,6.6235,6.5259,6.4943,6.4214,6.3255,6.2979,6.2872,6.2908,6.3037,6.3078,6.3078,6.3048,6.3048,6.3078,6.3078,6.325,6.351,6.351,6.3738,6.3908,6.3595,6.3309,6.3165,6.3395,6.3651,6.3278,6.0569,6.0297,5.997,5.7097,5.6652,5.6928,5.7564,5.7695,5.7878,5.8392,5.8941,5.9369,5.9395,6.0515,6.2051,6.4021,6.6321,6.8521,7.0485,7.2654,7.3968,7.3937,7.3968,7.4245,7.4922,7.4984,7.5261,7.5938,7.5969,7.6277,7.6921,7.6952,7.6952,7.6952,7.6983,7.6983,7.6983,7.6983,7.6983,7.6983,7.6983,7.6983,7.6952,7.6921,7.6921,7.6921,7.6921,7.6358,7.5448,7.5117,7.4329,7.3362,7.2997,7.2864,7.2864,0.0,0.0,0.0,0.0,0.0,0.0,0.0,0.0,0.0,0.0,0.0,0.0,0.0,0.0,0.0,0.0,5.4706,5.5291,5.6717,5.7676,5.8614,5.9543,6.0755,6.2386,6.4559,6.485,6.5561,6.6791,6.6791,6.6791,6.6791,6.6791,6.6791,6.6791,6.6791,6.688,6.7007,6.6692,6.6126,6.5388,6.4884,6.4123,6.3292,6.3162,6.3108,6.3108,0.0,6.3108,6.3108,6.3108,6.3165,6.3252,6.3252,6.3309,6.3395,6.328,6.3309,6.3453,6.3766,6.3908,6.3425,6.1089,6.0517,5.997,5.7773,5.732,5.7564,5.8104,5.8558,5.8872,5.9045,5.9542,6.0065,6.0457,6.1106,6.238,6.4689,6.7116,6.9335,7.1264,7.3354,7.483,7.5292,7.4922,7.4953,7.563,7.5661,7.5969,7.6646,7.6644,7.68,7.6983,7.6983,7.6983,7.6983,7.6983,7.6983,7.6983,7.6983,7.6983,7.6983,7.6983,7.6983,7.6983,7.6983,7.6983,7.6983,7.6983,7.6827,7.6481,7.6118,7.5634,7.5086,7.4684,7.4414,7.4091,0.0,0.0,0.0,0.0,0.0,0.0,0.0,0.0,0.0,0.0,0.0,0.0,0.0,0.0,0.0,0.0,0.0,5.5291,5.6717,5.7377,5.8249,5.9521,6.0663,6.2339,6.4559,6.5121,6.5865,6.6791,6.6791,6.6791,6.6791,6.6791,6.6791,6.6791,6.6791,6.7218,6.7864,6.7623,6.7387,6.7158,6.6033,6.5063,6.4155,6.3394,6.3108,0.0,6.3108,6.3108,6.3108,6.3108,6.3108,6.3108,6.3108,6.3108,6.3108,6.3108,6.3223,6.3453,6.388,6.4145,6.393,6.2166,6.1468,6.0775,5.9021,5.8314,5.8078,5.8444,5.8967,5.9395,5.9395,6.0013,6.0629,6.1021,6.1784,6.3282,6.6044,6.8149,7.0244,7.2639,7.4346,7.5538,7.5969,7.5846,7.5907,7.6338,7.6369,7.6554,7.6952,7.6983,7.6983,7.6983,7.6983,7.6983,7.6983,7.6983,7.6983,7.6983,7.6983,7.6983,7.6983,7.6983,7.6983,7.6983,7.6983,7.6983,7.6983,7.6983,7.6851,7.662,7.6388,7.6021,7.558,7.5312,7.5074,7.4783,0.0,0.0,0.0,0.0,0.0,0.0,0.0,0.0,0.0,0.0,0.0,0.0,0.0,0.0,0.0,0.0,0.0,0.0,5.6631,5.6779,5.7606,5.9433,6.0905,6.2596,6.4478,6.5925,6.6724,6.6791,6.6791,6.6791,6.6791,6.6791,6.6791,6.6791,6.6791,6.7231,6.7932,6.7702,6.8022,6.847,6.6508,6.5656,6.5444,6.3762,6.3137,6.3108,6.3108,6.3108,6.3108,6.3108,6.3108,6.3108,6.3108,6.3108,6.3108,6.3108,6.3137,6.328,6.391,6.4566,6.4792,6.3742,6.3091,6.2252,6.0667,5.9384,5.8523,5.8549,5.9091,5.9555,5.9473,6.0452,6.1237,6.1163,6.2453,6.4654,6.8037,6.9378,7.1263,7.4662,7.5661,7.6061,7.6061,7.6646,7.6983,7.6983,7.6983,7.6983,7.6983,7.6983,7.6983,7.6983,7.6983,7.6983,7.6983,7.6983,7.6983,7.6983,7.6983,7.6983,7.6983,7.6983,7.6983,7.6983,7.6983,7.6983,7.6983,7.6983,7.6587,7.6018,7.5984,7.5516,7.4903,7.4903,7.4903,7.4903,0.0,0.0,0.0,0.0,0.0,0.0,0.0,0.0,0.0,0.0,0.0,0.0,0.0,0.0,0.0,0.0,0.0,0.0,5.5923,5.6477,5.733,5.8501,5.9588,6.1219,6.3503,6.4622,6.5696,6.6791,6.6791,6.6791,6.6791,6.6791,6.6791,6.6791,6.6791,6.7535,6.8787,6.8715,6.8974,6.9282,6.7716,6.6606,6.5714,6.4045,6.3395,6.3367,6.3165,6.3108,6.3108,6.3108,6.3108,6.3108,6.3108,6.3108,6.3137,6.3338,6.3567,6.3942,6.4826,6.5355,6.5464,6.4635,6.3545,6.2329,6.0877,5.9462,5.8627,5.9072,6.0536,6.1497,6.0807,6.2173,6.3055,6.1962,6.3447,6.5619,6.8142,7.0482,7.2922,7.5431,7.6338,7.6737,7.6737,7.689,7.6983,7.6983,7.6983,7.6983,7.6983,7.6983,7.6983,7.6983,7.6983,7.6983,7.6983,7.6983,7.6983,7.6983,7.6983,7.6983,7.6983,7.6983,7.6983,7.6983,7.6983,7.6983,7.6983,7.6752,7.6521,7.6321,7.5752,7.5414,7.5244,7.4971,7.4903,7.4903,0.0,0.0,0.0,0.0,0.0,0.0,0.0,0.0,0.0,0.0,0.0,0.0,0.0,0.0,0.0,0.0,0.0,0.0,0.0,5.6385,5.7211,5.8165,5.9015,6.0496,6.2664,6.3872,6.5085,6.6305,6.6622,6.6791,6.6791,6.6791,6.6791,6.6791,6.6791,6.7455,6.8571,6.8571,6.8831,0.0,0.0,6.6477,6.5633,6.396,6.3338,6.3309,6.3165,6.3108,6.3108,6.3108,6.3108,6.3108,6.3108,6.3108,6.3137,6.328,6.3453,6.383,6.4925,6.5464,6.5748,6.5892,6.4445,6.2944,6.307,6.0896,5.9411,6.1323,6.234,6.2713,6.2189,6.3242,6.3719,6.2246,6.4028,6.6322,6.8428,7.1063,7.3673,7.5973,7.654,7.6851,7.6983,7.6983,7.6983,7.6983,7.6983,7.6983,7.6983,7.6983,7.6983,7.6983,7.6983,7.6983,7.6983,7.6983,7.6983,7.6983,7.6983,7.6983,7.6983,7.6983,7.6983,7.6983,7.6983,7.6983,7.6983,7.6653,7.6421,7.6158,7.5617,7.5312,7.5142,7.4971,7.4903,7.4903,0.0,0.0,0.0,0.0,0.0,0.0,0.0,0.0,0.0,0.0,0.0,0.0,0.0,0.0,0.0,0.0,0.0,0.0,0.0,0.0,5.7046,5.798,5.8757,5.9973,6.1706,6.3099,6.4381,6.5517,6.6171,6.6584,6.6791,6.6791,6.6791,6.6791,6.6791,6.7218,6.7895,6.7895,6.8126,6.8333,6.679,6.5883,6.5374,0.0,6.3165,6.3165,6.3108,6.3108,6.3108,6.3108,6.3108,6.3108,6.3108,6.3108,6.3108,6.3137,6.3225,6.3579,6.4848,6.5428,6.5946,6.7172,6.545,6.3973,6.5831,6.3004,6.089,6.4156,6.4305,6.3848,6.3717,6.4191,6.4119,6.265,6.4727,6.7028,6.8573,7.139,7.4031,7.596,7.6357,7.6653,7.695,7.6983,7.6983,7.6983,7.6983,7.6983,7.6983,7.6983,7.6983,7.6983,7.6983,7.6983,7.6983,7.6983,7.6983,7.6983,7.6983,7.6983,7.6983,7.6983,7.6983,7.6983,7.6983,7.6983,7.6983,7.6653,7.6258,7.5856,7.555,7.5176,7.4903,7.4903,7.4903,7.4903,0.0,0.0,0.0,0.0,0.0,0.0,0.0,0.0,0.0,0.0,5.2676,5.2676,0.0,0.0,0.0,0.0,0.0,0.0,0.0,0.0,0.0,5.7019,5.7919,5.8807,5.9772,6.0793,6.2366,6.4537,6.4671,6.5438,6.6791,6.6791,6.6791,6.6791,6.6791,6.7218,6.7895,6.7895,6.7846,6.7675,6.6785,6.588,6.4986,6.386,0.0,0.0,6.3194,6.3108,6.3108,6.3108,6.3108,6.3108,6.3108,6.3108,6.3137,6.3367,6.3814,6.4531,6.5833,6.6385,6.6848,6.7695,6.6451,6.5216,6.5825,6.4406,6.344,6.51,6.6265,6.6764,6.5999,6.6368,6.6286,6.4787,6.6936,6.8483,6.7764,7.1892,7.4877,7.4552,7.5695,7.6653,7.695,7.6983,7.6983,7.6983,7.6983,7.6983,7.6983,7.6983,7.6983,7.6983,7.6983,7.6983,7.6983,7.6983,7.6983,7.6983,7.6983,7.6983,7.6983,7.6983,7.6983,7.6983,7.6983,7.6983,7.6983,7.6653,7.6258,7.5856,7.555,7.5176,7.4903,7.4903,7.4903,7.4903,0.0,0.0,0.0,0.0,0.0,0.0,0.0,5.2676,5.2676,5.2676,5.2676,5.2676,5.2676,5.2676,5.2676,0.0,0.0,0.0,0.0,0.0,0.0,5.62,5.7048,5.7856,5.8708,5.9534,6.0777,6.2442,0.0,6.3594,6.4741,6.5244,6.5694,6.604,6.6567,6.6994,6.7354,6.7354,6.6867,6.6082,6.544,6.4696,6.3807,6.3042,0.0,0.0,6.3165,6.3108,6.3108,6.3108,6.3108,6.3108,6.3108,6.3108,6.3137,6.3252,6.376,6.4478,6.5608,6.6157,6.6643,6.7517,6.6417,6.5555,6.7155,6.5779,6.4961,6.779,6.8319,6.8137,6.7679,6.8113,6.7806,6.5473,6.8141,7.0005,6.8586,7.2291,7.5044,7.4813,7.5624,7.6324,7.6719,7.6884,7.6983,7.6983,7.6983,7.6983,7.6983,7.6983,7.6983,7.6983,7.6983,7.6983,7.6983,7.6983,7.6983,7.6983,7.6983,7.6983,7.6983,7.6983,7.6983,7.6983,7.6983,7.6884,7.6719,7.6324,7.5957,7.5617,7.5278,7.504,7.4903,7.4903,7.4903,7.4903,0.0,0.0,0.0,0.0,0.0,0.0,0.0,5.2676,5.2676,5.2676,5.2676,5.2676,5.2676,5.2676,5.2676,0.0,0.0,0.0,0.0,0.0,0.0,0.0,0.0,0.0,5.7887,0.0,0.0,6.0377,6.098,0.0,0.0,0.0,0.0,0.0,6.5744,6.6148,6.6148,6.6148,6.5422,0.0,0.0,6.3287,6.2665,0.0,0.0,0.0,0.0,6.3108,6.3108,6.3108,6.3108,6.3108,6.3108,6.3108,6.3108,6.3108,6.3617,6.4394,6.5259,6.5862,6.6401,6.7276,6.6415,6.5989,6.8454,6.7217,6.6552,7.0135,6.9979,6.9153,6.9153,6.9525,6.898,6.6211,6.9165,7.0993,6.8771,7.2195,7.48,7.4431,7.5218,7.5957,7.6454,7.6752,7.6917,7.6983,7.6983,7.6983,7.6983,7.6983,7.6983,7.6983,7.6983,7.6983,7.6983,7.6983,7.6983,7.6983,7.6983,7.6983,7.6983,7.6983,7.6983,7.6983,7.6983,7.6851,7.6587,7.6191,7.5853,7.5482,7.5142,7.4971,7.4903,7.4903,7.4903,7.4903,0.0,0.0,0.0,0.0,0.0,0.0,0.0,5.2676,5.2676,5.2676,5.2676,5.2676,5.2676,5.2676,5.2676,0.0,0.0,0.0,0.0,0.0,0.0,0.0,0.0,0.0,0.0,0.0,0.0,5.9433,5.952,0.0,0.0,0.0,0.0,0.0,0.0,6.4077,6.4077,6.4077,0.0,0.0,0.0,0.0,0.0,0.0,0.0,0.0,0.0,6.3108,6.3108,6.3108,6.3108,6.3108,6.3108,6.3108,6.3108,6.3108,6.3947,6.4993,6.5379,6.6192,6.7001,6.7396,6.7152,6.7174,6.8643,6.8784,6.9015,7.0585,7.0791,7.0694,7.0694,7.0548,6.9891,6.8189,7.0457,7.0858,6.6378,7.1024,7.3981,7.1452,7.3678,7.5718,7.6454,7.6554,7.6686,7.6983,7.6983,7.6983,7.6983,7.6983,7.6983,7.6983,7.6983,7.6983,7.6983,7.6983,7.6983,7.6983,7.6983,7.6983,7.6983,7.6983,7.6983,7.6983,7.6983,7.6983,7.6917,7.6587,7.6255,7.5917,7.5516,7.5176,7.4903,7.4903,7.4903,7.4903,0.0,0.0,0.0,0.0,0.0,0.0,5.2676,5.2676,5.2676,5.2676,5.2676,5.2676,5.2676,5.2676,5.2676,5.2676,0.0,0.0,0.0,0.0,0.0,0.0,0.0,0.0,0.0,0.0,5.7126,5.7806,5.7806,0.0,0.0,0.0,0.0,0.0,0.0,6.3432,6.382,6.382,0.0,0.0,0.0,0.0,0.0,0.0,0.0,0.0,0.0,0.0,6.3108,6.3108,6.3108,6.3108,6.3108,6.3108,6.3108,6.3108,6.4006,6.5024,6.5172,6.6072,6.7029,6.7182,6.7121,6.7358,6.8704,6.9004,6.9363,7.0649,7.0889,7.0889,7.0889,7.147,7.142,6.9837,7.2024,7.294,7.0062,7.2692,7.4461,7.3357,7.45,7.5516,7.5819,7.6255,7.6653,7.6983,7.6983,7.6983,7.6983,7.6983,7.6983,7.6983,7.6983,7.6983,7.6983,7.6983,7.6983,7.6983,7.6983,7.6983,7.6983,7.6983,7.6983,7.6983,7.6983,7.6884,7.6686,7.6321,7.5954,7.5583,7.5244,7.5006,7.4903,7.4903,7.4903,7.4903,0.0,0.0,0.0,0.0,0.0,5.2676,5.2676,5.2676,5.2676,5.2676,5.2676,5.2676,5.2676,5.2676,5.2676,5.2676,5.2676,0.0,0.0,0.0,0.0,0.0,0.0,0.0,0.0,0.0,5.681,5.681,5.681,5.7032,0.0,0.0,5.9355,6.0321,0.0,0.0,0.0,0.0,0.0,0.0,0.0,0.0,0.0,0.0,0.0,0.0,0.0,0.0,0.0,0.0,0.0,6.3108,6.3108,6.3108,6.3108,6.3108,6.4006,6.4994,6.4994,6.5981,6.6999,6.6999,6.6999,6.7358,6.8704,6.9004,6.9363,7.0649,7.0889,7.0889,7.0889,7.1996,7.2361,7.0743,7.2985,7.4154,7.2093,7.3568,7.4731,7.4253,7.4805,7.5278,7.538,7.5987,7.6488,7.6818,7.6851,7.6884,7.6983,7.6983,7.6983,7.6983,7.6983,7.6983,7.6983,7.6983,7.6983,7.6983,7.6983,7.6983,7.6983,7.6983,7.6983,7.6983,7.6884,7.6785,7.662,7.6054,7.5839,7.5787,7.5164,7.5023,7.5172,7.4993,7.4903,7.4903,0.0,0.0,0.0,0.0,0.0,0.0,5.2676,5.2676,5.2676,5.2676,5.2676,5.2676,5.2676,5.2676,5.2676,5.2676,5.2676,0.0,0.0,0.0,0.0,0.0,0.0,0.0,0.0,0.0,5.681,5.681,5.681,5.681,5.684,5.7518,5.7826,5.7888,0.0,0.0,0.0,0.0,0.0,0.0,0.0,0.0,6.1166,0.0,0.0,0.0,0.0,0.0,0.0,0.0,0.0,0.0,0.0,6.3108,6.3108,6.3108,6.4006,6.4994,6.4994,6.5981,6.6999,6.6999,6.6999,6.7358,6.8704,6.9004,6.9363,7.0649,7.0889,7.0889,7.0889,7.1996,7.2361,7.0743,7.2985,7.3777,7.0586,7.2905,7.4323,7.2692,7.3911,7.504,7.5346,7.5782,7.6121,7.6488,7.6521,7.6653,7.6983,7.6983,7.6983,7.6983,7.6983,7.6983,7.6983,7.6983,7.6983,7.6983,7.6983,7.6983,7.6983,7.6983,7.6983,7.6983,7.6653,7.6686,7.6917,7.5853,7.598,7.6732,7.5417,7.5288,7.5826,7.5138,7.4903,7.4903,0.0,0.0,0.0,0.0,0.0,0.0,0.0,5.2676,5.2676,5.2676,5.2676,5.2676,5.2676,5.2676,5.2676,5.2676,5.2676,0.0,0.0,0.0,0.0,0.0,0.0,0.0,0.0,0.0,5.681,5.681,5.681,5.681,5.681,5.7025,5.734,5.7832,5.8726,5.9271,0.0,0.0,0.0,0.0,0.0,6.0333,6.1106,0.0,0.0,0.0,0.0,0.0,0.0,0.0,0.0,0.0,0.0,0.0,0.0,6.3108,6.4006,6.4994,6.4994,6.5981,6.6999,6.6999,6.6999,6.7358,6.8704,6.9004,6.9363,7.0649,7.0889,7.0889,7.0889,7.1996,7.2727,7.2226,7.3665,7.453,7.3533,7.4253,7.4731,7.4219,7.4564,7.504,7.5346,7.5546,7.5752,7.6121,7.6155,7.6188,7.6319,7.6288,7.6488,7.6983,7.6983,7.6884,7.6653,7.6884,7.6884,7.6653,7.6653,7.6653,7.6653,7.6653,7.6653,7.6653,7.6554,7.6554,7.6618,7.6236,7.6296,7.6512,7.6269,7.6335,7.6479,7.6305,7.6215,7.6155,0.0,0.0,0.0,0.0,0.0,0.0,0.0,5.2676,5.2676,5.2676,5.2676,5.2676,5.2676,5.2676,5.2676,5.2676,5.2676,0.0,0.0,0.0,0.0,0.0,0.0,0.0,0.0,5.6416,5.681,5.681,5.681,5.681,5.681,5.681,5.6952,5.7316,5.8237,5.8731,0.0,0.0,0.0,0.0,5.9342,6.0044,6.1076,0.0,0.0,0.0,0.0,0.0,0.0,0.0,0.0,0.0,0.0,0.0,0.0,0.0,6.4006,6.4994,6.4994,6.5981,6.6999,6.6999,6.6999,6.7358,6.8704,6.9004,6.9363,7.0649,7.0889,7.0889,7.0889,7.1996,7.2924,7.2924,7.4031,7.4903,7.4903,7.4903,7.4903,7.4903,7.4903,7.4971,7.5176,7.521,7.5346,7.5749,7.5752,7.585,7.5954,7.5954,7.6155,7.6587,7.662,7.6554,7.6521,7.6719,7.6653,7.6321,7.6454,7.6391,7.6258,7.6321,7.6388,7.6488,7.6355,7.6541,0.0,7.6535,7.671,7.7128,7.6859,7.6928,7.7137,7.6868,7.6779,7.6749,0.0,0.0,0.0,0.0,0.0,0.0,0.0,5.2676,5.2676,5.2676,5.2676,5.2676,5.2676,5.2676,5.2676,5.2676,0.0,0.0,0.0,0.0,0.0,0.0,0.0,0.0,0.0,5.6385,5.681,5.681,5.681,5.681,5.681,5.681,5.6664,5.6482,5.7803,5.8293,0.0,0.0,0.0,0.0,5.9159,5.9967,0.0,0.0,0.0,0.0,0.0,0.0,0.0,0.0,0.0,0.0,0.0,0.0,0.0,0.0,0.0,0.0,0.0,6.5981,6.6999,6.6999,6.6999,6.7358,6.8704,6.9004,0.0,7.0649,7.0889,7.0889,7.0889,7.1996,7.2924,7.2924,7.4031,7.4903,7.4903,7.4903,7.4903,7.4903,7.4903,7.4903,7.4903,7.4903,7.5006,7.5346,7.5346,7.5516,7.5823,7.5887,7.595,7.595,7.5887,7.6024,7.6421,7.6454,7.6288,7.5984,7.6288,7.6224,7.5856,7.592,7.6121,7.6421,7.6088,7.6517,7.7358,7.6709,7.7188,7.8267,7.7279,7.7317,7.7801,7.7167,7.6928,7.6928,0.0,0.0,0.0,0.0,0.0,0.0,0.0,0.0,0.0,0.0,5.2676,5.2676,5.2676,5.2676,5.2676,0.0,0.0,0.0,0.0,0.0,0.0,0.0,0.0,0.0,0.0,5.617,5.681,5.681,5.681,5.681,5.681,5.681,5.6761,5.675,5.7903,5.8683,0.0,0.0,0.0,0.0,5.9668,6.0356,0.0,0.0,0.0,0.0,6.3108,6.3108,0.0,0.0,0.0,0.0,0.0,0.0,0.0,0.0,6.4006,6.4994,6.4994,0.0,6.6999,6.6999,6.6999,6.7358,0.0,6.9004,6.9363,7.0649,7.0889,7.0889,7.0889,7.1996,7.2924,7.2924,7.4031,7.4903,7.4903,7.4903,7.4903,7.4903,7.4903,7.4903,7.4903,7.4903,7.4937,7.5006,7.5006,7.504,7.5142,7.5142,7.5278,7.5516,7.5278,7.5312,7.5651,7.5954,7.592,7.5516,7.5617,7.5617,7.5516,7.5516,7.5583,7.5651,7.5583,7.5976,7.6645,7.6674,7.7189,7.7973,7.8226,7.843,7.8549,7.84,7.834,7.825,0.0,0.0,0.0,0.0,0.0,0.0,0.0,0.0,0.0,0.0,0.0,5.2676,5.2676,5.2676,0.0,0.0,0.0,0.0,0.0,0.0,0.0,0.0,0.0,0.0,5.5137,5.6231,5.681,5.681,5.681,5.681,5.681,5.681,5.6891,5.7113,5.806,5.8624,0.0,0.0,5.9099,5.9159,5.9817,0.0,0.0,0.0,0.0,0.0,6.3108,6.3108,0.0,6.3108,6.3108,6.3108,0.0,0.0,0.0,0.0,6.4006,6.4994,6.4994,6.5981,6.6999,6.6999,6.7208,6.7748,6.8764,6.9243,6.9722,7.0709,7.0889,7.0889,7.0889,7.1996,7.2924,7.2924,7.4031,7.4903,7.4903,7.4903,7.4903,7.4903,7.4903,7.4903,7.4903,7.4903,7.4903,7.4903,7.4903,7.4903,7.4903,7.4903,7.4971,7.5142,7.4971,7.504,7.538,7.5647,7.5516,7.5176,7.5312,7.5312,7.5176,7.5176,7.5244,7.538,7.538,7.5957,7.6856,7.7044,7.7524,7.828,7.8639,7.8789,7.8789,7.8789,7.8789,7.8729,0.0,0.0,0.0,0.0,0.0,0.0,0.0,0.0,0.0,0.0,0.0,0.0,0.0,0.0,0.0,0.0,0.0,0.0,0.0,0.0,0.0,0.0,0.0,5.5014,5.5684,5.6416,5.681,5.681,5.681,5.681,5.681,5.681,5.7039,5.752,5.8256,5.8467,0.0,0.0,5.9159,5.9308,5.9967,0.0,0.0,0.0,0.0,0.0,0.0,0.0,0.0,6.3108,6.3108,6.3108,6.3108,0.0,0.0,0.0,0.0,0.0,6.5114,6.6071,6.6999,6.6999,6.7508,6.8197,6.8854,6.9512,7.0141,7.0769,7.0889,7.0949,7.1038,7.2086,7.292,7.3043,7.4091,7.4903,7.4903,7.4903,7.4903,7.4903,7.4903,7.4903,7.4903,7.4903,7.4903,7.4903,7.4903,7.4903,7.4903,7.4903,7.4903,7.4903,7.4903,7.504,7.5312,7.5312,7.5176,7.4903,7.5176,7.5176,7.4903,7.4903,7.504,7.5312,7.5312,7.6065,7.7299,7.7299,7.7905,7.8789,7.8789,7.8789,7.8789,7.8789,7.8789,7.8789,0.0,0.0,0.0,0.0,0.0,0.0,0.0,0.0,0.0,0.0,0.0,0.0,0.0,0.0,0.0,0.0,0.0,0.0,0.0,0.0,0.0,0.0,5.5054,5.5014,5.5684,5.6416,5.681,5.681,5.681,5.681,5.681,5.681,5.7193,5.783,5.8308,5.8681,5.8949,0.0,5.9428,5.9997,6.0685,0.0,0.0,0.0,0.0,0.0,0.0,0.0,0.0,6.3108,6.3108,6.3108,6.3108,0.0,0.0,0.0,0.0,0.0,6.5712,6.64,6.6999,6.6999,6.7508,6.8197,6.8854,6.9512,7.0141,7.0769,7.0889,7.1068,7.1637,7.2385,7.3103,7.3642,7.439,7.4903,7.4903,7.4903,7.4903,7.4903,7.4903,7.4903,7.4903,7.4903,7.4903,7.4903,7.4903,7.4903,7.4903,7.4903,7.4903,7.4903,7.4903,7.4903,7.4971,7.4971,7.4937,7.4903,7.4937,7.4937,7.4903,7.4903,7.4903,7.4971,7.4971,7.5721,7.6884,7.6884,7.7657,7.8789,7.8789,7.8789,7.8789,7.8789,7.8789,7.8789,0.0,0.0,0.0,0.0,0.0,0.0,0.0,0.0,0.0,0.0,0.0,0.0,0.0,0.0,0.0,0.0,0.0,0.0,0.0,0.0,0.0,5.6555,5.621,5.6093,5.6293,5.7096,5.7306,5.681,5.681,5.681,5.6816,5.7377,5.7678,5.773,5.8621,5.8861,5.8563,5.8949,5.9488,6.0174,0.0,0.0,0.0,0.0,0.0,0.0,0.0,0.0,0.0,0.0,6.3108,6.3108,6.3108,0.0,0.0,0.0,0.0,0.0,6.5832,6.649,6.7089,6.7449,6.8047,6.8736,6.9363,7.0021,7.056,7.0829,7.0889,7.1098,7.1757,7.2445,7.3253,7.427,7.4723,7.4903,7.4903,7.4903,7.4903,7.4903,7.4903,7.4903,7.4903,7.4903,7.4903,7.4903,7.4903,7.4903,7.4903,7.4903,7.4903,7.4903,7.4903,7.4903,7.4903,7.4903,7.4903,7.4903,7.4903,7.4903,7.4903,7.4903,7.4903,7.4903,7.4903,7.5437,7.6365,7.6659,7.7382,7.831,7.8639,7.8789,7.8789,7.8789,7.8789,7.8789,0.0,0.0,0.0,0.0,0.0,0.0,0.0,0.0,0.0,0.0,0.0,0.0,0.0,0.0,0.0,0.0,0.0,0.0,0.0,0.0,5.6759,5.7722,5.7714,5.7413,5.6803,5.77,5.7723,5.681,5.681,5.6854,5.6965,5.7937,5.8169,5.779,5.8911,5.9018,5.8384,5.9069,5.9727,6.0386,0.0,0.0,0.0,0.0,0.0,0.0,0.0,0.0,0.0,0.0,0.0,0.0,0.0,0.0,0.0,6.4066,6.4695,6.5383,6.6071,6.6729,6.7419,6.8077,6.8615,6.9183,6.9842,7.047,7.0889,7.0889,7.1009,7.1338,7.1996,7.2804,7.3702,7.4753,7.4903,7.4903,7.4903,7.4903,7.4903,7.4903,7.4903,7.4903,7.4903,7.4903,7.4903,7.4903,7.4903,7.4903,7.4903,7.4903,7.4903,7.4903,7.4903,7.4903,7.4903,7.4903,7.4903,7.4903,7.4903,7.4903,7.4903,7.4903,7.4903,7.4903,7.4903,7.5258,7.5946,7.6539,7.7197,7.7861,7.8519,7.8789,7.8789,7.8789,7.8789,7.8789,0.0,0.0,0.0,0.0,0.0,0.0,0.0,0.0,0.0,0.0,0.0,0.0,0.0,0.0,0.0,0.0,0.0,0.0,0.0,0.0,5.7823,5.9606,5.9512,5.8596,5.6834,5.77,5.7723,5.681,5.681,5.6947,5.727,5.8101,5.8475,5.8452,5.8934,5.9069,5.9069,5.9727,6.0416,6.1104,6.1762,0.0,0.0,0.0,0.0,0.0,0.0,0.0,0.0,0.0,0.0,0.0,0.0,0.0,6.4066,6.4725,6.5383,6.6071,6.6759,6.7419,6.8107,6.8764,6.8974,6.9183,6.9842,7.047,7.0889,7.0889,7.1398,7.2026,7.2714,7.3881,7.4813,7.4903,7.4903,7.4903,7.4903,7.4903,7.4903,7.4903,7.4903,7.4903,7.4903,7.4903,7.4903,7.4903,7.4903,7.4903,7.4903,7.4903,7.4903,7.4903,7.4903,7.4903,7.4903,7.4903,7.4903,7.4903,7.4903,7.4903,7.4903,7.4903,7.4903,7.4903,7.4903,7.5258,7.5946,7.6539,7.7197,7.7861,7.8519,7.8789,7.8789,7.8789,7.8789,7.8789,0.0,0.0,0.0,0.0,0.0,0.0,0.0,0.0,0.0,0.0,0.0,0.0,0.0,0.0,0.0,0.0,0.0,0.0,0.0,0.0,5.9865,6.0548,5.9956,5.8998,5.77,5.8592,5.8447,5.7107,5.7362,5.7785,5.8297,5.8425,5.8614,5.8874,5.9006,5.9338,5.9727,5.9967,6.0715,6.1732,6.2002,6.248,0.0,0.0,0.0,0.0,0.0,0.0,0.0,0.0,6.3108,6.3108,6.3108,6.3498,6.4126,6.4785,6.5473,6.6161,6.6819,6.7508,6.8167,6.8824,6.9303,6.9782,7.041,7.0739,7.0889,7.0889,7.1427,7.2235,7.3313,7.427,7.4903,7.4903,7.4903,7.4903,7.4903,7.4903,7.4903,7.4903,7.4903,7.4903,7.4903,7.4903,7.4903,7.4903,7.4903,7.4903,7.4903,7.4903,7.4903,7.4903,7.4903,7.4903,7.4903,7.4903,7.4903,7.4903,7.4903,7.4903,7.4903,7.4903,7.4903,7.4903,7.4903,7.5053,7.5318,7.5976,7.6599,7.7287,7.837,7.8789,7.8789,7.8789,7.8789,7.8789,0.0,0.0,0.0,0.0,0.0,0.0,0.0,0.0,0.0,0.0,0.0,0.0,0.0,0.0,0.0,0.0,0.0,0.0,0.0,6.0742,6.1111,6.1432,6.0237,5.9407,5.8956,5.9296,5.8787,5.745,5.7958,5.8447,5.8902,5.8746,5.8841,5.9129,5.9308,5.9668,6.0144,6.0535,6.1253,6.2121,6.2331,6.2689,0.0,0.0,0.0,0.0,0.0,0.0,0.0,0.0,6.3108,6.3108,6.3108,6.3647,6.4425,6.4874,6.5622,6.646,6.7119,6.7808,6.8496,6.9153,6.9782,7.038,7.0799,7.0889,7.0949,7.1158,7.1906,7.2864,7.4001,7.4604,7.4903,7.4903,7.4903,7.4903,7.4903,7.4903,7.4903,7.4903,7.4903,7.4903,7.4903,7.4903,7.4903,7.4903,7.4903,7.4903,7.4903,7.4903,7.4903,7.4903,7.4903,7.4903,7.4903,7.4903,7.4903,7.4903,7.4903,7.4903,7.4903,7.4903,7.4903,7.4903,7.4903,7.4903,7.4963,7.5617,7.6395,7.7197,7.813,7.8609,7.8789,7.8789,7.8789,7.8789,0.0,0.0,0.0,0.0,0.0,0.0,0.0,0.0,0.0,0.0,0.0,0.0,0.0,0.0,0.0,0.0,0.0,0.0,6.0974,6.1007,6.1432,6.2361,6.0609,5.9921,6.0611,5.9688,5.8765,5.7832,5.8547,5.8902,5.8932,5.9041,5.9099,5.9129,5.9787,6.0114,6.0234,6.1523,6.2091,6.2151,6.2838,6.3108,6.3108,0.0,0.0,0.0,0.0,0.0,0.0,0.0,6.3108,6.3108,6.3108,6.3977,6.4994,6.5024,6.5981,6.7148,6.7838,6.8465,6.9183,6.9812,7.044,7.0889,7.0889,7.0889,7.1098,7.1757,7.2954,7.4091,7.4783,7.4903,7.4903,7.4903,7.4903,7.4903,7.4903,7.4903,7.4903,7.4903,7.4903,7.4903,7.4903,7.4903,7.4903,7.4903,7.4903,7.4903,7.4903,7.4903,7.4903,7.4903,7.4903,7.4903,7.4903,7.4903,7.4903,7.4903,7.4903,7.4903,7.4903,7.4903,7.4903,7.4903,7.4903,7.4903,7.4963,7.5617,7.6664,7.7801,7.7801,7.822,7.8789,7.8789,7.8789,7.8789,0.0,0.0,0.0,0.0,0.0,0.0,0.0,0.0,0.0,0.0,0.0,0.0,0.0,0.0,0.0,0.0,0.0,0.0,6.1991,6.2475,6.2879,6.3173,6.1806,6.1509,6.2398,6.1265,6.0199,5.9218,5.9518,5.9761,5.9971,6.0026,6.0087,6.0117,6.0588,6.1074,6.1523,6.1942,6.2361,6.2838,6.3018,6.3108,6.3108,0.0,0.0,0.0,0.0,0.0,0.0,0.0,0.0,0.0,6.3588,6.4336,6.5084,6.5592,6.664,6.7748,6.7958,6.8856,6.9722,6.9963,7.044,7.0889,7.0889,7.0889,7.1218,7.2385,7.3283,7.4091,7.4783,7.4903,7.4903,7.4903,7.4903,7.4903,7.4903,7.4903,7.4903,7.4903,7.4903,7.4903,7.4903,7.4903,7.4903,7.4903,7.4903,7.4903,7.4903,7.4903,7.4903,7.4903,7.4903,7.4903,7.4903,7.4903,7.4903,7.4903,7.4903,7.4903,7.4903,7.4903,7.4903,7.4903,7.4903,7.4903,7.4963,7.5617,7.6125,7.6544,7.7472,7.7921,7.816,7.8609,7.8789,7.8789,0.0,0.0,0.0,0.0,0.0,0.0,0.0,0.0,0.0,0.0,0.0,0.0,0.0,0.0,0.0,0.0,0.0,0.0,0.0,6.326,6.3612,6.3917,6.2865,6.2317,6.2431,6.1957,6.1201,6.0178,6.0067,6.0217,6.0589,6.0421,6.0483,6.0754,6.125,6.1732,6.2121,6.2361,6.2748,6.3108,6.3108,6.3108,6.3108,0.0,0.0,0.0,0.0,0.0,0.0,0.0,0.0,0.0,6.3797,6.4485,6.5144,6.5802,6.6939,6.8047,6.8347,6.9185,7.0083,7.029,7.062,7.1011,7.1443,7.1615,7.2062,7.344,7.4125,7.4624,7.5014,7.5108,7.504,7.4903,7.4903,7.4903,7.4903,7.4903,7.4903,7.4903,7.4903,7.4903,7.4903,7.4903,7.4903,7.4903,7.4903,7.4903,7.4903,7.4903,7.4903,7.4903,7.4903,7.4903,7.4903,7.4903,7.4903,7.4903,7.4903,7.4903,7.4903,7.4903,7.4903,7.4903,7.4903,7.4903,7.4933,7.5318,7.5647,7.5976,7.6754,7.7203,7.7466,7.816,7.84,7.843,0.0,0.0,0.0,0.0,0.0,0.0,0.0,0.0,0.0,0.0,0.0,0.0,0.0,0.0,0.0,0.0,0.0,0.0,0.0,0.0,6.4005,6.4681,6.3851,6.2821,6.1534,6.2053,6.1885,6.1041,6.0447,6.0434,6.0984,6.0563,6.0678,6.128,6.191,6.2181,6.2211,6.2838,6.3108,6.3108,6.3108,6.3108,6.3108,6.3108,0.0,0.0,0.0,0.0,0.0,0.0,0.0,0.0,6.3887,6.4575,6.5203,6.5861,6.7029,6.8227,6.8824,6.9512,7.0201,7.0769,7.0981,7.1351,7.24,7.2866,7.343,7.4728,7.5231,7.5448,7.5448,7.5448,7.5346,7.504,7.4971,7.4937,7.4937,7.4903,7.4903,7.4937,7.4903,7.4903,7.4937,7.4903,7.4903,7.4903,7.4903,7.4903,7.4903,7.4903,7.4903,7.4903,7.4903,7.4903,7.4903,7.4903,7.4903,7.4903,7.4903,7.4903,7.4903,7.4903,7.4903,7.4903,7.4903,7.4903,7.4903,7.4903,7.5258,7.5826,7.5886,7.6245,7.6779,7.7472,7.7711,7.7801,0.0,0.0,0.0,0.0,0.0,0.0,0.0,0.0,0.0,0.0,0.0,0.0,0.0,0.0,0.0,0.0,0.0,0.0,0.0,0.0,6.529,6.5459,6.5065,6.4359,6.3288,6.2641,6.2423,6.2764,6.1851,6.1471,6.1629,6.2074,6.2375,6.2498,6.2769,6.2898,6.2898,6.3048,6.3108,6.3108,6.3108,6.3108,6.3108,6.3108,6.3108,0.0,0.0,0.0,0.0,0.0,0.0,0.0,6.4575,6.5263,6.5922,6.658,6.7717,6.8824,6.8944,6.9842,7.0739,7.0859,7.1536,7.24,7.3456,7.4122,7.4635,7.4952,7.5432,7.5883,7.5883,7.5819,7.5819,7.5782,7.5482,7.5278,7.5278,7.5074,7.5006,7.5244,7.504,7.5006,7.5244,7.504,7.4903,7.4903,7.4903,7.4903,7.4903,7.4903,7.4903,7.4903,7.4903,7.4903,7.4903,7.4903,7.4903,7.4903,7.4903,7.4903,7.4903,7.4903,7.4903,7.4903,7.4903,7.4903,7.4903,7.4903,7.4993,7.5172,7.5707,7.5976,7.6185,7.6814,7.7018,7.7108,0.0,0.0,0.0,0.0,0.0,0.0,0.0,0.0,0.0,0.0,0.0,0.0,0.0,0.0,0.0,0.0,0.0,0.0,0.0,0.0,6.5886,6.6203,6.6076,6.557,6.4538,6.3836,6.3422,6.3312,6.2953,6.2603,0.0,6.2569,6.2805,6.2996,6.3072,6.3108,6.3108,6.3108,6.3108,6.3108,6.3108,6.3108,6.3108,6.3108,6.3108,6.3108,6.3108,0.0,0.0,0.0,0.0,0.0,0.0,0.0,6.6191,6.7178,6.8196,6.9064,6.9393,7.0171,7.1011,7.1536,7.23,7.3257,7.4417,7.5249,7.577,7.5902,7.611,7.6221,7.6221,7.6221,7.6124,7.5987,7.5786,7.5685,7.5685,7.5516,7.5482,7.5651,7.5516,7.5414,7.538,7.5244,7.5074,7.4903,7.4903,7.4903,7.4903,7.4903,7.4903,7.4903,7.4903,7.4903,7.4903,7.4903,7.4903,7.4903,7.4903,7.4903,7.4903,7.4903,7.4903,7.4903,7.4903,7.4903,7.4903,7.4903,7.4903,7.4933,7.5258,7.5407,7.5497,7.6155,7.636,7.6485,0.0,0.0,0.0,0.0,0.0,0.0,0.0,0.0,0.0,0.0,0.0,0.0,0.0,0.0,0.0,0.0,0.0,0.0,0.0,0.0,0.0,6.6757,6.661,6.6215,6.5492,6.4849,6.4269,6.3659,6.3734,0.0,0.0,0.0,6.2994,6.3308,6.328,6.3223,6.3165,6.3165,6.3137,6.3108,6.3108,6.3108,6.3108,6.3108,6.3108,6.3108,6.3108,6.3168,6.3347,6.3827,0.0,0.0,0.0,0.0,6.64,6.7658,6.8465,6.9153,6.9844,7.044,7.1133,7.2149,7.2975,7.3839,7.5129,7.6031,7.6686,7.695,7.6785,7.6587,7.6587,7.6587,7.6488,7.6158,7.6088,7.6085,7.6085,7.5987,7.5987,7.6054,7.6051,7.5853,7.5516,7.5414,7.5244,7.4903,7.4903,7.4903,7.4903,7.4903,7.4903,7.4903,7.4903,7.4903,7.4903,7.4903,7.4903,7.4903,7.4903,7.4903,7.4903,7.4903,7.4903,7.4903,7.4903,7.4903,7.4903,7.4903,7.4903,7.4903,7.4903,7.4903,7.4993,7.5527,7.5736,7.5826,0.0,0.0,0.0,0.0,0.0,0.0,0.0,0.0,0.0,0.0,0.0,0.0,0.0,0.0,0.0,0.0,0.0,0.0,6.5547,0.0,0.0,6.6791,6.5975,6.5703,6.6153,6.4425,6.4039,6.5118,0.0,0.0,0.0,0.0,0.0,6.4214,0.0,6.3738,6.3453,6.3453,6.3309,6.3108,6.3108,6.3108,6.3108,6.3108,6.3108,6.3108,6.3108,6.3467,6.3887,6.3977,6.4784,0.0,0.0,0.0,6.6999,6.7778,6.8465,6.9153,6.9844,7.044,7.1068,7.1792,7.2945,7.4132,7.4897,7.6031,7.695,7.6983,7.695,7.6917,7.6917,7.6917,7.6917,7.6851,7.662,7.6454,7.6454,7.6188,7.6088,7.6421,7.6155,7.5954,7.5823,7.5583,7.5244,7.4903,7.4903,7.4903,7.4903,7.4903,7.4903,7.4903,7.4903,7.4903,7.4903,7.4903,7.4903,7.4903,7.4903,7.4903,7.4903,7.4903,7.4903,7.4903,7.4903,7.4903,7.4903,7.4903,7.4903,7.4903,7.4903,7.4903,7.4933,7.5023,7.5053,7.5108,0.0,0.0,0.0,0.0,0.0,0.0,0.0,0.0,0.0,0.0,0.0,0.0,0.0,0.0,0.0,6.4086,6.5087,6.5886,6.6305,6.6622,6.6791,6.6791,6.6767,6.6623,6.6318,6.5699,6.5678,6.6293,0.0,0.0,0.0,6.4936,6.4496,0.0,0.0,0.0,6.3795,6.3795,6.3624,6.3338,6.3538,6.351,6.3338,6.3338,0.0,0.0,0.0,0.0,6.4126,6.4874,6.5533,6.6071,6.643,0.0,0.0,0.0,6.9034,6.9692,7.032,7.0979,7.1673,7.2529,7.365,7.4808,7.5643,7.6307,7.6785,7.695,7.6851,7.6785,7.695,7.6983,7.6983,7.6983,7.6884,7.6785,7.6785,7.6653,7.6587,7.6752,7.6653,7.6388,7.5987,7.5819,7.5482,7.4937,7.4903,7.4903,7.4903,7.4903,7.4903,7.4903,7.4903,7.4903,7.4903,7.4903,7.4903,7.4903,7.4903,7.4903,7.4903,7.4903,7.4903,7.4903,7.4903,7.4903,7.4903,7.4903,7.4903,7.4903,7.4903,7.4903,7.4903,7.4903,7.4903,7.4963,0.0,0.0,0.0,0.0,0.0,0.0,0.0,0.0,0.0,0.0,0.0,0.0,0.0,0.0,0.0,0.0,6.5561,6.6203,6.6757,6.696,6.7083,6.7083,6.7524,6.7369,6.6479,6.6558,6.6534,0.0,0.0,0.0,6.6072,6.5269,6.4666,0.0,6.4247,0.0,0.0,0.0,0.0,6.3652,6.3908,6.3851,0.0,0.0,0.0,0.0,0.0,6.4421,6.4783,6.5802,6.6192,6.634,6.6819,6.7479,0.0,0.0,0.0,7.032,7.0769,7.1398,7.2122,7.3046,7.407,7.5068,7.6002,7.6321,7.6488,7.6818,7.6686,7.662,7.695,7.6983,7.6983,7.6983,7.6983,7.6983,7.6983,7.6983,7.6983,7.6983,7.6983,7.6719,7.6085,7.5954,7.5685,7.4937,7.4903,7.4903,7.4903,7.4903,7.4903,7.4903,7.4903,7.4903,7.4903,7.4903,7.4903,7.4903,7.4903,7.4903,7.4903,7.4903,7.4903,7.4903,7.4903,7.4903,7.4903,7.4903,7.4903,7.4903,7.4903,7.4903,7.4903,7.4903,7.4903,7.4903,0.0,0.0,0.0,0.0,0.0,0.0,0.0,0.0,0.0,0.0,0.0,0.0,0.0,6.5155,6.5615,6.5649,6.6305,6.6757,6.6791,6.7455,6.7827,6.7827,6.7625,0.0,6.6955,6.5982,0.0,0.0,0.0,0.0,6.497,6.4915,6.486,6.4832,6.4832,6.4694,6.4382,0.0,0.0,0.0,6.3993,6.3993,0.0,0.0,0.0,0.0,0.0,6.5551,6.6372,6.6432,6.6703,6.6939,6.6969,6.7479,6.8137,0.0,0.0,0.0,7.0889,7.1398,7.2089,7.2744,7.3674,7.4604,7.5297,7.5752,7.6121,7.6454,7.6521,7.662,7.695,7.6983,7.6983,7.6983,7.6983,7.6983,7.6983,7.6983,7.6983,7.6983,7.6983,7.6719,7.6085,7.5954,7.5621,7.4937,7.4903,7.4903,7.4903,7.4903,7.4903,7.4903,7.4903,7.4903,7.4903,7.4903,7.4903,7.4903,7.4903,7.4903,7.4903,7.4903,7.4903,7.4903,7.4903,7.4903,7.4903,7.4903,7.4903,7.4903,7.4903,7.4903,7.4903,7.4903,7.4903,7.4903,0.0,0.0,0.0,0.0,0.0,0.0,0.0,0.0,0.0,0.0,0.0,0.0,0.0,6.5547,6.5865,6.6373,6.7083,6.7523,6.7523,6.8233,6.8673,6.8673,6.902,6.8859,6.803,6.7439,0.0,0.0,0.0,6.5242,6.5911,6.5214,6.4888,6.4888,6.4888,6.4832,6.4721,6.4721,0.0,0.0,0.0,0.0,0.0,0.0,6.5065,6.5342,6.6023,6.6514,6.688,6.7304,6.7397,6.7395,6.7816,6.8263,6.8854,6.9901,7.053,7.0889,7.0889,7.1697,7.2595,7.2864,7.3971,7.5113,7.532,7.5516,7.5786,7.6388,7.6321,7.6355,7.6884,7.6983,7.6983,7.6983,7.6983,7.6983,7.6983,7.6983,7.6983,7.6983,7.6983,7.6818,7.6355,7.6088,7.5752,7.5244,7.5006,7.4903,7.4903,7.4903,7.4903,7.4903,7.4903,7.4903,7.4903,7.4903,7.4903,7.4903,7.4903,7.4903,7.4903,7.4903,7.4903,7.4903,7.4903,7.4903,7.4903,7.4903,7.4903,7.4903,7.4903,7.4903,7.4903,7.4903,7.4903,7.4903,0.0,0.0,0.0,0.0,0.0,0.0,0.0,0.0,0.0,0.0,0.0,0.0,0.0,0.0,6.6373,6.7117,6.7861,6.8301,6.8301,6.9011,6.9451,6.9451,6.9839,6.9676,6.897,6.8389,0.0,0.0,0.0,0.0,0.0,6.5781,6.5242,6.4888,6.4888,6.4888,0.0,0.0,0.0,6.4579,6.4805,6.49,6.4947,6.5407,6.5838,6.6331,6.7075,6.7386,6.7541,6.7967,6.8091,6.8061,6.8392,6.8866,6.9542,7.059,7.0889,7.0889,7.0889,7.1876,7.2924,7.2924,7.408,7.521,7.521,7.521,7.538,7.6021,7.6054,7.6185,7.6719,7.6917,7.6983,7.6983,7.6983,7.6983,7.6983,7.6983,7.6983,7.6983,7.6983,7.6884,7.6554,7.6288,7.5954,7.5448,7.5176,7.5006,7.4903,7.4903,7.4903,7.4903,7.4903,7.4903,7.4903,7.4903,7.4903,7.4903,7.4903,7.4903,7.4903,7.4903,7.4903,7.4903,7.4903,7.4903,7.4903,7.4903,7.4903,7.4903,7.4903,7.4903,7.4903,7.4903,7.4903,7.4903,0.0,0.0,0.0,0.0,0.0,0.0,0.0,0.0,0.0,0.0,0.0,0.0,0.0,0.0,0.0,6.7861,6.8673,6.9147,6.9147,6.9823,7.0251,7.0251,6.9919,6.9737,6.9737,6.8724,0.0,0.0,0.0,0.0,0.0,0.0,6.5884,6.4888,6.4888,6.4888,6.4888,0.0,6.4888,6.4888,6.4918,6.5346,6.596,6.5965,6.6765,6.7964,6.7935,6.8131,6.8416,6.8447,6.8696,6.8972,6.8665,6.9258,7.0173,7.0739,7.0919,7.0889,0.0,0.0,0.0,7.2924,7.3881,7.4903,7.4903,7.4903,7.4971,7.5312,7.5715,7.6085,7.6421,7.6752,7.695,7.695,7.6983,7.6983,7.6983,7.6983,7.6983,7.6983,7.6983,7.6851,7.6521,7.6457,7.6188,7.5448,7.538,7.5244,7.4903,7.4903,7.4903,7.4903,7.4903,7.4903,7.4903,7.4903,7.4903,7.4903,7.4903,7.4903,7.4903,7.4903,7.4903,7.4903,7.4903,7.4903,7.4903,7.4903,7.4903,7.4903,7.4903,7.4903,7.4903,7.4903,7.4903,7.4903,0.0,0.0,0.0,0.0,0.0,0.0,0.0,0.0,0.0,0.0,0.0,0.0,0.0,0.0,0.0,6.8741,6.9451,6.9913,6.9913,7.0601,7.1007,7.1007,7.0906,7.087,7.087,6.9817,6.8895,6.8097,6.7318,6.6385,6.5351,6.5351,6.516,0.0,6.4888,6.4888,6.4888,6.4888,6.4888,6.4949,6.5442,6.6244,6.7147,6.7291,6.8078,6.9098,6.8747,6.8677,6.8833,6.9325,6.9392,6.9397,7.0095,7.0629,0.0,7.1214,7.1083,0.0,7.0889,0.0,0.0,0.0,0.0,0.0,7.4813,7.4903,7.4971,7.5312,7.5482,7.5685,7.6054,7.6188,7.6191,7.6255,7.6686,7.6983,7.6983,7.6983,7.6917,7.6686,7.6653,7.6521,7.6155,7.5887,7.5617,7.5414,7.5176,7.5006,7.4903,7.4903,7.4903,7.4903,7.4903,7.4903,7.4903,7.4903,7.4903,7.4903,7.4903,7.4903,7.4903,7.4903,7.4903,7.4903,7.4903,7.4903,7.4903,7.4903,7.4903,7.4903,7.4903,7.4903,7.4903,7.4903,7.4903,7.4903,0.0,0.0,0.0,0.0,0.0,0.0,0.0,0.0,0.0,0.0,0.0,0.0,0.0,0.0,0.0,0.0,7.0229,7.0669,7.0669,7.1075,7.1289,7.1289,7.1289,7.1289,7.1289,7.0699,7.0053,6.9403,6.8378,6.7292,6.6231,6.5781,6.5324,6.4888,0.0,0.0,0.0,6.5712,6.5727,6.5405,6.6271,6.7339,6.8504,6.9079,6.9611,6.9979,6.9714,6.9482,6.9382,6.9751,7.0064,7.0404,7.1349,7.1643,7.1628,7.1628,7.15,0.0,0.0,0.0,7.2253,7.2777,0.0,0.0,7.4753,7.4903,7.4937,7.5142,7.5278,7.5448,7.5715,7.5853,7.5923,7.5954,7.6288,7.6554,7.6587,7.6587,7.6488,7.6321,7.6288,7.6188,7.6018,7.5752,7.555,7.5414,7.521,7.504,7.4903,7.4903,7.4903,7.4903,7.4903,7.4903,7.4903,7.4903,7.4903,7.4903,7.4903,7.4903,7.4903,7.4903,7.4903,7.4903,7.4903,7.4903,7.4903,7.4903,7.4903,7.4903,7.4903,7.4903,7.4903,7.4903,7.4903,7.4903,0.0,0.0,6.2545,6.3417,6.4113,6.4808,6.5517,0.0,0.0,0.0,0.0,0.0,0.0,0.0,0.0,0.0,7.0839,7.1289,7.1289,7.1289,7.1289,7.1289,7.1289,7.1289,7.1289,7.1289,7.1244,7.1098,7.0029,6.896,6.7896,6.68,6.5804,6.4888,6.4888,0.0,0.0,6.6771,6.7061,6.6592,6.7621,6.872,6.9886,7.0999,7.1231,7.0961,7.0778,7.0425,7.0083,7.0119,7.0801,7.1689,7.2363,7.2325,7.2071,7.2071,7.2007,0.0,0.0,0.0,0.0,7.2781,7.3343,0.0,7.4753,7.4903,7.4903,7.4903,7.5142,7.5346,7.5346,7.5617,7.5789,7.5789,7.5789,7.5823,7.5984,7.6018,7.5984,7.595,7.595,7.5917,7.5883,7.5789,7.5654,7.5346,7.5346,7.521,7.4903,7.4903,7.4903,7.4903,7.4903,7.4903,7.4903,7.4903,7.4903,7.4903,7.4903,7.4903,7.4903,7.4903,7.4903,7.4903,7.4903,7.4903,7.4903,7.4903,7.4903,7.4903,7.4903,7.4903,7.4903,7.4903,7.4903,7.4903,0.0,0.0,6.3409,6.396,6.4173,6.4539,6.5259,0.0,0.0,0.0,0.0,0.0,0.0,0.0,0.0,0.0,7.0724,7.1289,7.1289,7.1289,7.1289,7.1289,7.1289,7.1289,7.1289,7.1289,7.0893,7.0006,6.8944,6.7845,6.6806,6.5727,6.5108,6.4888,6.4888,6.5712,6.7049,6.6475,6.779,7.0278,7.049,7.073,7.1047,7.1813,7.2607,7.3175,7.1871,7.1377,7.1287,7.1529,7.2091,7.2705,7.2859,7.2671,7.242,7.242,7.1978,7.15,7.1435,7.13,7.1463,7.2595,7.3013,0.0,7.4599,7.4903,7.4903,7.4903,7.4937,7.5006,7.5006,7.504,7.5108,7.5108,7.5108,7.5312,7.5917,7.5954,7.5789,7.555,7.5516,7.5414,7.5142,7.5108,7.5074,7.5006,7.5006,7.4971,7.4903,7.4903,7.4903,7.4903,7.4903,7.4903,7.4903,7.4903,7.4903,7.4903,7.4903,7.4903,7.4903,7.4903,7.4903,7.4903,7.4903,7.4903,7.4903,7.4903,7.4903,7.4903,7.4903,7.4903,7.4903,7.4903,7.4903,7.4903,0.0,6.3726,6.4141,6.4823,6.5237,6.5739,6.6464,6.6899,0.0,0.0,0.0,0.0,0.0,0.0,0.0,0.0,0.0,0.0,0.0,7.1289,7.1289,7.1289,7.1289,7.1052,7.0505,7.0482,6.9982,6.892,6.7852,6.7008,6.6465,6.5406,6.5187,6.5673,6.5503,6.6199,6.7565,6.7692,6.8464,6.9698,7.0855,7.1838,7.2773,7.3671,7.4237,7.4372,7.2955,7.217,7.1883,7.2366,7.2737,7.3014,7.3014,7.289,7.2765,7.2765,7.2484,7.2168,7.1978,7.1819,7.193,7.2929,7.316,0.0,0.0,7.4903,7.4903,7.4903,7.4903,7.4903,7.4903,7.4903,7.4903,7.4903,7.4903,7.5006,7.538,7.5414,7.5346,7.5176,7.5142,7.5074,7.4903,7.4903,7.4903,7.4903,7.4903,7.4903,7.4903,7.4903,7.4903,7.4903,7.4903,7.4903,7.4903,7.4903,7.4903,7.4903,7.4903,7.4903,7.4903,7.4903,7.4903,7.4903,7.4903,7.4903,7.4903,7.4903,7.4903,7.4903,7.4903,7.4903,7.4903,7.4903,7.4903,7.4903,0.0,0.0,6.4551,6.539,6.6195,6.6975,6.7704,6.8125,0.0,0.0,0.0,0.0,0.0,0.0,0.0,0.0,0.0,0.0,7.1289,7.1289,7.1289,7.1289,7.1289,7.0916,7.0029,7.0006,6.9475,6.8395,6.7548,6.6904,6.6465,6.5775,6.5724,6.6398,6.6385,6.6979,6.7981,6.9141,6.9406,6.9227,7.0835,7.2444,7.4026,7.5396,7.5842,7.5484,7.4197,7.3076,7.2275,7.2829,7.3014,7.3014,7.3014,7.3014,7.3014,7.3014,7.2952,7.2859,7.2546,7.2575,7.2719,7.3386,7.3551,7.3841,0.0,0.0,0.0,7.4903,7.4903,7.4903,7.4903,7.4903,7.4873,7.4753,7.4843,7.4873,7.4753,7.4843,7.4903,7.4903,7.4903,7.4903,7.4903,7.4903,7.4903,7.4903,7.4903,7.4903,7.4903,7.4903,7.4903,7.4903,7.4903,7.4903,7.4903,7.4903,7.4903,7.4903,7.4903,7.4903,7.4903,7.4903,7.4903,7.4903,7.4903,7.4903,7.4903,7.4903,7.4903,7.4903,7.4903,7.4903,7.4903,7.4903,7.4903,7.4903,6.4261,6.4177,0.0,6.4803,6.5755,6.671,6.7441,6.892,0.0,0.0,0.0,0.0,0.0,0.0,0.0,0.0,0.0,7.1289,7.1289,7.1289,7.1289,7.1289,7.1289,7.1244,7.1098,7.1098,7.0608,6.9523,6.9403,6.8346,6.6491,6.699,6.6737,6.6063,6.7622,6.8684,6.9363,6.9521,7.1049,7.3237,7.2508,7.2685,7.3735,7.5922,7.7125,7.7454,7.5831,7.4246,7.2922,7.2952,7.3014,7.3014,7.3014,7.3014,7.3014,7.3014,7.2796,7.2577,7.2484,7.2721,7.3072,7.3766,7.4109,7.448,7.5166,0.0,7.4903,7.4903,0.0,7.4903,7.4903,0.0,0.0,7.4091,7.448,7.4693,7.4091,7.4544,7.4903,7.4903,7.4903,7.4903,7.4903,7.4903,7.4903,7.4903,7.4903,7.4903,7.4903,7.4903,7.4903,7.4903,7.4903,7.4903,7.4903,7.4903,7.4903,7.4903,7.4903,7.4903,7.4903,7.4903,7.4903,7.4903,7.4903,7.4903,7.4903,7.4903,7.4903,7.4903,7.4903,7.4903,7.4903,7.4903,7.4903,7.4903,6.5227,6.5258,0.0,6.6467,6.6819,6.7497,6.8853,7.0086,0.0,0.0,0.0,0.0,6.8544,7.0133,7.0893,0.0,7.0676,7.1289,7.1289,7.1289,0.0,7.1289,7.1289,7.1007,7.0389,7.0366,6.9556,6.782,6.782,6.7283,6.6156,6.644,6.6862,6.746,6.867,6.9681,7.0508,7.0303,7.1529,7.3619,7.3143,7.4066,7.5786,7.6599,7.7176,7.7481,7.649,7.5249,7.3934,7.3231,7.3014,7.3014,7.3014,7.3014,7.3014,7.3014,7.3166,7.338,7.338,7.3744,7.4258,7.4735,7.497,7.5137,7.557,7.5448,7.5176,7.5176,0.0,0.0,0.0,0.0,0.0,0.0,7.4723,7.4813,7.451,7.4723,7.4903,7.4903,7.4903,7.4903,7.4903,7.4903,7.4903,7.4903,7.4903,7.4903,7.4903,7.4903,7.4903,7.4903,7.4903,7.4903,7.4903,7.4903,7.4903,7.4903,7.4903,7.4903,7.4903,7.4903,7.4903,7.4903,7.4903,7.4903,7.4903,7.4903,7.4903,7.4903,7.4903,7.4903,7.4903,7.4903,7.4903,7.4903,6.6677,0.0,0.0,6.7513,6.7515,6.7983,6.9793,7.076,7.1199,7.0916,7.1098,7.0893,6.9841,7.0654,7.0984,7.0226,7.087,7.1289,7.1289,7.1289,7.1289,7.1289,7.1289,7.0939,7.018,7.0123,6.9334,6.7683,6.7657,6.7309,6.6623,6.6812,6.7402,6.837,6.9418,7.0308,7.1038,7.1069,7.2136,7.3859,7.3859,7.5464,7.7851,7.7839,7.7707,7.7576,7.7205,7.6306,7.5095,7.3874,7.3477,7.3447,7.3107,7.3014,7.3014,7.3014,7.3445,7.3999,7.3999,7.4615,7.532,7.5585,7.5699,7.5843,7.6002,7.5819,7.5516,7.5414,7.521,0.0,0.0,0.0,7.4843,7.4663,0.0,7.4843,7.4663,7.4783,7.4903,7.4903,7.4903,7.4903,7.4903,7.4903,7.4903,7.4903,7.4903,7.4903,7.4903,7.4903,7.4903,7.4903,7.4903,7.4903,7.4903,7.4903,7.4903,7.4903,7.4903,7.4903,7.4903,7.4903,7.4903,7.4903,7.4903,7.4903,7.4903,7.4903,7.4903,7.4903,7.4903,7.4903,7.4903,7.4903,7.4903,7.4903,6.8842,6.7569,0.0,6.7029,6.7118,6.7696,6.9462,7.0597,7.0939,6.9888,7.0654,7.0893,6.9841,7.0654,7.1289,7.1244,7.1289,7.1289,7.1289,7.1289,7.1289,7.1289,7.1289,7.1289,7.1244,7.1244,7.1069,7.0653,7.0605,6.987,6.8513,6.9099,6.8864,6.7991,6.9782,7.0596,7.0679,7.1778,7.3345,7.5073,7.5073,7.6641,7.911,7.9811,7.935,7.8378,7.8358,7.7566,7.6366,7.5154,7.4741,7.4535,7.3385,7.3014,7.3014,7.3014,7.3445,7.3999,7.3999,7.4953,7.5969,7.5967,7.6231,7.649,7.6488,7.6221,7.5883,7.5482,7.538,7.5278,7.4937,7.4903,7.4693,0.0,7.4484,0.0,0.0,7.448,7.4903,7.4903,7.4903,7.4903,7.4903,7.4903,7.4903,7.4903,7.4903,7.4903,7.4903,7.4903,7.4903,7.4903,7.4903,7.4903,7.4903,7.4903,7.4903,7.4903,7.4903,7.4903,7.4903,7.4903,7.4903,7.4903,7.4903,7.4903,7.4903,7.4903,7.4903,7.4903,7.4903,7.4903,7.4903,7.4903,7.4903,7.4903,6.9688,0.0,6.8965,6.9117,6.898,6.9258,7.0574,7.1052,7.1176,7.0791,7.1075,7.1176,7.0791,7.1075,7.1289,7.1289,7.1289,7.1289,7.1289,7.1289,7.1289,7.1289,7.1289,7.1548,7.2022,7.2022,7.1843,7.1536,7.1512,7.1125,7.0363,6.9845,6.9619,6.9753,7.111,7.1723,7.1837,7.3436,7.5267,7.7086,7.806,7.9028,7.987,8.0107,7.9947,7.9503,7.8677,7.8137,7.7484,7.5504,7.48,7.4594,7.3385,7.3014,7.3107,7.3506,7.4122,7.4769,7.5199,7.6,7.6644,7.6644,7.6763,7.6818,7.6818,7.6587,7.6288,7.6155,7.5954,7.5651,7.5278,7.521,7.5082,0.0,7.4753,7.4843,0.0,7.4783,7.4903,7.4903,7.4903,7.4903,7.4903,7.4903,7.4903,7.4903,7.4903,7.4903,7.4903,7.4903,7.4903,7.4903,7.4903,7.4903,7.4903,7.4903,7.4903,7.4903,7.4903,7.4903,7.4903,7.4903,7.4903,7.4903,7.4903,7.4903,7.4903,7.4903,7.4903,7.4903,7.4903,7.4903,7.4903,7.4903,7.4903,7.4903,6.9313,6.9446,6.9687,7.0456,7.0387,7.0366,7.0676,7.1052,7.1289,7.1289,7.1289,7.1289,7.1289,7.1289,7.1289,7.1289,7.1289,7.1289,7.1289,7.1289,7.1289,7.1289,7.1526,7.1921,7.2394,7.2665,7.2803,7.2868,7.247,7.2257,7.2234,7.1103,7.0791,7.1233,7.1966,7.2656,7.3364,7.4585,7.6366,7.8483,7.9701,8.0209,8.0209,8.0209,8.0209,8.0074,7.9314,7.9053,7.873,7.6757,7.5791,7.5242,7.4025,7.3509,7.3414,7.3876,7.4645,7.5446,7.5907,7.6492,7.6983,7.6983,7.6983,7.6983,7.6983,7.6818,7.6653,7.6521,7.6321,7.6054,7.5651,7.5482,7.5312,0.0,7.4971,7.4903,0.0,7.4903,7.4903,7.4903,7.4903,7.4903,7.4903,7.4903,7.4903,7.4903,7.4903,7.4903,7.4903,7.4903,7.4903,7.4903,7.4903,7.4903,7.4903,7.4903,7.4903,7.4903,7.4903,7.4903,7.4903,7.4903,7.4903,7.4903,7.4903,7.4903,7.4903,7.4903,7.4903,7.4903,7.4903,7.4903,7.4903,7.4903,7.4903,7.4903,6.8117,6.8279,6.8895,7.0939,7.1289,7.0961,6.9935,7.0654,7.1289,7.1289,7.1289,7.1289,7.1289,7.1289,7.1289,7.1289,7.1289,7.1289,7.1289,7.1323,7.1357,7.1357,7.2056,7.2462,7.2496,7.3206,7.3916,7.4637,7.3554,7.3393,7.4064,7.292,7.2367,7.2367,7.2346,7.3371,7.5098,7.5165,7.6733,7.9228,7.9938,8.0209,8.0209,8.0209,8.0209,8.0209,8.0209,8.0183,7.9947,7.8783,7.7566,7.631,7.5186,7.4464,7.3999,7.4061,7.5015,7.6031,7.6061,7.649,7.6983,7.6983,7.6983,7.6983,7.6983,7.6983,7.6917,7.6587,7.6521,7.6391,7.599,7.5685,7.5448,7.5414,7.5108,7.4903,7.4903,7.4903,7.4903,7.4903,7.4903,7.4903,7.4903,7.4903,7.4903,7.4903,7.4903,7.4903,7.4903,7.4903,7.4903,7.4903,7.4903,7.4903,7.4903,7.4903,7.4903,7.4903,7.4903,7.4903,7.4903,7.4903,7.4903,7.4903,7.4903,7.4903,7.4903,7.4903,7.4903,7.4903,7.4903,7.4903,7.4903,7.4903,7.4903,7.4903,7.0459,7.0492,7.0654,7.1222,7.1289,7.1222,7.0939,7.1098,7.1289,7.1289,7.1289,7.1289,7.1289,7.1289,7.1289,7.1289,7.1289,7.1289,7.1289,7.1819,7.2124,7.2124,7.28,7.3477,7.4018,7.4221,7.4695,7.5439,7.5109,7.5089,7.5243,7.4114,7.3573,7.3555,7.3185,7.3834,7.5165,7.6258,7.797,7.9938,8.0107,8.0209,8.0209,8.0209,8.0209,8.0209,8.0209,7.9632,7.8809,7.8518,7.6981,7.5308,7.5461,7.4809,7.4184,7.5199,7.5723,7.6123,7.6583,7.686,7.6983,7.6983,7.6983,7.6983,7.6983,7.6983,7.6983,7.6884,7.6884,7.6752,7.6391,7.6288,7.6054,7.5482,7.5108,7.4903,7.4903,7.4903,7.4903,7.4903,7.4903,7.4903,7.4903,7.4903,7.4903,7.4903,7.4903,7.4903,7.4903,7.4903,7.4903,7.4903,7.4903,7.4903,7.4903,7.4903,7.4903,7.4903,7.4903,7.4903,7.4903,7.4903,7.4903,7.4903,7.4903,7.4903,7.4903,7.4903,7.4903,7.4903,7.4903,7.4903,7.4903,7.4903,7.4903,7.4903,6.9888,7.0273,7.0608,7.0608,7.0984,7.1289,7.1289,7.1289,7.1289,7.1289,7.1289,7.1289,7.1289,7.1289,7.1289,7.1289,7.1594,7.1785,7.1785,7.2462,7.2868,7.2868,7.3578,7.4187,7.4593,7.4931,7.527,7.5709,7.5709,7.5709,7.5709,7.5039,7.4712,7.4754,7.4826,7.5425,7.6467,7.7946,7.9211,8.0209,8.0209,8.0209,0.0,8.0209,8.0209,8.0209,8.0209,7.976,7.9184,7.9184,7.8145,7.6822,7.6662,7.6164,7.5745,7.5945,7.6215,7.649,7.689,7.6983,7.6983,7.6983,7.6983,7.6983,7.6983,7.6983,7.6983,7.6983,7.6983,7.695,7.6752,7.662,7.6255,7.5516,7.5244,7.5074,7.4903,7.4903,7.4903,7.4903,7.4903,7.4903,7.4903,7.4903,7.4903,7.4903,7.4903,7.4903,7.4903,7.4903,7.4903,7.4903,7.4903,7.4903,7.4903,7.4903,7.4903,7.4903,7.4903,7.4903,7.4903,7.4903,7.4903,7.4903,7.4903,7.4903,7.4903,7.4903,7.4903,7.4903,7.4903,7.4903,7.4903,7.4903,7.4903,7.4903,6.8527,6.9259,6.9912,6.9912,7.0676,7.1289,7.1289,7.1289,7.1289,7.1289,7.1289,7.1289,7.1289,7.1391,7.1424,7.1424,7.2124,7.2529,7.2529,7.3206,7.3612,7.3612,7.4356,7.4739,7.4739,7.5371,7.5709,7.5709,7.5709,7.5709,7.5709,7.5709,7.5743,7.5879,7.6511,7.7273,7.815,7.9583,8.0209,8.0209,8.0209,8.0209,8.0209,8.0209,8.0209,8.0209,8.0209,8.0074,8.0006,8.026,7.9857,7.909,7.8165,7.7911,7.7683,7.648,7.6554,7.6983,7.6983,7.6983,7.6983,7.6983,7.6983,7.6983,7.6983,7.6983,7.6983,7.6983,7.6983,7.6983,7.6983,7.6719,7.6288,7.5651,7.5448,7.5278,7.5006,7.4903,7.4903,7.4903,7.4903,0.0,7.4903,7.4903,7.4903,7.4903,7.4903,7.4903,7.4903,7.4903,7.4903,7.4903,7.4903,7.4903,7.4903,7.4903,7.4903,7.4903,7.4903,7.4903,7.4903,7.4903,7.4903,7.4903,7.4903,7.4903,7.4903,7.4903,7.4903,7.4903,7.4903,7.4903,7.4903,7.4903,7.4903,7.4869,7.0722,7.0893,7.1007,7.1007,7.1199,7.1289,7.1289,7.1289,7.1289,7.1289,7.1289,7.1289,7.1289,7.1853,7.2225,7.2225,7.2868,7.3331,7.3331,7.3984,7.4424,7.4424,7.51,7.5506,7.5506,7.5642,7.5709,7.5709,7.5709,7.5709,7.5709,7.5709,7.6048,7.6676,7.6425,7.7048,7.8391,7.9659,8.0209,8.0209,8.0209,8.0209,8.0209,8.0209,8.0209,8.0209,8.0209,7.9554,7.8962,8.057,7.9721,7.8165,7.9047,7.8649,7.7747,7.7036,7.689,7.6983,7.6983,7.6983,7.6983,7.6983,7.6983,7.6983,7.6983,7.6983,7.6983,7.6983,7.6983,7.6983,7.6983,7.6719,7.6488,7.6355,7.5819,7.538,7.5312,7.5074,7.4903,7.4903,7.4903,7.4903,7.4903,7.4903,7.4903,7.4903,7.4903,7.4903,7.4903,7.4903,7.4903,7.4903,7.4903,7.4903,7.4903,7.4903,7.4903,7.4903,7.4903,7.4903,7.4903,7.4903,7.4903,7.4903,7.4903,7.4903,7.4903,7.4903,7.4903,7.4903,7.4903,7.4903,7.4903,7.4903,7.4903,7.4731,7.1289,7.1289,7.1289,7.1289,7.1289,7.1289,7.1289,7.1289,7.1289,7.1289,7.1289,7.1424,7.1853,7.2191,7.2563,7.2935,7.3646,7.4052,7.4052,7.4762,7.5168,7.5168,7.5506,7.5709,7.5709,7.5709,7.5709,7.5709,7.5709,7.5709,7.5709,7.6115,7.6521,7.6937,7.7464,7.8309,7.9366,7.9947,8.0209,8.0209,8.0209,8.0209,8.0209,8.0209,8.0209,8.0209,8.0209,8.008,8.0055,8.1002,8.0759,8.0206,8.056,8.011,7.9238,7.825,7.7539,7.6983,7.6983,7.6983,7.6983,7.6983,7.6983,7.6983,7.6983,7.6983,7.6983,7.6983,7.6983,7.6983,7.6983,7.6884,7.6719,7.6554,7.6221,7.592,7.5718,7.538,7.5142,7.5142,7.5006,7.4903,7.4903,7.4903,7.4903,7.4903,7.4903,7.4903,7.4903,7.4903,7.4903,7.4903,7.4903,7.4903,7.4903,7.4903,7.4903,7.4903,7.4903,7.4903,7.4903,7.4903,7.4903,7.4903,7.4903,7.4903,7.4903,7.4903,7.4903,7.4903,7.4903,7.4903,7.4903,7.4903,7.4903,7.4663,7.1289,7.1289,7.1289,7.1289,7.1289,7.1289,7.1289,7.1289,7.1289,7.1289,7.1447,7.1751,7.2326,7.2699,7.3105,7.368,7.4424,7.483,7.483,7.5371,7.5709,7.5709,7.5709,7.5709,7.5709,7.5709,7.5709,7.5709,7.5709,7.5777,7.598,7.6589,7.7063,7.7435,7.8754,7.9667,8.0209,8.0209,8.0209,8.0209,8.0209,8.0209,8.0209,8.0209,8.0209,8.0209,8.0209,8.0648,8.1317,8.146,8.2002,8.2537,8.199,8.1541,8.0947,7.9653,7.8597,7.7767,7.7474,7.7409,7.7344,7.7081,7.6983,7.6983,7.6983,7.6983,7.6983,7.6983,7.6983,7.6983,7.6983,7.6983,7.6917,7.6653,7.6554,7.6421,7.6121,7.5752,7.5482,7.5414,7.5176,7.4971,7.4903,7.4903,7.4903,7.4903,7.4903,7.4903,7.4903,7.4903,7.4903,7.4903,7.4903,7.4903,7.4903,7.4903,7.4903,7.4903,7.4903,7.4903,7.4903,7.4903,7.4903,7.4903,7.4903,7.4903,7.4903,7.4903,7.4903,7.4903,7.4903,7.4903,7.4903,7.4903,7.4697,7.4184,7.1289,7.1289,7.1289,7.1289,7.1289,7.1289,7.1289,7.1289,7.1289,7.1289,7.1887,7.2326,7.2394,7.3612,7.4424,7.4492,7.5168,7.5608,7.5608,7.5676,7.5709,7.5709,7.5709,7.5709,7.5709,7.5709,7.5709,7.5709,7.5709,7.6082,7.6792,7.686,7.7604,7.8932,7.9735,8.0141,8.0209,8.0209,8.0209,8.0209,8.0209,8.0209,8.0209,8.0209,8.0209,8.0209,8.0209,8.0648,8.1418,8.2069,8.278,8.3279,8.2783,8.2567,8.2259,8.0977,8.053,8.0169,7.9035,7.8723,7.8439,7.7279,7.6983,7.6983,7.6983,7.6983,7.6983,7.6983,7.6983,7.6983,7.6983,7.6983,7.6983,7.695,7.6719,7.6488,7.6454,7.6155,7.5816,7.5448,7.538,7.521,7.4937,7.4903,7.4903,7.4903,7.4903,7.4903,7.4903,7.4903,7.4903,7.4903,7.4903,7.4903,7.4903,7.4903,7.4903,7.4903,7.4903,7.4903,7.4903,7.4903,7.4903,7.4903,7.4903,7.4903,7.4903,7.4903,7.4903,7.4903,7.4903,7.4903,7.4903,7.4903,7.3981,7.2515,7.1289,7.1289,7.1289,7.1289,7.1289,7.1289,7.1289,7.1289,7.1458,7.1921,7.2225,7.2732,7.3612,7.4255,7.4796,7.5236,7.554,7.5709,7.5709,7.5709,7.5709,7.5709,7.5709,7.5709,7.5709,7.5709,7.5709,7.5709,7.5709,7.6115,7.6927,7.7333,7.8348,7.9769,8.0073,8.0209,8.0209,8.0209,8.0209,8.0209,8.0209,8.0209,8.0209,8.0209,8.0209,8.0209,8.0209,8.0953,8.2002,8.2306,8.2881,8.3546,8.3773,8.331,8.2605,8.2087,8.1388,8.053,7.9253,7.8911,7.8597,7.7312,7.6983,7.6983,7.6983,7.6983,7.6983,7.6983,7.6983,7.6983,7.6983,7.6983,7.6983,7.6983,7.6884,7.6818,7.6818,7.6521,7.6155,7.5722,7.5516,7.5244,7.4937,7.4903,7.4903,7.4903,7.4903,7.4903,7.4903,7.4903,7.4903,7.4903,7.4903,7.4903,7.4903,7.4903,7.4903,7.4903,7.4903,7.4903,7.4903,7.4903,7.4903,7.4903,7.4903,7.4903,7.4903,7.4903,7.4903,7.4903,7.4903,7.4903,7.4903,7.4903,7.3876,7.2272,7.1289,7.1289,7.1289,7.1289,7.1289,7.1289,7.1289,7.1458,7.1887,7.2631,7.2902,7.3443,7.4492,7.4772,7.5134,7.5642,7.5709,7.5709,7.5709,7.5709,7.5709,7.5709,7.5709,7.5709,7.5709,7.5709,7.5811,7.6048,7.6048,7.6555,7.757,7.828,7.9194,8.0209,8.0209,8.0209,8.0209,8.0209,8.0209,8.0209,8.0209,8.0209,8.0209,8.0209,8.0209,8.0209,8.0209,8.1156,8.2408,8.2408,8.305,8.393,8.4444,8.3981,8.3254,8.3254,8.2633,8.1654,8.0352,7.9714,7.916,7.7864,7.7279,7.6983,7.6983,7.6983,7.6983,7.6983,7.6983,7.6983,7.6983,7.6983,7.6983,7.6983,7.6983,7.6983,7.6983,7.6818,7.6521,7.6124,7.5887,7.5583,7.5244,7.5108,7.504,7.504,7.4937,7.4903,7.4903,7.4903,7.4903,7.4903,7.4903,7.4903,7.4903,7.4903,7.4903,7.4903,7.4903,7.4903,7.4903,7.4903,7.4903,7.4903,7.4903,7.4903,7.4903,7.4903,7.4903,7.4903,7.4903,7.4903,7.4903,7.4903,7.3876,7.2272,7.1289,7.1289,7.1289,7.1289,7.1289,7.1289,7.1289,7.1921,7.2665,7.3398,7.4119,7.457,7.4603,7.5236,7.5676,7.5709,7.5709,7.5709,7.5709,7.5709,7.5709,7.5709,7.5709,7.5709,7.5709,7.5709,7.6082,7.6893,7.6893,7.7638,7.9092,7.9837,8.0175,8.0209,8.0209,8.0209,8.0209,8.0209,8.0209,8.0209,8.0209,8.0209,8.0209,8.0209,8.0209,8.0209,8.0209,8.1156,8.2408,8.2408,8.3362,8.458,8.4614,8.4614,8.4553,8.4553,8.4553,8.4285,8.2998,8.1741,8.047,7.919,7.7928,7.6983,7.6983,7.6983,7.6983,7.6983,7.6983,7.6983,7.6983,7.6983,7.6983,7.6983,7.6983,7.6983,7.6983,7.6983,7.6884,7.6554,7.6488,7.6355,7.6018,7.5647,7.538,7.538,7.5074,7.4903,7.4903,7.4903,7.4903,7.4903,7.4903,7.4903,7.4903,7.4903,7.4903,7.4903,7.4903,7.4903,7.4903,7.4903,7.4903,7.4903,7.4903,7.4903,7.4903,7.4903,7.4903,7.4903,7.4903,7.4903,7.4903,7.4903,7.3876,7.2272,7.1289,7.1289,7.1289,7.1289,7.1289,7.1289,7.1289,7.1921,7.2665,7.3398,7.4153,7.4796,7.5303,7.5574,7.5709,7.5709,7.5709,7.5709,7.5709,7.5709,7.5709,7.5709,7.5709,7.5709,7.5709,7.6251,7.6657,7.6893,7.7401,7.8145,7.9101,7.987,8.0209,8.0209,8.0209,8.0209,8.0209,8.0209,8.0209,8.0209,8.0209,8.0209,8.0209,8.0209,8.0209,8.0209,8.0209,8.1156,8.2408,8.2408,8.3362,8.4614,8.4614,8.4614,8.4614,8.4614,8.4614,8.4339,8.3059,8.2401,8.1596,7.9439,7.8597,7.8056,7.7212,7.6983,7.6983,7.6983,7.6983,7.6983,7.6983,7.6983,7.6983,7.6983,7.6983,7.6983,7.6983,7.6983,7.6884,7.6554,7.6521,7.6388,7.6051,7.5853,7.5651,7.5414,7.5278,7.5142,7.4903,7.4903,7.4903,7.4903,7.4903,7.4903,7.4903,7.4903,7.4903,7.4903,7.4903,7.4903,7.4903,7.4903,7.4903,7.4903,7.4903,7.4903,7.4903,7.4903,7.4903,7.4903,7.4903,7.4903,7.4903,7.4903,7.3187,7.0769,7.1289,7.1289,7.1289,7.1289,7.1289,7.1391,7.1684,7.2326,7.3071,7.3815,7.4559,7.5202,7.5642,7.5709,7.5709,7.5709,7.5709,7.5709,7.5709,7.5709,7.5709,7.5709,7.5709,7.5845,7.6149,7.6657,7.7164,7.7739,7.845,7.9058,7.9532,7.9972,8.0209,8.0209,8.0209,8.0209,8.0209,8.0209,8.0209,8.0209,8.0209,8.0209,8.0209,8.0209,8.0209,8.0209,8.0209,8.1156,8.2408,8.2408,8.3362,8.4614,8.4614,8.4614,8.4614,8.4614,8.4614,8.4419,8.3647,8.3054,8.2202,8.0141,7.9253,7.8565,7.7279,7.6983,7.6983,7.6983,7.6983,7.6983,7.6983,7.6983,7.6983,7.6983,7.6983,7.6983,7.6983,7.6983,7.6917,7.6719,7.6686,7.662,7.6388,7.6221,7.6024,7.5819,7.5685,7.5448,7.5108,7.4971,7.4903,7.4903,7.4903,7.4903,7.4903,7.4903,7.4903,7.4903,7.4903,7.4903,7.4903,7.4903,7.4903,7.4903,7.4903,7.4903,7.4903,7.4903,7.4903,7.4903,7.4903,7.4903,7.4903,7.4903,7.3252,7.0907,7.1289,7.1289,7.1289,7.1289,7.1289,7.1526,7.2293,7.3003,7.3747,7.4502,7.5236,7.5709,7.5709,7.5709,7.5709,7.5709,7.5709,7.5709,7.5709,7.5709,7.5709,7.5709,7.5743,7.6115,7.6893,7.6995,7.7739,7.9194,7.987,8.0209,8.0209,8.0209,8.0209,8.0209,8.0209,8.0209,8.0209,8.0209,8.0209,8.0209,8.0209,8.0209,8.0209,8.0209,8.0209,8.0209,8.0209,8.1122,8.234,8.2408,8.3328,8.4512,8.458,8.4614,8.4614,8.4614,8.4614,8.4614,8.4614,8.3729,8.2548,8.1242,7.9898,7.8565,7.7279,7.6983,7.6983,7.6983,7.6983,7.6983,7.6983,7.6983,7.6983,7.6983,7.6983,7.6983,7.6983,7.6983,7.6983,7.6983,7.6983,7.6983,7.6983,7.6719,7.6554,7.6521,7.6188,7.5883,7.5448,7.5142,7.4937,7.4903,7.4903,7.4903,7.4903,7.4903,7.4903,7.4903,7.4903,7.4903,7.4903,7.4903,7.4903,7.4903,7.4903,7.4903,7.4903,7.4903,7.4903,7.4903,7.4903,7.4903,7.4903,7.4903,7.3807,7.2128,7.1289,7.1289,7.1289,7.1289,7.1289,7.1526,7.2293,7.3003,7.3747,7.4502,7.5236,7.5709,7.5709,7.5709,7.5709,7.5709,7.5709,7.5709,7.5709,7.5709,7.5709,7.5709,7.6284,7.6724,7.6893,7.801,7.9025,7.9938,8.0107,8.0209,8.0209,8.0209,8.0209,8.0209,8.0209,8.0209,8.0209,8.0209,8.0209,8.0209,8.0209,8.0209,8.0209,8.0209,8.0209,8.0209,8.0209,8.0784,8.1629,8.2205,8.3016,8.3862,8.4411,8.4614,8.4614,8.4614,8.4614,8.4614,8.4614,8.4392,8.3838,8.2576,8.0562,7.8565,7.7279,7.6983,7.6983,7.6983,7.6983,7.6983,7.6983,7.6983,7.6983,7.6983,7.6983,7.6983,7.6983,7.6983,7.6983,7.6983,7.6983,7.6983,7.6983,7.6917,7.6785,7.6521,7.6421,7.6221,7.5883,7.5782,7.5482,7.4903,7.4903,7.4903,7.4903,7.4903,7.4903,7.4903,7.4903,7.4903,7.4903,7.4903,7.4903,7.4903,7.4903,7.4903,7.4903,7.4903,7.4903,7.4903,7.4903,7.4903,7.4903,7.4903,7.3082,7.0566,7.1289,7.1289,7.1289,7.1289,7.1289,7.1661,7.2732,7.324,7.3906,7.4965,7.5439,7.5709,7.5709,7.5709,7.5709,7.5709,7.5709,7.5709,7.5709,7.5709,7.5845,7.6217,7.6657,7.7232,7.7908,7.8686,7.9464,8.0209,8.0209,8.0209,8.0209,8.0209,8.0209,8.0209,8.0209,8.0209,8.0209,8.0209,8.0209,8.0209,8.0209,8.0209,8.0209,8.0209,8.0209,8.0209,8.0209,8.0648,8.1384,8.1765,8.2611,8.3558,8.3964,8.4309,8.4614,8.4614,8.4614,8.4614,8.4614,8.4614,8.4278,8.2998,8.0801,7.8723,7.8056,7.7409,7.6983,7.6983,7.6983,7.6983,7.6983,7.6983,7.6983,7.6983,7.6983,7.6983,7.6983,7.6983,7.6983,7.6983,7.6983,7.6983,7.6983,7.6983,7.6917,7.6752,7.6719,7.6587,7.6255,7.6221,7.5887,7.5142,7.5108,7.504,7.4903,7.4903,7.4903,7.4903,7.4903,7.4903,7.4903,7.4903,7.4903,7.4903,7.4903,7.4903,7.4903,7.4903,7.4903,7.4903,7.4903,7.4903,7.4873,7.4574,7.2432,6.9666,7.1289,7.1289,7.1289,7.1289,7.1289,7.1819,7.3274,7.35,7.4041,7.5506,7.5709,7.5709,7.5709,7.5709,7.5709,7.5709,7.5709,7.5709,7.5709,7.5709,7.6048,7.686,7.6995,7.7705,7.9067,7.9228,7.9566,8.0209,8.0209,8.0209,8.0209,8.0209,8.0209,8.0209,8.0209,8.0209,8.0209,8.0209,8.0209,8.0209,8.0209,8.0209,8.0209,8.0209,8.0209,8.0209,8.0209,8.0581,8.1148,8.1283,8.2103,8.3186,8.3287,8.3761,8.4275,8.4275,8.4275,8.4309,8.4546,8.4614,8.4278,8.2998,8.095,7.9129,7.8942,7.7927,7.6983,7.6983,7.6983,7.6983,7.6983,7.6983,7.6952,7.6892,7.6921,7.6952,7.686,7.6921,7.6983,7.6983,7.6983,7.6983,7.6983,7.6983,7.6983,7.6983,7.6983,7.6884,7.6587,7.6587,7.6288,7.5583,7.5516,7.5312,7.4971,7.4903,7.4903,7.4903,7.4903,7.4903,7.4903,7.4903,7.4903,7.4903,7.4903,7.4903,7.4903,7.4903,7.4903,7.4903,7.4813,7.4753,7.4693,7.4001,7.179,6.9048,7.1289,7.1289,7.1289,7.1289,7.1289,7.1819,7.3274,7.35,7.4041,7.5506,7.5709,7.5709,7.5709,7.5709,7.5709,7.5709,7.5709,7.5709,7.5709,7.5709,7.6048,7.686,7.7502,7.8213,7.9067,7.9701,8.0073,8.0209,8.0209,8.0209,8.0209,8.0209,8.0209,8.0209,8.0209,8.0209,8.0209,8.0209,8.0209,8.0209,8.0209,8.0209,8.0209,8.0209,8.0209,8.0209,8.0209,8.0276,8.0479,8.1088,8.1452,8.1731,8.2374,8.2644,8.2746,8.2746,8.2746,8.299,8.4242,8.4614,8.4278,8.2998,8.1563,8.0199,7.9129,7.7927,7.6983,7.6983,7.6983,7.6983,7.6983,7.6983,7.6798,7.6277,7.6646,7.6798,7.6246,7.6646,7.6983,7.6983,7.6983,7.6983,7.6983,7.6983,7.6983,7.6983,7.6983,7.6983,7.6917,7.6917,7.6752,7.6355,7.6054,7.5749,7.5312,7.504,7.4903,7.4903,7.4903,7.4903,7.4903,7.4903,7.4903,7.4903,7.4903,7.4903,7.4903,7.4903,7.4903,7.4843,7.427,7.4061,7.3971,7.3313,7.1085,6.8365,7.1289,7.1289,7.1289,7.1289,7.1289,7.1819,7.3274,7.35,7.4041,7.5506,7.5709,7.5709,7.5709,7.5709,7.5709,7.5709,7.5709,7.5709,7.5709,7.6115,7.669,7.7435,7.8213,7.8957,7.9667,8.004,8.0209,8.0209,8.0209,8.0209,8.0209,8.0209,8.0209,8.0209,8.0209,8.0209,8.0209,8.0209,8.0209,8.0209,8.0209,8.0209,8.0209,8.0209,8.0209,8.0209,8.0209,8.0209,8.0242,8.0581,8.0953,8.1384,8.1697,8.2069,8.2408,8.2408,8.2408,8.2577,8.3227,8.3396,8.3098,8.1896,8.0624,7.9341,7.8112,7.6837,7.5938,7.5938,7.5938,7.5938,7.5938,7.5938,7.5938,7.6,7.6277,7.6492,7.6521,7.6798,7.6983,7.6983,7.6983,7.6983,7.6983,7.6983,7.6983,7.6983,7.6983,7.6983,7.6983,7.6983,7.6917,7.6785,7.6255,7.5917,7.5718,7.558,7.5482,7.5482,7.5244,7.5176,7.5142,7.4971,7.4903,7.4903,7.4903,7.4903,7.4873,7.448,7.436,7.427,7.3612,7.3373,7.3283,7.2624,7.0419,6.7719,7.1289,7.1289,7.1289,7.1289,7.1289,7.1819,7.3274,7.35,7.4041,7.5506,7.5709,7.5709,7.5709,7.5709,7.5709,7.5709,7.5709,7.5709,7.5709,7.6623,7.7401,7.8,7.8855,7.9634,8.0175,8.0209,8.0209,8.0209,8.0209,8.0209,8.0209,8.0209,8.0209,8.0209,8.0209,8.0209,8.0209,8.0209,8.0209,8.0209,8.0209,8.0209,8.0209,8.0209,8.0209,8.0209,8.0209,8.0209,8.0209,8.0209,8.0581,8.1021,8.1021,8.1426,8.19,8.19,8.19,8.1968,8.2306,8.2408,8.2113,8.0898,7.9641,7.8374,7.719,7.5901,7.5015,7.5015,7.5015,7.5015,7.5015,7.5015,7.5107,7.5476,7.5815,7.6154,7.646,7.6798,7.6983,7.6983,7.6983,7.6983,7.6983,7.6983,7.6983,7.6983,7.6983,7.6983,7.6983,7.6983,7.6983,7.6983,7.6421,7.6118,7.6118,7.595,7.5917,7.5984,7.5516,7.5312,7.538,7.504,7.4813,7.4693,7.4693,7.4604,7.439,7.3881,7.3672,7.3612,7.2924,7.2684,7.2595,7.1906,6.9985,6.7565,7.1289,7.1289,7.1289,7.1289,7.1289,7.1819,7.3274,7.35,7.4041,7.5506,7.5709,7.5709,7.5709,7.5709,7.5709,7.5709,7.5709,7.5709,7.5709,7.7096,7.7967,7.8,7.9363,8.0141,8.0209,8.0209,8.0209,8.0209,8.0209,8.0209,8.0209,8.0209,8.0209,8.0209,8.0209,8.0209,8.0209,8.0209,8.0209,8.0209,8.0209,8.0209,8.0209,8.0209,8.0209,8.0209,8.0209,8.0209,8.0209,8.0209,8.0242,8.0276,8.0276,8.031,8.0378,8.0378,8.0378,8.0648,8.2035,8.2408,8.2113,8.0898,7.9641,7.8374,7.719,7.5901,7.5015,7.5015,7.5015,7.5015,7.5015,7.5015,7.4799,7.4245,7.5199,7.5815,7.523,7.6215,7.6983,7.6983,7.6983,7.6983,7.6983,7.6983,7.6983,7.6983,7.6983,7.6983,7.6983,7.6983,7.6983,7.6983,7.6653,7.6488,7.6488,7.5786,7.5617,7.5984,7.5278,7.5108,7.538,7.504,7.454,7.3971,7.3971,7.3612,7.3043,7.298,7.2984,7.2924,7.2235,7.1966,7.1876,7.1218,6.9969,6.8373,7.1289,7.1289,7.1289,7.1289,7.1289,7.1819,7.3274,7.35,7.4041,7.5506,7.5709,7.5709,7.5709,7.5709,7.5709,7.5709,7.5709,7.5709,7.5709,7.713,7.8407,7.9329,7.9904,8.0209,8.0209,8.0209,8.0209,8.0209,8.0209,8.0209,8.0209,8.0209,8.0209,8.0209,8.0209,8.0209,8.0209,8.0209,8.0209,8.0209,8.0209,8.0209,8.0209,8.0209,8.0209,8.0209,8.0209,8.0209,8.0209,8.0209,8.0209,8.0209,8.0209,8.0209,8.0209,8.0209,8.0209,8.031,8.0885,8.1054,8.055,7.8607,7.7738,7.6914,7.4929,7.4097,7.3753,7.3753,7.3753,7.3753,7.3753,7.3753,7.3814,7.3968,7.4769,7.5446,7.56,7.6431,7.6983,7.6983,7.6983,7.6983,7.6983,7.6983,7.6983,7.6983,7.6983,7.6983,7.6983,7.6983,7.6798,7.64,7.627,7.6388,7.6818,7.6521,7.6355,7.6288,7.5362,7.4912,7.4751,7.399,7.3522,7.3283,7.3283,7.3163,7.2894,7.2445,7.2265,7.2206,7.1547,7.1278,7.1248,7.1009,6.9976,6.8485,7.1289,7.1289,7.1289,7.1289,7.1289,7.1819,7.3274,7.35,7.4041,7.5506,7.5709,7.5709,7.5709,7.5709,7.5709,7.5709,7.5709,7.5709,7.5709,7.713,7.8653,8.0141,8.0209,8.0209,8.0209,8.0209,8.0209,8.0209,8.0209,8.0209,8.0209,8.0209,8.0209,8.0209,8.0209,8.0209,8.0209,8.0209,8.0209,8.0209,8.0209,8.0209,8.0209,8.0209,8.0209,8.0209,8.0209,8.0209,8.0209,8.0209,8.0209,8.0209,8.0209,8.0209,8.0209,8.0209,8.0209,8.0209,8.0209,8.0209,7.9606,7.7208,7.6902,7.6451,7.3631,7.3293,7.3478,7.3076,7.3014,7.3014,7.3014,7.3014,7.3137,7.3599,7.4245,7.4861,7.5323,7.5969,7.64,7.64,7.64,7.64,7.64,7.64,7.64,7.64,7.64,7.64,7.64,7.64,7.6184,7.5723,7.5692,7.5907,7.6369,7.6171,7.6073,7.601,7.4861,7.4318,7.4254,7.3304,7.2804,7.2595,7.2595,7.2475,7.2235,7.1787,7.1577,7.1517,7.1068,7.0889,7.0889,7.0889,7.0272,6.9086,7.1289,7.1289,7.1289,7.1289,7.1289,7.1819,7.3274,7.35,7.4041,7.5506,7.5709,7.5709,7.5709,7.5709,7.5709,7.5709,7.5709,7.5709,7.5709,7.713,7.8653,8.0141,8.0209,8.0209,8.0209,8.0209,8.0209,8.0209,8.0209,8.0209,8.0209,8.0209,8.0209,8.0209,8.0209,8.0209,8.0209,8.0209,8.0209,8.0209,8.0209,8.0209,8.0209,8.0209,8.0209,8.0209,8.0209,8.0209,8.0209,8.0209,8.0209,8.0209,8.0209,8.0209,8.0209,8.0209,8.0209,8.0209,8.0209,8.0209,7.9606,7.7208,7.7511,7.7456,7.3844,7.3934,7.4475,7.3231,7.3014,7.3014,7.3014,7.3014,7.3014,7.3014,7.3537,7.3999,7.3999,7.4584,7.5015,7.5015,7.5015,7.5015,7.5015,7.5015,7.5015,7.5015,7.5015,7.5015,7.5015,7.5015,7.5015,7.4984,7.4984,7.4984,7.4984,7.4339,7.4339,7.4983,7.3557,7.3259,7.3948,7.3226,7.2535,7.1876,7.1876,7.1517,7.0889,7.0889,7.0889,7.0889,7.0889,7.0889,7.0889,7.0889,7.0889,7.0498,7.1289,7.1289,7.1289,7.1289,7.1289,7.1819,7.3274,7.35,7.4041,7.5506,7.5709,7.5709,7.5709,7.5709,7.5709,7.5709,7.5709,7.6149,7.7232,7.7739,7.8653,8.0141,8.0209,8.0209,8.0209,8.0209,8.0209,8.0209,8.0209,8.0209,8.0209,8.0209,8.0209,8.0209,8.0209,8.0209,8.0209,8.0209,8.0209,8.0209,8.0209,8.0209,8.0209,8.0209,8.0209,8.0209,8.0209,8.0209,8.0209,8.0209,8.0209,8.0209,8.0209,8.0209,8.0209,8.0209,8.0209,8.0209,8.0209,8.0209,7.9811,7.8277,7.811,7.7676,7.4889,7.4535,7.4475,7.3231,7.3014,7.3014,7.3014,7.3014,7.3014,7.3014,7.3537,7.3999,7.3999,7.4584,7.5015,7.5015,7.5015,7.5015,7.5015,7.5015,7.5015,7.5015,7.5015,7.5015,7.5015,7.5015,7.4769,7.4307,7.4307,7.4061,7.3599,7.4331,7.4694,7.463,7.3495,7.2958,7.2832,7.1923,7.1398,7.1188,7.1188,7.1068,7.0889,7.0889,7.0889,7.0889,7.0889,7.0889,7.0889,7.0889,7.0889,7.0569,7.1289,7.1289,7.1289,7.1289,7.1289,7.1819,7.3274,7.35,7.4041,7.5506,7.5709,7.5709,7.5709,7.5709,7.5709,7.5709,7.5709,7.6352,7.7899,7.8,7.8653,8.0141,8.0209,8.0209,8.0209,8.0209,8.0209,8.0209,8.0209,8.0209,8.0209,8.0209,8.0209,8.0209,8.0209,8.0209,8.0209,8.0209,8.0209,8.0209,8.0209,8.0209,8.0209,8.0209,8.0209,8.0209,8.0209,8.0209,8.0209,8.0209,8.0209,8.0209,8.0209,8.0209,8.0209,8.0209,8.0209,8.0209,8.0209,8.0209,8.0023,7.9288,7.9105,7.8325,7.5475,7.5183,7.5036,7.3355,7.3014,7.3014,7.3014,7.3014,7.3014,7.3014,7.3322,7.3599,7.3599,7.3937,7.4214,7.4214,7.4214,7.4214,7.4214,7.4214,7.4214,7.4214,7.4214,7.4214,7.4214,7.4214,7.403,7.3599,7.3599,7.3383,7.3014,7.3783,7.4119,7.3897,7.2863,7.2297,7.2232,7.1326,7.0889,7.0889,7.0889,7.0889,7.0889,7.0889,7.0889,7.0889,7.0889,7.0889,7.0889,7.0889,7.0739,7.0211,7.1289,7.1289,7.1289,7.1289,7.1289,7.1819,7.3274,7.35,7.4041,7.5506,7.5709,7.5709,7.5709,7.5709,7.5709,7.5709,7.5709,7.6318,7.7831,7.7967,7.8619,8.004,8.0175,8.0209,8.0209,8.0209,8.0209,8.0209,8.0209,8.0209,8.0209,8.0209,8.0209,8.0209,8.0209,8.0209,8.0209,8.0209,8.0209,8.0209,8.0209,8.0209,8.0209,8.0209,8.0209,8.0209,8.0209,8.0209,8.0209,8.0209,8.0209,8.0209,8.0209,8.0209,8.0209,8.0209,8.0209,8.0209,8.0209,8.0209,8.0209,8.0209,8.0099,7.9158,7.5733,7.5823,7.5909,7.3508,7.3014,7.3014,7.3014,7.3014,7.3014,7.3014,7.3014,7.3014,7.3014,7.3014,7.3014,7.3014,7.3014,7.3014,7.3014,7.3014,7.3014,7.3014,7.3014,7.3014,7.3014,7.3014,7.3014,7.3014,7.3014,7.3014,7.3014,7.3014,7.3014,7.2983,7.1947,7.1628,7.1975,7.1242,7.0889,7.0889,7.0889,7.0889,7.0889,7.0889,7.0889,7.0889,7.0889,7.0889,7.0889,7.0829,7.047,6.9546,7.1289,7.1289,7.1289,7.1289,7.1289,7.1819,7.3274,7.35,7.4041,7.5506,7.5709,7.5709,7.5709,7.5709,7.5709,7.5709,7.5709,7.6115,7.7063,7.7671,7.8382,7.9295,7.9904,8.0209,8.0209,8.0209,8.0209,8.0209,8.0209,8.0209,8.0209,8.0209,8.0209,8.0209,8.0209,8.0209,8.0209,8.0209,8.0209,8.0209,8.0209,8.0209,8.0209,8.0209,8.0209,8.0209,8.0209,8.0209,8.0209,8.0209,8.0209,8.0209,8.0209,8.0209,8.0209,8.0209,8.0209,8.0209,8.0209,8.0209,8.0209,8.0209,7.9503,7.8358,7.6621,7.6423,7.5909,7.3508,7.3014,7.3014,7.3014,7.3014,7.3014,7.3014,7.3014,7.3014,7.3014,7.3014,7.3014,7.3014,7.3014,7.3014,7.3014,7.3014,7.3014,7.3014,7.3014,7.3014,7.3014,7.3014,7.3014,7.3014,7.3014,7.3014,7.3014,7.3014,7.3014,7.2983,7.2231,7.1913,7.1975,7.1242,7.0889,7.0889,7.0889,7.0889,7.0889,7.0889,7.0889,7.0889,7.0889,7.0889,7.0829,7.035,7.0081,6.9459,7.1289,7.1289,7.1289,7.1289,7.1289,7.1819,7.3274,7.35,7.4041,7.5506,7.5709,7.5709,7.5709,7.5709,7.5709,7.5709,7.5709,7.6048,7.686,7.757,7.8314,7.9067,7.9803,8.0209,8.0209,8.0209,8.0209,8.0209,8.0209,8.0209,8.0209,8.0209,8.0209,8.0209,8.0209,8.0209,8.0209,8.0209,8.0209,8.0209,8.0209,8.0209,8.0209,8.0209,8.0209,8.0209,8.0209,8.0209,8.0209,8.0209,8.0209,8.0209,8.0209,8.0209,8.0209,8.0209,8.0209,8.0209,8.0209,8.0209,8.0209,8.0209,7.9288,7.8083,7.6874,7.6167,7.5213,7.3385,7.3014,7.3014,7.3014,7.3014,7.3014,7.3014,7.3014,7.3014,7.3014,7.3014,7.3014,7.3014,7.3014,7.3014,7.3014,7.3014,7.3014,7.3014,7.3014,7.3014,7.3014,7.3014,7.3014,7.3014,7.3014,7.3014,7.3014,7.3014,7.3014,7.2983,7.2325,7.2007,7.1975,7.1242,7.0889,7.0889,7.0889,7.0889,7.0889,7.0889,7.0889,7.0859,7.059,7.047,7.038,6.9752,6.8891,6.7583,7.1289,7.1289,7.1289,7.1289,7.1289,7.1819,7.3274,7.35,7.4041,7.5506,7.5709,7.5709,7.5709,7.5709,7.5709,7.5709,7.5709,7.598,7.6657,7.7502,7.8247,7.8889,7.9735,8.0209,8.0209,8.0209,8.0209,8.0209,8.0209,8.0209,8.0209,8.0209,8.0209,8.0209,8.0209,8.0209,8.0209,8.0209,8.0209,8.0209,8.0209,8.0209,8.0209,8.0209,8.0209,8.0209,8.0209,8.0209,8.0209,8.0209,8.0209,8.0209,8.0209,8.0209,8.0209,8.0209,8.0209,8.0209,8.0209,8.0209,8.0209,8.0209,7.9288,7.8137,7.7152,7.5791,7.4475,7.3231,7.3014,7.3014,7.3014,7.3014,7.3014,7.3014,7.3014,7.3014,7.3014,7.3014,7.3014,7.3014,7.3014,7.3014,7.3014,7.3014,7.3014,7.3014,7.3014,7.3014,7.3014,7.3014,7.3014,7.3014,7.3014,7.3014,7.3014,7.3014,7.3014,7.2983,7.2325,7.2007,7.1975,7.1242,7.0889,7.0889,7.0889,7.0889,7.0889,7.0889,7.0829,7.0709,7.0203,6.9933,6.9722,6.9064,6.7652,6.5831,7.1289,7.1289,7.1289,7.1289,7.1289,7.1819,7.3274,7.35,7.4041,7.5506,7.5709,7.5709,7.5709,7.5709,7.5709,7.5709,7.5709,7.5743,7.5845,7.7198,7.8044,7.8145,7.9464,8.0209,8.0209,8.0209,8.0209,8.0209,8.0209,8.0209,8.0209,8.0209,8.0209,8.0209,8.0209,8.0209,8.0209,8.0209,8.0209,8.0209,8.0209,8.0209,8.0209,8.0209,8.0209,8.0209,8.0209,8.0209,8.0209,8.0209,8.0209,8.0209,8.0209,8.0209,8.0209,8.0209,8.0209,8.0209,8.0209,8.0209,8.0209,8.0209,7.9288,7.8358,7.8164,7.6419,7.4475,7.3231,7.3014,7.3014,7.3014,7.3014,7.3014,7.3014,7.3014,7.3014,7.3014,7.3014,7.3014,7.3014,7.3014,7.3014,7.3014,7.3014,7.3014,7.3014,7.3014,7.3014,7.3014,7.3014,7.3014,7.3014,7.3014,7.3014,7.3014,7.3014,7.3014,7.2983,7.2325,7.2007,7.1975,7.1242,7.0889,7.0889,7.0889,7.0889,7.0889,7.0889,7.059,7.0081,7.0021,6.9632,6.9064,6.8407,6.7594,6.6657,7.1289,7.1289,7.1289,7.1289,7.1289,7.1819,7.3274,7.35,7.4041,7.5506,7.5709,7.5709,7.5709,7.5709,7.5709,7.5709,7.5709,7.5709,7.5709,7.713,7.8,7.8,7.9397,8.0209,8.0209,8.0209,8.0209,8.0209,8.0209,8.0209,8.0209,8.0209,8.0209,8.0209,8.0209,8.0209,8.0209,8.0209,8.0209,8.0209,8.0209,8.0209,8.0209,8.0209,8.0209,8.0209,8.0209,8.0209,8.0209,8.0209,8.0209,8.0209,8.0209,8.0209,8.0209,8.0209,8.0209,8.0209,8.0209,8.0209,8.0209,8.0209,7.9288,7.8411,7.8411,7.6532,7.4654,7.4116,7.3478,7.3014,7.3014,7.3014,7.3014,7.3014,7.3014,7.3014,7.3014,7.3014,7.3014,7.3014,7.3014,7.3014,7.3014,7.3014,7.3014,7.3014,7.3014,7.3014,7.3014,7.3014,7.3014,7.3014,7.3014,7.3014,7.3014,7.3014,7.3014,7.2983,7.2325,7.2007,7.1975,7.1242,7.0889,7.0889,7.0889,7.0709,7.038,7.038,7.0021,6.9393,6.9035,6.8496,6.7837,6.7537,6.7238,6.6692]},{"header":{"parameterUnit":"m.s-1","parameterCategory":1,"la1":30.6,"la2":28.766,"lo1":-90.7593,"lo2":-88.6598,"dy":0.0162,"dx":0.0183,"nx":116,"ny":114,"refTime":"2023-04-07T00:00:00:Z","depth":0,"parameterNumber":3,"parameterNumberName":"V-component_of_WINDS"},"data":[0.0,0.0,0.0,0.0,0.0,0.0,0.0,0.0,0.0,0.0,0.0,0.0,0.0,0.0,0.0,0.0,0.0,0.0,0.0,0.0,0.0,0.0,0.0,0.0,0.0,0.0,0.0,0.0,0.0,0.0,0.0,0.0,0.0,0.0,0.0,0.0,0.0,0.0,0.0,0.0,0.0,0.0,0.0,0.0,0.0,0.0,0.0,0.0,0.0,0.0,0.0,0.0,0.0,0.0,0.0,0.0,0.0,0.0,0.0,0.0,0.0,0.0,0.0,0.0,0.0,0.0,0.0,0.0,0.0,0.0,0.0,0.0,0.0,0.0,0.0,0.0,0.0,0.0,0.0,0.0,0.0,0.0,0.0,0.0,0.0,0.0,0.0,0.0,0.0,0.0,0.0,0.0,0.0,0.0,0.0,0.0,0.0,0.0,0.0,0.0,0.0,0.0,0.0,0.0,0.0,0.0,0.0,0.0,0.0,0.0,0.0,0.0,0.0,0.0,0.0,0.0,0.0,0.0,0.0,0.0,0.0,0.0,0.0,0.0,0.0,0.0,0.0,0.0,0.0,0.0,0.0,0.0,0.0,0.0,0.0,0.0,0.0,0.0,0.0,0.0,0.0,0.0,0.0,0.0,0.0,0.0,0.0,0.0,0.0,0.0,0.0,0.0,0.0,0.0,0.0,0.0,0.0,0.0,0.0,0.0,0.0,0.0,0.0,0.0,0.0,0.0,0.0,0.0,0.0,0.0,0.0,0.0,0.0,0.0,0.0,0.0,0.0,0.0,0.0,0.0,0.0,0.0,0.0,0.0,0.0,0.0,0.0,0.0,0.0,0.0,0.0,0.0,0.0,0.0,0.0,0.0,0.0,0.0,0.0,0.0,0.0,0.0,0.0,0.0,0.0,0.0,0.0,0.0,0.0,0.0,0.0,0.0,0.0,0.0,0.0,0.0,0.0,0.0,0.0,0.0,0.0,0.0,0.0,0.0,0.0,0.0,0.0,0.0,0.0,0.0,0.0,0.0,0.0,0.0,0.0,0.0,0.0,0.0,0.0,0.0,0.0,0.0,0.0,0.0,0.0,0.0,0.0,0.0,0.0,0.0,0.0,0.0,0.0,0.0,0.0,0.0,0.0,0.0,0.0,0.0,0.0,0.0,0.0,0.0,0.0,0.0,0.0,0.0,0.0,0.0,0.0,0.0,0.0,0.0,0.0,0.0,0.0,0.0,0.0,0.0,0.0,0.0,0.0,0.0,0.0,0.0,0.0,0.0,0.0,0.0,0.0,0.0,0.0,0.0,0.0,0.0,0.0,0.0,0.0,0.0,0.0,0.0,0.0,0.0,0.0,0.0,0.0,0.0,0.0,0.0,0.0,0.0,0.0,0.0,0.0,0.0,0.0,0.0,0.0,0.0,0.0,0.0,0.0,0.0,0.0,0.0,0.0,0.0,0.0,0.0,0.0,0.0,0.0,0.0,0.0,0.0,0.0,0.0,0.0,0.0,0.0,0.0,0.0,0.0,0.0,0.0,0.0,0.0,0.0,0.0,0.0,0.0,0.0,0.0,0.0,0.0,0.0,0.0,0.0,0.0,0.0,0.0,0.0,0.0,0.0,0.0,0.0,0.0,0.0,0.0,0.0,0.0,0.0,0.0,0.0,0.0,0.0,0.0,0.0,0.0,0.0,0.0,0.0,0.0,0.0,0.0,0.0,0.0,0.0,0.0,0.0,0.0,0.0,0.0,0.0,0.0,0.0,0.0,0.0,0.0,0.0,0.0,0.0,0.0,0.0,0.0,0.0,0.0,0.0,0.0,0.0,0.0,0.0,0.0,0.0,0.0,0.0,0.0,0.0,0.0,0.0,0.0,0.0,0.0,0.0,0.0,0.0,0.0,0.0,0.0,0.0,0.0,0.0,0.0,0.0,0.0,0.0,0.0,0.0,0.0,0.0,0.0,0.0,0.0,0.0,0.0,0.0,0.0,0.0,0.0,0.0,0.0,0.0,0.0,0.0,0.0,0.0,0.0,0.0,0.0,0.0,0.0,0.0,0.0,0.0,0.0,0.0,0.0,0.0,0.0,0.0,0.0,0.0,0.0,0.0,0.0,0.0,0.0,0.0,0.0,0.0,0.0,0.0,0.0,0.0,0.0,0.0,0.0,0.0,0.0,0.0,0.0,0.0,0.0,0.0,0.0,0.0,0.0,0.0,0.0,0.0,0.0,0.0,0.0,0.0,0.0,0.0,0.0,0.0,0.0,0.0,0.0,0.0,0.0,0.0,0.0,0.0,0.0,0.0,0.0,0.0,0.0,0.0,0.0,0.0,0.0,0.0,0.0,0.0,0.0,0.0,0.0,0.0,0.0,0.0,0.0,0.0,0.0,0.0,0.0,0.0,0.0,0.0,0.0,0.0,0.0,0.0,0.0,0.0,0.0,0.0,0.0,0.0,0.0,0.0,0.0,0.0,0.0,0.0,0.0,0.0,0.0,0.0,0.0,0.0,0.0,0.0,0.0,0.0,0.0,0.0,0.0,0.0,0.0,0.0,0.0,0.0,0.0,0.0,0.0,0.0,0.0,0.0,0.0,0.0,0.0,0.0,0.0,0.0,0.0,0.0,0.0,0.0,0.0,0.0,0.0,0.0,0.0,0.0,0.0,0.0,0.0,0.0,0.0,0.0,0.0,0.0,0.0,0.0,0.0,0.0,0.0,0.0,0.0,0.0,0.0,0.0,0.0,0.0,0.0,0.0,0.0,0.0,0.0,0.0,0.0,0.0,0.0,0.0,0.0,0.0,0.0,0.0,0.0,0.0,0.0,0.0,0.0,0.0,0.0,0.0,0.0,0.0,0.0,0.0,0.0,0.0,0.0,0.0,0.0,0.0,0.0,0.0,0.0,0.0,0.0,0.0,0.0,0.0,0.0,0.0,0.0,0.0,0.0,0.0,0.0,0.0,0.0,0.0,0.0,0.0,0.0,0.0,0.0,0.0,0.0,0.0,0.0,0.0,0.0,0.0,0.0,0.0,0.0,0.0,0.0,0.0,0.0,0.0,0.0,0.0,0.0,0.0,0.0,0.0,0.0,0.0,0.0,0.0,0.0,0.0,0.0,0.0,0.0,0.0,0.0,0.0,0.0,0.0,0.0,0.0,0.0,0.0,0.0,0.0,0.0,0.0,0.0,0.0,0.0,0.0,0.0,0.0,0.0,0.0,0.0,0.0,0.0,0.0,0.0,0.0,0.0,0.0,0.0,0.0,0.0,0.0,0.0,0.0,0.0,0.0,0.0,0.0,0.0,0.0,0.0,0.0,0.0,0.0,0.0,0.0,0.0,0.0,0.0,0.0,0.0,0.0,0.0,0.0,0.0,0.0,0.0,0.0,0.0,0.0,0.0,0.0,0.0,0.0,0.0,0.0,0.0,0.0,0.0,0.0,0.0,0.0,0.0,0.0,0.0,0.0,0.0,0.0,0.0,0.0,0.0,0.0,0.0,0.0,0.0,0.0,0.0,0.0,0.0,0.0,0.0,0.0,0.0,0.0,0.0,0.0,0.0,0.0,0.0,0.0,0.0,0.0,0.0,0.0,0.0,0.0,0.0,0.0,0.0,0.0,0.0,0.0,0.0,0.0,0.0,0.0,0.0,0.0,0.0,0.0,0.0,0.0,0.0,0.0,0.0,0.0,0.0,0.0,0.0,0.0,0.0,0.0,0.0,0.0,0.0,0.0,0.0,0.0,0.0,0.0,0.0,0.0,0.0,0.0,0.0,0.0,0.0,0.0,0.0,0.0,0.0,0.0,0.0,0.0,0.0,0.0,0.0,0.0,0.0,0.0,0.0,0.0,0.0,0.0,0.0,0.0,0.0,0.0,0.0,0.0,0.0,0.0,0.0,0.0,0.0,0.0,0.0,0.0,0.0,0.0,0.0,0.0,0.0,0.0,0.0,0.0,0.0,0.0,0.0,0.0,0.0,0.0,0.0,0.0,0.0,0.0,0.0,0.0,0.0,0.0,0.0,0.0,0.0,0.0,0.0,0.0,0.0,0.0,0.0,0.0,0.0,0.0,0.0,0.0,0.0,0.0,0.0,0.0,0.0,0.0,0.0,0.0,0.0,0.0,0.0,0.0,0.0,0.0,0.0,0.0,0.0,0.0,0.0,0.0,0.0,0.0,0.0,0.0,0.0,0.0,0.0,0.0,0.0,0.0,0.0,0.0,0.0,0.0,0.0,0.0,0.0,0.0,0.0,0.0,0.0,0.0,0.0,0.0,0.0,0.0,0.0,0.0,0.0,0.0,0.0,0.0,0.0,0.0,0.0,0.0,0.0,0.0,0.0,0.0,0.0,0.0,0.0,0.0,0.0,0.0,0.0,0.0,0.0,0.0,0.0,0.0,0.0,0.0,0.0,0.0,0.0,0.0,0.0,0.0,0.0,0.0,0.0,0.0,0.0,0.0,0.0,0.0,0.0,0.0,0.0,0.0,0.0,0.0,0.0,0.0,0.0,0.0,0.0,0.0,0.0,0.0,0.0,0.0,0.0,0.0,0.0,0.0,0.0,0.0,0.0,0.0,0.0,0.0,0.0,0.0,0.0,0.0,0.0,0.0,0.0,0.0,0.0,0.0,0.0,0.0,0.0,0.0,0.0,0.0,0.0,0.0,0.0,0.0,0.0,0.0,0.0,0.0,0.0,0.0,0.0,0.0,0.0,0.0,0.0,0.0,0.0,0.0,0.0,0.0,0.0,0.0,0.0,0.0,0.0,0.0,0.0,0.0,0.0,0.0,0.0,0.0,0.0,0.0,0.0,0.0,0.0,0.0,0.0,0.0,0.0,0.0,0.0,0.0,0.0,0.0,0.0,0.0,0.0,0.0,0.0,0.0,0.0,0.0,0.0,0.0,0.0,0.0,0.0,0.0,0.0,0.0,0.0,0.0,0.0,0.0,0.0,0.0,0.0,0.0,0.0,0.0,0.0,0.0,0.0,0.0,0.0,0.0,0.0,0.0,0.0,0.0,0.0,0.0,0.0,0.0,0.0,0.0,0.0,0.0,0.0,0.0,0.0,0.0,0.0,0.0,0.0,0.0,0.0,0.0,0.0,0.0,0.0,0.0,0.0,0.0,0.0,0.0,0.0,0.0,0.0,0.0,0.0,0.0,0.0,0.0,0.0,0.0,0.0,0.0,0.0,0.0,0.0,0.0,0.0,0.0,0.0,0.0,0.0,0.0,0.0,0.0,0.0,0.0,0.0,0.0,0.0,0.0,0.0,0.0,0.0,0.0,0.0,0.0,0.0,0.0,0.0,0.0,0.0,0.0,0.0,0.0,0.0,0.0,0.0,0.0,0.0,0.0,0.0,0.0,0.0,0.0,0.0,0.0,0.0,0.0,0.0,0.0,0.0,0.0,0.0,0.0,0.0,0.0,0.0,0.0,0.0,0.0,0.0,0.0,0.0,0.0,0.0,0.0,0.0,0.0,0.0,0.0,0.0,0.0,0.0,0.0,0.0,0.0,0.0,0.0,0.0,0.0,0.0,0.0,0.0,0.0,0.0,0.0,0.0,0.0,0.0,0.0,0.0,0.0,0.0,0.0,0.0,0.0,0.0,0.0,0.0,0.0,0.0,0.0,0.0,0.0,0.0,0.0,0.0,0.0,0.0,0.0,0.0,0.0,0.0,0.0,0.0,0.0,0.0,0.0,0.0,0.0,0.0,0.0,0.0,0.0,0.0,0.0,0.0,0.0,0.0,0.0,0.0,0.0,0.0,0.0,0.0,0.0,0.0,0.0,0.0,0.0,0.0,0.0,0.0,0.0,0.0,0.0,0.0,0.0,0.0,0.0,0.0,0.0,0.0,0.0,0.0,0.0,0.0,0.0,0.0,0.0,0.0,0.0,0.0,0.0,0.0,0.0,0.0,0.0,0.0,0.0,0.0,0.0,0.0,0.0,0.0,0.0,0.0,0.0,0.0,0.0,0.0,0.0,0.0,0.0,0.0,0.0,0.0,0.0,0.0,0.0,0.0,0.0,0.0,0.0,0.0,0.0,0.0,0.0,0.0,0.0,0.0,0.0,0.0,0.0,0.0,0.0,0.0,0.0,0.0,0.0,0.0,0.0,0.0,5.3936,5.5676,0.0,0.0,0.0,0.0,0.0,0.0,0.0,0.0,0.0,0.0,0.0,0.0,0.0,0.0,0.0,0.0,0.0,0.0,0.0,0.0,0.0,0.0,0.0,0.0,0.0,0.0,0.0,0.0,0.0,0.0,0.0,0.0,0.0,0.0,0.0,0.0,0.0,3.9994,3.9994,4.0114,4.0355,4.0355,4.0355,4.0355,0.0,0.0,0.0,0.0,0.0,0.0,0.0,0.0,0.0,0.0,0.0,0.0,0.0,0.0,0.0,0.0,0.0,0.0,0.0,0.0,0.0,0.0,0.0,0.0,0.0,0.0,0.0,0.0,0.0,0.0,0.0,0.0,0.0,0.0,0.0,0.0,0.0,0.0,0.0,0.0,0.0,0.0,0.0,0.0,0.0,0.0,0.0,0.0,0.0,0.0,0.0,0.0,0.0,0.0,0.0,0.0,0.0,0.0,0.0,0.0,0.0,0.0,0.0,0.0,0.0,0.0,0.0,0.0,0.0,0.0,5.2934,5.4127,0.0,0.0,0.0,0.0,0.0,0.0,0.0,0.0,0.0,0.0,0.0,0.0,0.0,0.0,0.0,0.0,0.0,0.0,0.0,0.0,0.0,0.0,0.0,3.8,3.8,3.8,3.8096,3.8118,0.0,0.0,0.0,0.0,0.0,0.0,3.9753,3.9753,3.9994,4.0523,4.0523,4.0763,4.1201,4.1201,4.1201,4.1201,4.1201,0.0,0.0,0.0,0.0,0.0,0.0,0.0,0.0,0.0,0.0,0.0,0.0,0.0,0.0,0.0,0.0,0.0,0.0,0.0,0.0,0.0,0.0,0.0,0.0,0.0,0.0,0.0,0.0,0.0,0.0,0.0,0.0,0.0,0.0,0.0,0.0,0.0,0.0,0.0,0.0,0.0,0.0,0.0,0.0,0.0,0.0,0.0,0.0,0.0,0.0,0.0,0.0,0.0,0.0,0.0,0.0,0.0,0.0,0.0,0.0,0.0,0.0,0.0,5.443,5.3699,5.3289,5.3315,5.2304,5.0675,5.2292,5.2591,5.2166,5.5014,0.0,0.0,0.0,0.0,0.0,0.0,0.0,0.0,0.0,0.0,0.0,0.0,0.0,0.0,0.0,0.0,0.0,0.0,0.0,3.8,3.8,3.8,3.8,3.8,3.8431,3.8668,3.8668,0.0,0.0,0.0,0.0,0.0,4.0282,4.0282,4.0547,4.1076,4.1076,4.1153,4.1201,4.1201,4.1201,4.1201,4.1201,4.1201,4.1201,0.0,0.0,0.0,0.0,0.0,0.0,0.0,0.0,0.0,0.0,0.0,0.0,0.0,0.0,0.0,0.0,0.0,0.0,0.0,0.0,0.0,0.0,0.0,0.0,0.0,0.0,0.0,0.0,0.0,0.0,0.0,0.0,0.0,0.0,0.0,0.0,0.0,0.0,0.0,0.0,0.0,5.5508,5.608,0.0,0.0,0.0,0.0,0.0,0.0,0.0,0.0,0.0,0.0,0.0,0.0,0.0,5.7759,5.6309,5.5279,5.453,5.4044,5.2693,5.168,5.0927,5.0927,5.0964,5.1026,5.1294,0.0,5.1692,5.2394,0.0,0.0,0.0,0.0,0.0,0.0,0.0,0.0,0.0,0.0,0.0,0.0,0.0,0.0,0.0,0.0,0.0,0.0,0.0,0.0,0.0,3.8262,3.8455,3.8455,3.896,3.9272,3.9272,3.9753,0.0,0.0,0.0,4.0595,4.0836,4.0836,4.0956,4.1201,4.1201,4.1201,4.1225,4.1514,4.1658,4.1658,4.1971,4.1779,4.1201,4.1201,0.0,0.0,0.0,0.0,0.0,0.0,0.0,0.0,0.0,0.0,0.0,0.0,0.0,0.0,0.0,0.0,0.0,0.0,0.0,0.0,0.0,0.0,0.0,0.0,0.0,0.0,0.0,0.0,0.0,0.0,0.0,0.0,0.0,0.0,0.0,0.0,0.0,0.0,0.0,5.608,5.6446,5.6894,5.7472,5.8048,0.0,0.0,0.0,0.0,0.0,0.0,0.0,0.0,0.0,5.6241,5.6275,5.5624,5.4142,5.3428,5.3057,5.2937,5.1869,5.1194,5.0824,5.0602,5.0713,5.1084,5.1084,5.1453,5.2083,5.3195,5.4087,5.4971,0.0,0.0,0.0,0.0,5.8473,5.8652,0.0,0.0,0.0,0.0,0.0,0.0,0.0,0.0,0.0,0.0,0.0,0.0,3.819,3.8575,3.8836,3.8981,3.9513,3.9801,3.9801,4.0306,4.0595,4.0595,4.1008,4.1201,4.1201,4.1201,4.11,4.0872,4.122,4.1118,4.054,4.1295,4.1484,4.1157,4.1917,4.2007,4.161,4.161,4.161,4.1639,0.0,0.0,0.0,0.0,0.0,0.0,0.0,0.0,0.0,0.0,0.0,0.0,0.0,0.0,0.0,0.0,0.0,0.0,0.0,0.0,0.0,0.0,0.0,0.0,0.0,0.0,0.0,0.0,0.0,0.0,0.0,0.0,0.0,0.0,0.0,0.0,0.0,5.6986,5.717,5.7577,5.7876,5.8311,0.0,0.0,0.0,0.0,0.0,0.0,5.8543,5.85,5.7316,5.4697,5.458,5.4,5.2705,5.241,5.241,5.2668,5.2078,5.1744,5.1632,5.1334,5.1371,5.1632,5.1632,5.204,5.2754,5.3802,5.422,5.434,5.6314,5.7147,5.718,5.7264,5.763,5.8074,0.0,0.0,0.0,0.0,0.0,0.0,0.0,0.0,0.0,0.0,0.0,3.819,3.8692,3.8764,3.9005,3.9513,4.0042,4.0355,4.0355,4.086,4.1177,4.1177,4.1201,4.1201,4.1201,4.1201,4.0779,3.9981,4.1306,4.0858,3.8757,4.0134,4.0042,3.881,4.0187,4.1522,4.2717,4.2717,4.2717,4.2747,4.3014,0.0,0.0,0.0,0.0,0.0,0.0,0.0,0.0,0.0,0.0,0.0,0.0,0.0,0.0,0.0,0.0,0.0,0.0,0.0,0.0,0.0,0.0,0.0,0.0,0.0,0.0,0.0,0.0,0.0,0.0,0.0,0.0,0.0,0.0,0.0,0.0,0.0,0.0,5.8165,5.8525,0.0,0.0,0.0,0.0,6.0526,6.0297,5.9722,5.8841,5.8768,5.769,5.5239,5.5157,5.4706,5.3726,5.3688,5.3688,5.3712,5.3675,5.3449,5.3072,5.3072,5.3072,5.3072,5.3072,5.3336,5.3654,5.2778,5.2599,5.3068,5.4828,5.5952,5.6578,5.6893,5.7503,5.8027,0.0,0.0,0.0,0.0,0.0,0.0,0.0,0.0,3.8,3.8,3.8,3.819,3.874,3.9101,3.9537,4.0066,4.0595,4.0908,4.0908,4.1076,4.1201,4.1201,4.1201,4.1369,4.1706,4.1706,4.1301,4.0395,4.0903,4.0273,3.8603,3.9466,3.962,3.9167,3.9983,4.1153,4.2498,4.2717,4.2789,4.2819,4.2909,4.3028,0.0,0.0,0.0,0.0,0.0,0.0,0.0,0.0,0.0,0.0,0.0,0.0,0.0,0.0,0.0,0.0,0.0,0.0,0.0,0.0,0.0,0.0,0.0,0.0,0.0,0.0,0.0,0.0,0.0,0.0,0.0,0.0,0.0,0.0,0.0,0.0,0.0,5.8842,5.8989,0.0,5.9896,5.9102,5.9196,6.079,5.9894,5.8868,5.8016,5.7974,5.6848,5.4377,5.429,5.4128,5.3822,5.3785,5.3785,5.3785,5.3521,5.3332,5.3205,5.3309,5.3451,5.3704,5.4099,5.4473,5.4808,5.4423,5.379,5.3095,5.3922,5.4348,5.4557,5.4945,5.5541,5.6297,0.0,0.0,0.0,0.0,0.0,0.0,0.0,3.8,3.8,3.8,3.8142,3.8479,3.9005,3.9561,4.009,4.0619,4.098,4.1201,4.1201,4.1201,4.1297,4.1466,4.1658,4.1899,4.226,4.226,4.1612,4.0242,4.0738,3.9842,3.7727,3.8594,3.8795,3.8528,3.9318,4.029,4.1403,4.2622,4.3174,4.3289,4.3289,4.3409,4.3614,0.0,0.0,0.0,0.0,0.0,0.0,0.0,0.0,0.0,0.0,0.0,0.0,0.0,0.0,0.0,0.0,0.0,0.0,0.0,0.0,0.0,0.0,0.0,0.0,0.0,0.0,0.0,0.0,0.0,0.0,0.0,0.0,0.0,0.0,5.9078,5.9028,5.9458,5.9483,5.9735,6.0381,5.9548,5.9411,6.0537,5.9681,5.8486,5.7123,5.7042,5.6042,5.3873,5.3785,5.3785,5.3785,5.3991,5.4087,5.4087,5.3975,5.3933,5.3957,5.4022,5.4227,5.4482,5.484,5.5138,5.5385,5.5385,5.4784,5.3884,5.3916,5.3936,5.3959,5.4213,5.4899,5.5933,0.0,0.0,0.0,0.0,0.0,0.0,3.8,3.8,3.8024,3.8024,3.8479,3.9005,3.9561,4.009,4.0619,4.1153,4.1201,4.1225,4.1196,4.1196,4.1466,4.1995,4.2525,4.2789,4.2813,4.2813,4.1728,3.9483,4.0846,3.9637,3.6103,3.7469,3.7611,3.6784,3.8064,3.8938,3.9592,4.2438,4.3881,4.4302,4.4333,4.4364,4.4364,0.0,0.0,0.0,0.0,0.0,0.0,0.0,0.0,0.0,0.0,0.0,0.0,0.0,0.0,0.0,0.0,0.0,0.0,0.0,0.0,0.0,0.0,0.0,0.0,0.0,0.0,0.0,0.0,0.0,0.0,0.0,0.0,0.0,5.9727,5.9448,5.9426,6.0072,6.0097,6.0318,6.0995,6.0954,6.0565,5.9724,5.9616,5.8557,5.6239,5.6082,5.541,5.386,5.3846,5.3809,5.3809,5.4375,5.464,5.464,5.5145,5.5385,5.5385,5.5409,5.5409,5.5433,5.5433,5.5458,5.5458,5.5458,5.5433,5.5361,5.4832,5.4781,5.5053,5.5028,5.5779,5.7101,0.0,0.0,0.0,0.0,0.0,0.0,3.8,3.8,3.8118,3.8527,3.8719,3.9149,4.009,4.0306,4.0619,4.1153,4.1201,4.1369,4.1755,4.1779,4.2019,4.2549,4.2717,4.2958,4.3289,4.3313,4.2728,4.1493,4.1157,3.9938,3.7929,3.7677,3.7376,3.7164,3.7529,3.8335,3.9523,4.1376,4.2845,4.3956,4.5031,4.5469,4.5501,0.0,0.0,0.0,0.0,0.0,0.0,0.0,0.0,0.0,0.0,0.0,0.0,0.0,0.0,0.0,0.0,0.0,0.0,0.0,0.0,0.0,0.0,0.0,0.0,0.0,0.0,0.0,0.0,0.0,0.0,0.0,6.0349,6.0353,6.0353,6.0068,6.0072,6.075,5.9847,5.9385,6.0021,5.8088,5.7355,5.8665,5.7707,5.681,5.6155,5.6082,5.541,5.386,5.4183,5.4399,5.4399,5.4904,5.5193,5.5193,5.5337,5.5385,5.5409,5.5818,5.5972,5.5972,5.6395,5.6564,5.6564,5.6564,5.6308,5.5923,5.5385,5.5404,5.5716,5.5628,5.6103,5.6946,0.0,0.0,0.0,0.0,0.0,0.0,3.8,3.8,3.819,3.8743,3.9008,3.9465,4.0306,4.0595,4.086,4.1148,4.1201,4.1442,4.1971,4.2375,4.2789,4.3102,4.3289,4.3553,4.3835,4.3835,4.3426,4.2646,4.1406,4.0201,3.8993,3.7848,3.7383,3.7559,3.7559,3.8098,3.9212,4.1297,4.2644,4.3612,4.5719,4.6286,4.5934,4.6126,4.6311,4.6569,4.689,4.7164,4.7392,4.7577,0.0,0.0,0.0,0.0,0.0,0.0,0.0,0.0,0.0,0.0,0.0,0.0,0.0,0.0,0.0,0.0,0.0,0.0,0.0,0.0,0.0,0.0,0.0,0.0,6.0475,6.0586,6.1094,6.079,6.0778,6.1397,6.0122,5.9419,6.0016,5.7939,5.6785,5.7405,5.6627,5.5926,5.5473,5.546,5.5148,5.451,5.4784,5.4928,5.4928,5.5482,5.5746,5.5746,5.5963,5.6083,5.6083,5.638,5.6524,5.6548,5.6837,5.6981,5.6981,5.6981,5.6813,5.6476,0.0,0.0,0.0,0.0,5.6838,5.7497,0.0,0.0,0.0,0.0,0.0,0.0,3.8,3.8,3.819,3.8788,3.9293,3.9826,4.0427,4.0908,4.1201,4.1201,4.1273,4.1562,4.214,4.3072,4.3601,4.3601,4.4051,4.4223,4.4099,4.4115,4.3726,4.2834,4.1419,4.0311,3.9537,3.8087,3.7637,3.7988,3.7988,3.8223,3.8793,4.1559,4.2857,4.3275,4.609,4.678,4.607,4.607,4.6391,4.6832,4.7158,4.7604,4.8059,4.8445,0.0,0.0,0.0,0.0,0.0,0.0,0.0,0.0,0.0,0.0,0.0,0.0,0.0,0.0,0.0,0.0,0.0,0.0,0.0,0.0,0.0,0.0,0.0,0.0,6.0747,6.0754,6.1879,6.1626,6.1509,6.2043,6.0593,5.9778,6.0291,5.8912,5.74,5.6036,5.5976,5.5621,5.474,5.4688,0.0,0.0,0.0,5.5482,5.5482,5.5996,5.6284,5.6284,5.6765,5.6981,5.6981,5.6981,5.6981,5.6981,5.6981,5.6981,5.6981,5.6981,5.6981,5.6973,5.6531,5.626,5.6239,5.7004,5.7713,5.8325,0.0,0.0,0.0,0.0,0.0,0.0,3.8,3.8,3.8334,3.932,3.9537,3.997,4.096,4.1153,4.1201,4.1201,4.161,4.2236,4.3144,4.3787,4.4148,4.4148,4.4244,4.3795,4.2705,4.3003,4.2525,4.1221,4.0524,4.0083,3.9873,3.8863,3.8415,3.8457,3.8457,3.8532,3.872,4.0499,4.1912,4.3171,4.4983,4.6298,4.7185,4.7185,4.7257,4.7386,4.7716,4.7896,4.8059,4.8445,4.86,4.8739,4.943,4.9685,0.0,0.0,0.0,0.0,0.0,0.0,0.0,0.0,0.0,0.0,0.0,0.0,0.0,0.0,0.0,0.0,0.0,0.0,0.0,6.2203,6.2149,6.2127,6.2381,6.2488,6.26,6.2712,6.032,5.8692,5.8824,5.6715,5.5218,5.4916,5.529,5.5428,5.5241,5.5241,5.5289,5.5385,5.5842,5.6044,5.6044,5.6572,5.6837,5.6837,5.6933,0.0,5.6981,5.6981,5.6981,5.6981,5.6981,5.6981,5.6981,5.6981,5.6981,5.7021,5.7257,5.7247,5.7187,5.7751,5.7974,5.8026,0.0,0.0,0.0,0.0,0.0,0.0,3.8,3.8214,3.8695,3.9489,3.9826,4.0306,4.11,4.1201,4.1201,4.1201,4.1947,4.2717,4.3457,4.3362,4.3295,4.3295,4.2641,4.2034,4.1574,4.1733,4.1728,4.1544,4.0514,4.0135,4.0362,3.9161,3.8611,3.8611,3.8611,3.8991,3.9802,4.1261,4.2788,4.4276,4.5786,4.6841,4.7497,4.7696,4.7663,4.7563,4.8116,4.8353,4.8506,4.887,4.9174,4.9445,4.974,5.0023,5.034,0.0,0.0,0.0,0.0,0.0,0.0,0.0,0.0,0.0,0.0,0.0,0.0,0.0,0.0,6.1745,6.2035,0.0,6.2294,6.2928,6.273,6.262,6.2903,6.251,6.2052,6.1783,5.9999,5.8489,5.7734,5.604,5.5001,5.5001,5.5241,5.553,5.5794,5.5818,5.5938,5.6203,5.6732,5.6981,5.6981,5.755,5.7814,5.7814,5.7814,5.7814,5.7814,5.7814,5.767,5.7405,5.7405,5.7261,5.6981,5.6981,5.6981,5.7061,5.7695,5.7918,5.7907,5.8334,5.8585,5.873,0.0,0.0,0.0,0.0,0.0,0.0,3.8,3.8455,3.8981,3.9537,4.0066,4.0595,4.1124,4.1201,4.1297,4.1514,4.2308,4.3054,4.3625,4.2786,4.2293,4.2293,4.0958,4.0247,4.0394,4.0501,4.082,4.1438,4.029,3.9952,4.0356,3.9172,3.8611,3.8611,3.8611,3.9405,4.0871,4.2052,4.3621,4.5414,4.6768,4.7508,4.7832,4.8327,4.8203,4.7865,4.8714,4.9099,4.93,4.9643,4.9972,5.0198,5.0059,5.0346,5.065,5.0638,5.1324,0.0,0.0,0.0,0.0,0.0,0.0,0.0,0.0,6.1163,6.1222,6.1338,6.1745,6.218,6.2412,6.2689,6.3082,6.3685,6.3226,6.3001,6.3625,6.2375,6.1171,6.0585,5.9562,5.8433,5.7172,5.6137,5.5554,5.5554,5.565,5.5938,5.6476,5.65,5.6741,5.7269,5.7742,5.7959,5.7959,5.8392,5.8608,5.8608,5.8608,5.8608,5.8608,5.8608,5.8367,5.7959,5.7959,5.7718,5.7333,5.7333,5.7261,5.7245,5.8103,5.8384,5.8364,5.8848,5.9212,5.9471,0.0,0.0,0.0,0.0,0.0,0.0,0.0,0.0,3.8981,3.9537,4.0066,4.0595,4.1124,4.1201,4.1586,4.2525,4.2717,4.3223,4.4148,4.3028,4.2293,4.2293,4.0958,3.9787,3.8953,3.9356,3.9155,3.8375,3.8626,3.877,3.8846,3.8683,3.8611,3.8611,3.8611,3.9405,4.08,4.0977,4.2683,4.5392,4.6308,4.7505,4.8862,4.9972,4.9706,4.8895,5.0064,5.0496,5.0546,5.0939,5.0687,5.0306,5.108,5.0921,5.0675,5.1822,5.2262,5.245,5.2932,5.3835,5.5075,5.6618,5.7906,5.9158,0.0,6.0982,6.1338,6.189,6.2035,6.2441,6.3571,6.3801,6.4062,6.47,6.4271,6.4046,6.4675,6.2794,6.1118,6.0263,5.8789,5.7787,5.7637,5.67,5.6092,5.6092,5.6524,5.7069,5.7598,5.7646,5.7886,5.8416,5.8488,5.8512,5.8512,5.856,5.8608,5.8608,5.8608,5.8608,5.8608,5.8608,5.856,5.8512,5.8512,5.8488,5.8416,5.8416,5.8151,5.7799,5.8665,5.8728,5.8389,5.9159,5.9444,5.9483,0.0,0.0,0.0,0.0,0.0,0.0,0.0,0.0,3.9369,3.9585,4.0331,4.0932,4.1201,4.1201,4.1634,4.2693,4.2789,4.3247,4.4213,4.227,4.1087,4.1087,3.8937,3.7787,3.7877,3.8077,3.82,3.8301,3.8476,3.8611,3.8611,3.8611,3.8611,3.8611,3.8611,3.9405,4.0891,4.2068,4.3902,4.6205,4.7769,4.8894,4.9768,5.0817,5.0925,5.0524,5.093,5.1138,0.0,5.1648,5.1772,5.1799,5.1989,5.1935,5.1916,5.2302,5.255,5.2836,5.3572,5.4257,5.5234,5.7171,5.8253,5.9301,6.1113,6.1625,6.189,6.2558,6.2964,6.3368,6.392,6.4297,6.4793,6.5431,6.4965,6.4708,6.5336,6.2925,6.0945,6.0598,5.8605,5.7154,5.6836,5.674,5.6828,5.7117,5.7357,5.7718,5.8247,5.8271,5.8367,5.8584,5.8897,5.9065,5.9065,5.9353,5.9522,5.9522,5.9522,5.9522,5.9522,5.9522,5.9353,5.9041,5.8728,5.8608,5.8608,5.8608,5.8464,5.8353,5.892,5.9176,5.9226,5.9423,5.9483,5.9483,0.0,0.0,0.0,0.0,0.0,0.0,0.0,0.0,0.0,0.0,4.0619,4.1201,4.1201,4.1201,4.1634,4.2693,4.2789,4.3247,4.4213,4.2079,4.0635,4.0224,3.7965,3.6937,3.7285,3.7402,3.7832,3.8611,3.8611,3.8611,3.8611,3.8611,3.8611,3.8611,3.8611,3.9405,4.0927,4.2934,4.4843,4.6667,4.9081,5.0191,5.0546,5.1557,5.1952,5.1936,5.1774,5.1831,5.1986,5.2225,5.2535,5.2723,5.2481,5.2481,5.2585,5.2446,5.2654,5.3042,5.3683,5.3987,5.4701,5.7176,5.8143,5.9112,6.1457,6.2177,6.2558,6.3225,6.3687,6.4065,6.4239,6.4822,6.5402,6.5834,6.5483,6.5203,6.5363,6.2794,6.0773,6.0519,5.8557,5.7053,5.6668,5.6981,5.7454,5.7983,5.8031,5.8247,5.8776,5.8824,5.8872,5.9041,5.9402,5.9594,5.9594,6.0021,6.0213,6.0213,6.0213,6.0213,6.0213,6.0213,6.0021,5.9594,5.9209,5.9041,5.9041,5.9041,5.9027,5.9005,5.9455,5.9788,6.0051,5.9987,5.996,5.996,0.0,0.0,0.0,0.0,0.0,0.0,0.0,0.0,0.0,0.0,0.0,4.1201,4.1201,4.1201,4.1634,4.2693,4.2789,4.3247,4.4213,4.2988,4.1633,4.0257,3.9172,3.8213,3.732,3.7695,3.8125,3.8611,3.8611,3.8611,3.8611,3.8611,3.8611,3.8611,3.8611,3.9405,4.0927,4.2934,4.4703,4.6381,4.9648,5.097,5.1112,5.237,5.287,5.287,5.2845,5.2845,5.287,5.287,5.2663,5.2412,5.2412,5.2134,5.1925,5.2308,5.2654,5.2826,5.255,5.2179,5.2569,5.538,5.6536,5.7787,6.0895,6.2369,6.3225,6.3861,6.4007,6.421,6.4851,6.546,6.5864,6.5893,6.5824,6.5459,6.4582,6.2389,6.0556,5.9538,5.8442,5.779,5.7766,5.779,5.8007,5.8536,5.8584,5.88,5.9329,5.9353,5.9594,6.0165,6.0189,6.0189,6.0189,6.0213,6.0213,6.0213,6.0213,6.0213,6.0213,6.0213,6.0213,6.0189,6.0165,6.0165,6.0165,6.0165,6.0061,6.0014,6.049,6.0594,6.0542,6.0981,6.114,6.114,0.0,0.0,0.0,0.0,0.0,0.0,0.0,0.0,0.0,0.0,0.0,0.0,0.0,0.0,0.0,0.0,4.2789,4.3247,4.4213,4.302,4.1665,4.0257,3.8985,3.7997,3.732,3.7441,3.7851,3.8611,3.8611,3.8611,3.8611,3.8611,3.8611,3.8611,3.8611,3.9003,3.9865,4.1877,4.3976,4.6158,4.8838,5.0721,5.2,5.2648,5.2895,5.2895,0.0,5.2895,5.2895,5.2895,5.2826,5.2723,5.2723,5.2654,5.255,5.2688,5.2654,5.2481,5.2099,5.1925,5.2575,5.5795,5.6929,5.8293,6.2294,6.3451,6.3861,6.4532,6.4964,6.5312,6.5577,6.6128,6.6709,6.7144,6.6978,6.6384,6.5185,6.3482,6.1816,6.0129,5.9005,5.8464,5.8824,5.8536,5.856,5.9089,5.9113,5.9353,5.9883,5.9948,6.0003,6.0213,6.0213,6.0213,6.0213,6.0213,6.0213,6.0213,6.0213,6.0213,6.0213,6.0213,6.0213,6.0213,6.0213,6.0213,6.0213,6.0213,6.0159,6.0157,6.0615,6.0907,6.1211,6.1701,6.2027,6.2169,0.0,0.0,0.0,0.0,0.0,0.0,0.0,0.0,0.0,0.0,0.0,0.0,0.0,0.0,0.0,0.0,0.0,4.3247,4.4213,4.3483,4.2175,4.0289,3.9631,3.8671,3.732,3.7598,3.8027,3.8611,3.8611,3.8611,3.8611,3.8611,3.8611,3.8611,3.8611,3.8809,3.933,4.1338,4.3189,4.5033,4.8141,5.0151,5.1432,5.2491,5.2895,0.0,5.2895,5.2895,5.2895,5.2895,5.2895,5.2895,5.2895,5.2895,5.2895,5.2895,5.2757,5.2481,5.196,5.1943,5.27,5.5242,5.6883,5.8753,6.2195,6.3708,6.4502,6.4909,6.5489,6.5893,6.5893,6.6651,6.7409,6.7845,6.7945,6.7197,6.5043,6.4038,6.2558,5.9945,5.9204,5.9017,5.9353,5.9257,5.9305,5.9642,5.9666,5.981,6.0189,6.0213,6.0213,6.0213,6.0213,6.0213,6.0213,6.0213,6.0213,6.0213,6.0213,6.0213,6.0213,6.0213,6.0213,6.0213,6.0213,6.0213,6.0213,6.0213,6.0381,6.0674,6.0966,6.1423,6.2027,6.229,6.2577,6.2681,0.0,0.0,0.0,0.0,0.0,0.0,0.0,0.0,0.0,0.0,0.0,0.0,0.0,0.0,0.0,0.0,0.0,0.0,4.4196,4.4261,4.3114,4.0419,4.1032,4.0167,3.7461,3.8158,3.8571,3.8611,3.8611,3.8611,3.8611,3.8611,3.8611,3.8611,3.8611,3.8865,3.9369,4.1285,4.2402,4.3306,4.7549,4.9307,4.9652,5.198,5.2861,5.2895,5.2895,5.2895,5.2895,5.2895,5.2895,5.2895,5.2895,5.2895,5.2895,5.2895,5.2861,5.2688,5.1985,5.2168,5.2819,5.3961,5.6435,5.9075,6.0866,6.3196,6.4996,6.5025,6.5483,6.5853,6.598,6.6991,6.7861,6.7928,6.8604,6.7834,6.4213,6.3922,6.2703,5.9057,5.9113,5.9426,5.9426,5.9883,6.0213,6.0213,6.0213,6.0213,6.0213,6.0213,6.0213,6.0213,6.0213,6.0213,6.0213,6.0213,6.0213,6.0213,6.0213,6.0213,6.0213,6.0213,6.0213,6.0213,6.0213,6.0213,6.0213,6.0213,6.0716,6.1489,6.1531,6.2043,6.2781,6.2781,6.2781,6.2781,0.0,0.0,0.0,0.0,0.0,0.0,0.0,0.0,0.0,0.0,0.0,0.0,0.0,0.0,0.0,0.0,0.0,0.0,4.3643,4.4075,4.3545,4.1824,4.0954,3.9994,3.8867,3.8065,3.793,3.8611,3.8611,3.8611,3.8611,3.8611,3.8611,3.8611,3.8611,3.9041,3.9764,4.0275,4.1598,4.3555,4.616,4.7949,4.9295,5.1632,5.255,5.2585,5.2826,5.2895,5.2895,5.2895,5.2895,5.2895,5.2895,5.2895,5.2861,5.2619,5.2342,5.2069,5.197,5.187,5.2423,5.5142,5.7216,5.9277,6.1814,6.3765,6.5112,6.5606,6.5273,6.5445,6.7091,6.7111,6.725,6.8364,6.8113,6.6847,6.4102,6.3463,6.2281,5.9532,5.9642,6.0021,6.0021,6.0141,6.0213,6.0213,6.0213,6.0213,6.0213,6.0213,6.0213,6.0213,6.0213,6.0213,6.0213,6.0213,6.0213,6.0213,6.0213,6.0213,6.0213,6.0213,6.0213,6.0213,6.0213,6.0213,6.0213,6.0507,6.0799,6.1049,6.1754,6.2167,6.2372,6.27,6.2781,6.2781,0.0,0.0,0.0,0.0,0.0,0.0,0.0,0.0,0.0,0.0,0.0,0.0,0.0,0.0,0.0,0.0,0.0,0.0,0.0,4.4003,4.3701,4.2356,4.1708,4.0661,3.9109,3.8711,3.8434,3.8281,3.8513,3.8611,3.8611,3.8611,3.8611,3.8611,3.8611,3.8945,3.959,3.959,4.1001,0.0,0.0,4.7527,4.9402,5.1736,5.2619,5.2654,5.2826,5.2895,5.2895,5.2895,5.2895,5.2895,5.2895,5.2895,5.2861,5.2688,5.2481,5.2268,5.2283,5.2423,5.3005,5.4741,5.7205,5.9536,6.0706,6.3267,6.5192,6.448,6.4696,6.5368,6.6616,6.6644,6.6999,6.8528,6.8212,6.6977,6.4653,6.3985,6.2784,6.0296,6.0271,6.0381,6.0213,6.0213,6.0213,6.0213,6.0213,6.0213,6.0213,6.0213,6.0213,6.0213,6.0213,6.0213,6.0213,6.0213,6.0213,6.0213,6.0213,6.0213,6.0213,6.0213,6.0213,6.0213,6.0213,6.0213,6.0213,6.0632,6.0924,6.1191,6.1919,6.229,6.2495,6.27,6.2781,6.2781,0.0,0.0,0.0,0.0,0.0,0.0,0.0,0.0,0.0,0.0,0.0,0.0,0.0,0.0,0.0,0.0,0.0,0.0,0.0,0.0,4.3724,4.261,4.2738,4.1702,3.9311,3.9813,3.9453,3.816,3.859,3.8734,3.8611,3.8611,3.8611,3.8611,3.8611,3.8809,3.9199,3.9199,4.0581,4.3011,4.5369,4.7483,4.9487,0.0,5.2826,5.2826,5.2895,5.2895,5.2895,5.2895,5.2895,5.2895,5.2895,5.2895,5.2895,5.2861,5.2876,5.2878,5.2689,5.3338,5.4,5.3851,5.677,5.9525,5.8821,6.2117,6.4728,6.284,6.3746,6.4973,6.5265,6.5894,6.6833,6.8371,6.8358,6.7542,6.586,6.4846,6.3508,6.1374,6.0942,6.0632,6.0255,6.0213,6.0213,6.0213,6.0213,6.0213,6.0213,6.0213,6.0213,6.0213,6.0213,6.0213,6.0213,6.0213,6.0213,6.0213,6.0213,6.0213,6.0213,6.0213,6.0213,6.0213,6.0213,6.0213,6.0213,6.0632,6.1066,6.1564,6.2002,6.2454,6.2781,6.2781,6.2781,6.2781,0.0,0.0,0.0,0.0,0.0,0.0,0.0,0.0,0.0,0.0,4.1201,4.1201,0.0,0.0,0.0,0.0,0.0,0.0,0.0,0.0,0.0,4.395,4.2955,4.2335,4.2194,4.1198,4.0308,3.9646,3.9727,3.9368,3.8611,3.8611,3.8611,3.8611,3.8611,3.8809,3.9199,3.9199,4.0364,4.2442,4.4888,4.6883,4.8638,5.1425,0.0,0.0,5.2792,5.2895,5.2895,5.2895,5.2895,5.2895,5.2895,5.2895,5.2861,5.2585,5.278,5.3077,5.2837,5.3459,5.4253,5.4635,5.6504,5.8336,5.8945,6.072,6.2342,6.2935,6.2335,6.2259,6.4083,6.4936,6.5854,6.7383,6.7303,6.7298,6.7912,6.4874,6.269,6.2834,6.1639,6.0632,6.0255,6.0213,6.0213,6.0213,6.0213,6.0213,6.0213,6.0213,6.0213,6.0213,6.0213,6.0213,6.0213,6.0213,6.0213,6.0213,6.0213,6.0213,6.0213,6.0213,6.0213,6.0213,6.0213,6.0213,6.0213,6.0632,6.1066,6.1564,6.2002,6.2454,6.2781,6.2781,6.2781,6.2781,0.0,0.0,0.0,0.0,0.0,0.0,0.0,4.1201,4.1201,4.1201,4.1201,4.1201,4.1201,4.1201,4.1201,0.0,0.0,0.0,0.0,0.0,0.0,4.3859,4.3528,4.3105,4.2605,4.2123,4.143,4.0405,0.0,4.0709,4.0504,3.9688,3.9473,3.973,3.8918,3.8728,3.8887,3.8887,4.0476,4.312,4.4714,4.7058,4.9795,5.1565,0.0,0.0,5.2826,5.2895,5.2895,5.2895,5.2895,5.2895,5.2895,5.2895,5.2861,5.2723,5.3028,5.3447,5.3425,5.4113,5.4875,5.5225,5.6725,5.819,5.8441,6.0275,6.1781,6.1374,6.1312,6.1688,6.2767,6.3447,6.4627,6.699,6.6307,6.5998,6.7472,6.4664,6.2552,6.2706,6.1787,6.0983,6.0548,6.0339,6.0213,6.0213,6.0213,6.0213,6.0213,6.0213,6.0213,6.0213,6.0213,6.0213,6.0213,6.0213,6.0213,6.0213,6.0213,6.0213,6.0213,6.0213,6.0213,6.0213,6.0213,6.0339,6.0548,6.0983,6.144,6.1919,6.2331,6.2618,6.2781,6.2781,6.2781,6.2781,0.0,0.0,0.0,0.0,0.0,0.0,0.0,4.1201,4.1201,4.1201,4.1201,4.1201,4.1201,4.1201,4.1201,0.0,0.0,0.0,0.0,0.0,0.0,0.0,0.0,0.0,4.2736,0.0,0.0,4.1254,4.1617,0.0,0.0,0.0,0.0,0.0,3.9993,3.955,3.955,3.955,4.1328,0.0,0.0,4.7582,5.0915,0.0,0.0,0.0,0.0,5.2895,5.2895,5.2895,5.2895,5.2895,5.2895,5.2895,5.2895,5.2895,5.3381,5.3914,5.3975,5.4777,5.5594,5.5581,5.6787,5.7935,5.7887,5.9731,6.105,5.9769,6.0431,6.1316,6.1316,6.219,6.3834,6.6646,6.5636,6.5339,6.7729,6.5005,6.2904,6.322,6.2281,6.144,6.0883,6.0507,6.0297,6.0213,6.0213,6.0213,6.0213,6.0213,6.0213,6.0213,6.0213,6.0213,6.0213,6.0213,6.0213,6.0213,6.0213,6.0213,6.0213,6.0213,6.0213,6.0213,6.0213,6.0381,6.0716,6.115,6.163,6.2084,6.2495,6.27,6.2781,6.2781,6.2781,6.2781,0.0,0.0,0.0,0.0,0.0,0.0,0.0,4.1201,4.1201,4.1201,4.1201,4.1201,4.1201,4.1201,4.1201,0.0,0.0,0.0,0.0,0.0,0.0,0.0,0.0,0.0,0.0,0.0,0.0,4.2736,4.275,0.0,0.0,0.0,0.0,0.0,0.0,4.2613,4.2613,4.2613,0.0,0.0,0.0,0.0,0.0,0.0,0.0,0.0,0.0,5.2895,5.2895,5.2895,5.2895,5.2895,5.2895,5.2895,5.2895,5.2895,5.3658,5.4415,5.4074,5.5052,5.6034,5.5681,5.5974,5.6678,5.7662,5.8101,5.8554,5.9359,5.9599,5.9714,5.9714,6.1801,6.4113,6.5921,6.563,6.6802,7.1416,6.674,6.3746,6.6339,6.3977,6.1796,6.0883,6.0757,6.059,6.0213,6.0213,6.0213,6.0213,6.0213,6.0213,6.0213,6.0213,6.0213,6.0213,6.0213,6.0213,6.0213,6.0213,6.0213,6.0213,6.0213,6.0213,6.0213,6.0213,6.0213,6.0297,6.0716,6.1133,6.1614,6.2043,6.2454,6.2781,6.2781,6.2781,6.2781,0.0,0.0,0.0,0.0,0.0,0.0,4.1201,4.1201,4.1201,4.1201,4.1201,4.1201,4.1201,4.1201,4.1201,4.1201,0.0,0.0,0.0,0.0,0.0,0.0,0.0,0.0,0.0,0.0,4.4132,4.3758,4.3758,0.0,0.0,0.0,0.0,0.0,0.0,4.2735,4.2997,4.2997,0.0,0.0,0.0,0.0,0.0,0.0,0.0,0.0,0.0,0.0,5.2895,5.2895,5.2895,5.2895,5.2895,5.2895,5.2895,5.2895,5.3708,5.4561,5.4384,5.5257,5.6182,5.5999,5.6072,5.652,5.765,5.7901,5.8202,5.9282,5.9483,5.9483,5.9483,6.0973,6.2702,6.4345,6.4142,6.4816,6.7806,6.5094,6.3245,6.4403,6.3139,6.2043,6.1672,6.1133,6.0632,6.0213,6.0213,6.0213,6.0213,6.0213,6.0213,6.0213,6.0213,6.0213,6.0213,6.0213,6.0213,6.0213,6.0213,6.0213,6.0213,6.0213,6.0213,6.0213,6.0213,6.0339,6.059,6.1049,6.1506,6.1961,6.2372,6.2659,6.2781,6.2781,6.2781,6.2781,0.0,0.0,0.0,0.0,0.0,4.1201,4.1201,4.1201,4.1201,4.1201,4.1201,4.1201,4.1201,4.1201,4.1201,4.1201,4.1201,0.0,0.0,0.0,0.0,0.0,0.0,0.0,0.0,0.0,4.4285,4.4285,4.4285,4.4508,0.0,0.0,4.397,4.4635,0.0,0.0,0.0,0.0,0.0,0.0,0.0,0.0,0.0,0.0,0.0,0.0,0.0,0.0,0.0,0.0,0.0,5.2895,5.2895,5.2895,5.2895,5.2895,5.3708,5.4597,5.4597,5.5365,5.6219,5.6219,5.6219,5.652,5.765,5.7901,5.8202,5.9282,5.9483,5.9483,5.9483,6.0412,6.1734,6.3348,6.3166,6.3544,6.57,6.4163,6.2985,6.3488,6.2838,6.2331,6.2208,6.1465,6.0841,6.0423,6.0381,6.0339,6.0213,6.0213,6.0213,6.0213,6.0213,6.0213,6.0213,6.0213,6.0213,6.0213,6.0213,6.0213,6.0213,6.0213,6.0213,6.0213,6.0339,6.0465,6.0674,6.1382,6.1894,6.2266,6.2652,6.2882,6.3007,6.2857,6.2781,6.2781,0.0,0.0,0.0,0.0,0.0,0.0,4.1201,4.1201,4.1201,4.1201,4.1201,4.1201,4.1201,4.1201,4.1201,4.1201,4.1201,0.0,0.0,0.0,0.0,0.0,0.0,0.0,0.0,0.0,4.4285,4.4285,4.4285,4.4285,4.4309,4.4837,4.5077,4.5125,0.0,0.0,0.0,0.0,0.0,0.0,0.0,0.0,5.1381,0.0,0.0,0.0,0.0,0.0,0.0,0.0,0.0,0.0,0.0,5.2895,5.2895,5.2895,5.3708,5.4597,5.4597,5.5365,5.6219,5.6219,5.6219,5.652,5.765,5.7901,5.8202,5.9282,5.9483,5.9483,5.9483,6.0412,6.1734,6.3348,6.3166,6.3922,6.7203,6.4856,6.3407,6.5094,6.3827,6.2618,6.2249,6.1779,6.1299,6.0841,6.0799,6.0632,6.0213,6.0213,6.0213,6.0213,6.0213,6.0213,6.0213,6.0213,6.0213,6.0213,6.0213,6.0213,6.0213,6.0213,6.0213,6.0213,6.0632,6.059,6.0297,6.163,6.2216,6.2345,6.2654,6.3174,6.3626,6.3048,6.2781,6.2781,0.0,0.0,0.0,0.0,0.0,0.0,0.0,4.1201,4.1201,4.1201,4.1201,4.1201,4.1201,4.1201,4.1201,4.1201,4.1201,0.0,0.0,0.0,0.0,0.0,0.0,0.0,0.0,0.0,4.4285,4.4285,4.4285,4.4285,4.4285,4.4453,4.4748,4.5133,4.583,4.6464,0.0,0.0,0.0,0.0,0.0,5.0123,5.1331,0.0,0.0,0.0,0.0,0.0,0.0,0.0,0.0,0.0,0.0,0.0,0.0,5.2895,5.3708,5.4597,5.4597,5.5365,5.6219,5.6219,5.6219,5.652,5.765,5.7901,5.8202,5.9282,5.9483,5.9483,5.9483,6.0412,6.1364,6.1892,6.2431,6.3164,6.4203,6.3488,6.2985,6.3529,6.3123,6.2618,6.2249,6.2068,6.1754,6.1299,6.1257,6.1216,6.1115,6.1091,6.0841,6.0213,6.0213,6.0339,6.0632,6.0339,6.0339,6.0632,6.0632,6.0632,6.0632,6.0632,6.0632,6.0632,6.0757,6.0757,6.074,6.2149,6.2754,6.2861,6.3644,6.4053,6.4245,6.4028,6.3952,6.3902,0.0,0.0,0.0,0.0,0.0,0.0,0.0,4.1201,4.1201,4.1201,4.1201,4.1201,4.1201,4.1201,4.1201,4.1201,4.1201,0.0,0.0,0.0,0.0,0.0,0.0,0.0,0.0,4.4027,4.4285,4.4285,4.4285,4.4285,4.4285,4.4285,4.4546,4.5032,4.5756,4.6456,0.0,0.0,0.0,0.0,4.9299,5.0104,5.1306,0.0,0.0,0.0,0.0,0.0,0.0,0.0,0.0,0.0,0.0,0.0,0.0,0.0,5.3708,5.4597,5.4597,5.5365,5.6219,5.6219,5.6219,5.652,5.765,5.7901,5.8202,5.9282,5.9483,5.9483,5.9483,6.0412,6.119,6.119,6.2119,6.2781,6.2781,6.2781,6.2781,6.2781,6.2781,6.27,6.2454,6.2413,6.2249,6.182,6.1754,6.1696,6.1506,6.1506,6.1257,6.0716,6.0674,6.0757,6.0799,6.0548,6.0632,6.1049,6.0883,6.09,6.1066,6.1049,6.0966,6.0841,6.1008,6.1088,0.0,6.2462,6.3235,6.365,6.4278,6.4622,6.4798,6.4572,6.4496,6.4471,0.0,0.0,0.0,0.0,0.0,0.0,0.0,4.1201,4.1201,4.1201,4.1201,4.1201,4.1201,4.1201,4.1201,4.1201,0.0,0.0,0.0,0.0,0.0,0.0,0.0,0.0,0.0,4.4003,4.4285,4.4285,4.4285,4.4285,4.4285,4.4285,4.447,4.4827,4.5927,4.6629,0.0,0.0,0.0,0.0,4.964,5.0318,0.0,0.0,0.0,0.0,0.0,0.0,0.0,0.0,0.0,0.0,0.0,0.0,0.0,0.0,0.0,0.0,0.0,5.5365,5.6219,5.6219,5.6219,5.652,5.765,5.7901,0.0,5.9282,5.9483,5.9483,5.9483,6.0412,6.119,6.119,6.2119,6.2781,6.2781,6.2781,6.2781,6.2781,6.2781,6.2781,6.2781,6.2781,6.2659,6.2249,6.2249,6.2043,6.1606,6.1589,6.1572,6.1572,6.1589,6.1357,6.0924,6.0883,6.1091,6.1531,6.1091,6.1108,6.1564,6.1548,6.1299,6.0924,6.134,6.1617,6.1879,6.2744,6.3699,6.4662,6.4629,6.4949,6.5283,6.4823,6.4622,6.4622,0.0,0.0,0.0,0.0,0.0,0.0,0.0,0.0,0.0,0.0,4.1201,4.1201,4.1201,4.1201,4.1201,0.0,0.0,0.0,0.0,0.0,0.0,0.0,0.0,0.0,0.0,4.3835,4.4285,4.4285,4.4285,4.4285,4.4285,4.4285,4.4347,4.4488,4.5801,4.7204,0.0,0.0,0.0,0.0,5.0067,5.0645,0.0,0.0,0.0,0.0,5.2895,5.2895,0.0,0.0,0.0,0.0,0.0,0.0,0.0,0.0,5.3708,5.4597,5.4597,0.0,5.6219,5.6219,5.6219,5.652,0.0,5.7901,5.8202,5.9282,5.9483,5.9483,5.9483,6.0412,6.119,6.119,6.2119,6.2781,6.2781,6.2781,6.2781,6.2781,6.2781,6.2781,6.2781,6.2781,6.2741,6.2659,6.2659,6.2618,6.2495,6.2495,6.2331,6.2043,6.2331,6.229,6.1878,6.1506,6.1548,6.2043,6.1919,6.1919,6.2043,6.2043,6.1961,6.1878,6.1961,6.2283,6.2761,6.3769,6.4554,6.5138,6.5567,6.581,6.5911,6.5785,6.5735,6.566,0.0,0.0,0.0,0.0,0.0,0.0,0.0,0.0,0.0,0.0,0.0,4.1201,4.1201,4.1201,0.0,0.0,0.0,0.0,0.0,0.0,0.0,0.0,0.0,0.0,4.3126,4.3883,4.4285,4.4285,4.4285,4.4285,4.4285,4.4285,4.4498,4.4974,4.6546,4.7898,0.0,0.0,4.959,4.964,5.0193,0.0,0.0,0.0,0.0,0.0,5.2895,5.2895,0.0,5.2895,5.2895,5.2895,0.0,0.0,0.0,0.0,5.3708,5.4597,5.4597,5.5365,5.6219,5.6219,5.6394,5.6784,5.77,5.8102,5.8504,5.9332,5.9483,5.9483,5.9483,6.0412,6.119,6.119,6.2119,6.2781,6.2781,6.2781,6.2781,6.2781,6.2781,6.2781,6.2781,6.2781,6.2781,6.2781,6.2781,6.2781,6.2781,6.2781,6.27,6.2495,6.27,6.2618,6.2208,6.1944,6.2043,6.2454,6.229,6.229,6.2454,6.2454,6.2372,6.2208,6.2208,6.2614,6.3426,6.3935,6.4762,6.5685,6.5986,6.6112,6.6112,6.6112,6.6112,6.6061,0.0,0.0,0.0,0.0,0.0,0.0,0.0,0.0,0.0,0.0,0.0,0.0,0.0,0.0,0.0,0.0,0.0,0.0,0.0,0.0,0.0,0.0,0.0,4.303,4.3505,4.4027,4.4285,4.4285,4.4285,4.4285,4.4285,4.4285,4.4815,4.5907,4.7545,4.8519,0.0,0.0,4.964,4.9766,5.0318,0.0,0.0,0.0,0.0,0.0,0.0,0.0,0.0,5.2895,5.2895,5.2895,5.2895,0.0,0.0,0.0,0.0,0.0,5.4697,5.544,5.6219,5.6219,5.6584,5.7161,5.7775,5.8328,5.8855,5.9382,5.9483,5.9533,5.9608,6.0487,6.1255,6.1291,6.2169,6.2781,6.2781,6.2781,6.2781,6.2781,6.2781,6.2781,6.2781,6.2781,6.2781,6.2781,6.2781,6.2781,6.2781,6.2781,6.2781,6.2781,6.2781,6.2618,6.229,6.229,6.2454,6.2781,6.2454,6.2454,6.2781,6.2781,6.2618,6.229,6.229,6.2912,6.3933,6.3933,6.4793,6.6112,6.6112,6.6112,6.6112,6.6112,6.6112,6.6112,0.0,0.0,0.0,0.0,0.0,0.0,0.0,0.0,0.0,0.0,0.0,0.0,0.0,0.0,0.0,0.0,0.0,0.0,0.0,0.0,0.0,0.0,4.2149,4.303,4.3505,4.4027,4.4285,4.4285,4.4285,4.4285,4.4285,4.4285,4.5188,4.683,4.7852,4.875,4.9464,0.0,4.9866,5.0343,5.0921,0.0,0.0,0.0,0.0,0.0,0.0,0.0,0.0,5.2895,5.2895,5.2895,5.2895,0.0,0.0,0.0,0.0,0.0,5.5139,5.5717,5.6219,5.6219,5.6584,5.7161,5.7775,5.8328,5.8855,5.9382,5.9483,5.9633,6.0111,6.0738,6.1341,6.1793,6.2421,6.2781,6.2781,6.2781,6.2781,6.2781,6.2781,6.2781,6.2781,6.2781,6.2781,6.2781,6.2781,6.2781,6.2781,6.2781,6.2781,6.2781,6.2781,6.2781,6.27,6.27,6.2741,6.2781,6.2741,6.2741,6.2781,6.2781,6.2781,6.27,6.27,6.3326,6.4371,6.4371,6.509,6.6112,6.6112,6.6112,6.6112,6.6112,6.6112,6.6112,0.0,0.0,0.0,0.0,0.0,0.0,0.0,0.0,0.0,0.0,0.0,0.0,0.0,0.0,0.0,0.0,0.0,0.0,0.0,0.0,0.0,4.1184,4.1783,4.2654,4.3931,4.3466,4.3576,4.4285,4.4285,4.4285,4.434,4.5081,4.6085,4.7325,4.827,4.89,4.9195,4.9464,4.9916,5.0436,0.0,0.0,0.0,0.0,0.0,0.0,0.0,0.0,0.0,0.0,5.2895,5.2895,5.2895,0.0,0.0,0.0,0.0,0.0,5.5239,5.5792,5.6294,5.6533,5.7035,5.7612,5.8202,5.8755,5.9207,5.9433,5.9483,5.9659,6.0211,6.0788,6.1466,6.232,6.2631,6.2781,6.2781,6.2781,6.2781,6.2781,6.2781,6.2781,6.2781,6.2781,6.2781,6.2781,6.2781,6.2781,6.2781,6.2781,6.2781,6.2781,6.2781,6.2781,6.2781,6.2781,6.2781,6.2781,6.2781,6.2781,6.2781,6.2781,6.2781,6.2781,6.2781,6.3299,6.4078,6.4396,6.4931,6.571,6.5986,6.6112,6.6112,6.6112,6.6112,6.6112,0.0,0.0,0.0,0.0,0.0,0.0,0.0,0.0,0.0,0.0,0.0,0.0,0.0,0.0,0.0,0.0,0.0,0.0,0.0,0.0,4.0767,4.0558,4.0977,4.2193,4.423,4.2988,4.2957,4.4285,4.4285,4.4419,4.4656,4.6136,4.7157,4.7744,4.8779,4.9139,4.9044,4.9565,5.0117,5.067,0.0,0.0,0.0,0.0,0.0,0.0,0.0,0.0,0.0,0.0,0.0,0.0,0.0,0.0,0.0,5.3758,5.4346,5.4924,5.544,5.5993,5.6508,5.706,5.7575,5.8052,5.8604,5.9131,5.9483,5.9483,5.9583,5.9859,6.0412,6.109,6.1843,6.2656,6.2781,6.2781,6.2781,6.2781,6.2781,6.2781,6.2781,6.2781,6.2781,6.2781,6.2781,6.2781,6.2781,6.2781,6.2781,6.2781,6.2781,6.2781,6.2781,6.2781,6.2781,6.2781,6.2781,6.2781,6.2781,6.2781,6.2781,6.2781,6.2781,6.2781,6.2781,6.3149,6.3726,6.4295,6.4848,6.5333,6.5886,6.6112,6.6112,6.6112,6.6112,6.6112,0.0,0.0,0.0,0.0,0.0,0.0,0.0,0.0,0.0,0.0,0.0,0.0,0.0,0.0,0.0,0.0,0.0,0.0,0.0,0.0,4.0347,3.7882,3.939,4.1556,4.4254,4.2988,4.2957,4.4285,4.4285,4.4743,4.5657,4.7365,4.8203,4.8291,4.9178,4.9565,4.9565,5.0117,5.0695,5.1272,5.1825,0.0,0.0,0.0,0.0,0.0,0.0,0.0,0.0,0.0,0.0,0.0,0.0,0.0,5.3758,5.4371,5.4924,5.544,5.6018,5.6508,5.7085,5.77,5.7876,5.8052,5.8604,5.9131,5.9483,5.9483,5.991,6.0437,6.1014,6.1994,6.2706,6.2781,6.2781,6.2781,6.2781,6.2781,6.2781,6.2781,6.2781,6.2781,6.2781,6.2781,6.2781,6.2781,6.2781,6.2781,6.2781,6.2781,6.2781,6.2781,6.2781,6.2781,6.2781,6.2781,6.2781,6.2781,6.2781,6.2781,6.2781,6.2781,6.2781,6.2781,6.2781,6.3149,6.3726,6.4295,6.4848,6.5333,6.5886,6.6112,6.6112,6.6112,6.6112,6.6112,0.0,0.0,0.0,0.0,0.0,0.0,0.0,0.0,0.0,0.0,0.0,0.0,0.0,0.0,0.0,0.0,0.0,0.0,0.0,0.0,3.8923,3.7926,3.9356,4.1119,4.2988,4.1697,4.2367,4.5171,4.573,4.6326,4.6998,4.7894,4.8586,4.9128,4.9457,4.9791,5.0117,5.0318,5.0946,5.18,5.2026,5.2427,0.0,0.0,0.0,0.0,0.0,0.0,0.0,0.0,5.2895,5.2895,5.2895,5.3281,5.3808,5.4421,5.4999,5.5516,5.6068,5.6584,5.7136,5.775,5.8152,5.8554,5.9081,5.9357,5.9483,5.9483,5.9935,6.0613,6.1517,6.232,6.2781,6.2781,6.2781,6.2781,6.2781,6.2781,6.2781,6.2781,6.2781,6.2781,6.2781,6.2781,6.2781,6.2781,6.2781,6.2781,6.2781,6.2781,6.2781,6.2781,6.2781,6.2781,6.2781,6.2781,6.2781,6.2781,6.2781,6.2781,6.2781,6.2781,6.2781,6.2781,6.2781,6.2907,6.3199,6.3751,6.4346,6.4923,6.576,6.6112,6.6112,6.6112,6.6112,6.6112,0.0,0.0,0.0,0.0,0.0,0.0,0.0,0.0,0.0,0.0,0.0,0.0,0.0,0.0,0.0,0.0,0.0,0.0,0.0,3.791,3.7909,3.7461,3.9212,4.0734,4.1859,4.1375,4.2564,4.5493,4.6672,4.7435,4.7804,4.8426,4.9046,4.9615,4.9766,5.0067,5.0411,5.0795,5.1398,5.2126,5.2302,5.2544,0.0,0.0,0.0,0.0,0.0,0.0,0.0,0.0,5.2895,5.2895,5.2895,5.3406,5.4059,5.4496,5.5125,5.5767,5.6319,5.6835,5.7412,5.8027,5.8554,5.9056,5.9408,5.9483,5.9533,5.9709,6.0337,6.114,6.2094,6.2531,6.2781,6.2781,6.2781,6.2781,6.2781,6.2781,6.2781,6.2781,6.2781,6.2781,6.2781,6.2781,6.2781,6.2781,6.2781,6.2781,6.2781,6.2781,6.2781,6.2781,6.2781,6.2781,6.2781,6.2781,6.2781,6.2781,6.2781,6.2781,6.2781,6.2781,6.2781,6.2781,6.2781,6.2781,6.2832,6.345,6.4103,6.4848,6.5559,6.5961,6.6112,6.6112,6.6112,6.6112,0.0,0.0,0.0,0.0,0.0,0.0,0.0,0.0,0.0,0.0,0.0,0.0,0.0,0.0,0.0,0.0,0.0,0.0,3.8055,3.8075,3.7461,3.605,3.8705,4.0465,4.0979,4.2379,4.3782,4.5133,4.6937,4.7804,4.7829,4.905,4.959,4.9615,5.0167,5.0386,5.0486,5.1624,5.2101,5.2151,5.2669,5.2895,5.2895,0.0,0.0,0.0,0.0,0.0,0.0,0.0,5.2895,5.2895,5.2895,5.3683,5.4597,5.4622,5.5365,5.6344,5.686,5.7449,5.8052,5.8579,5.9106,5.9483,5.9483,5.9483,5.9659,6.0211,6.1215,6.2169,6.2681,6.2781,6.2781,6.2781,6.2781,6.2781,6.2781,6.2781,6.2781,6.2781,6.2781,6.2781,6.2781,6.2781,6.2781,6.2781,6.2781,6.2781,6.2781,6.2781,6.2781,6.2781,6.2781,6.2781,6.2781,6.2781,6.2781,6.2781,6.2781,6.2781,6.2781,6.2781,6.2781,6.2781,6.2781,6.2781,6.2832,6.345,6.4329,6.5283,6.5283,6.5634,6.6112,6.6112,6.6112,6.6112,0.0,0.0,0.0,0.0,0.0,0.0,0.0,0.0,0.0,0.0,0.0,0.0,0.0,0.0,0.0,0.0,0.0,0.0,3.6606,3.6938,3.6946,3.6519,3.9517,4.076,3.9896,4.265,4.4799,4.6214,4.7662,4.8232,4.7971,4.9207,4.9808,4.9833,5.0671,5.1247,5.1624,5.1975,5.2327,5.2669,5.282,5.2895,5.2895,0.0,0.0,0.0,0.0,0.0,0.0,0.0,0.0,0.0,5.3356,5.3984,5.4672,5.5039,5.5917,5.6784,5.696,5.7713,5.8504,5.8641,5.9106,5.9483,5.9483,5.9483,5.9759,6.0738,6.1492,6.2169,6.2681,6.2781,6.2781,6.2781,6.2781,6.2781,6.2781,6.2781,6.2781,6.2781,6.2781,6.2781,6.2781,6.2781,6.2781,6.2781,6.2781,6.2781,6.2781,6.2781,6.2781,6.2781,6.2781,6.2781,6.2781,6.2781,6.2781,6.2781,6.2781,6.2781,6.2781,6.2781,6.2781,6.2781,6.2781,6.2781,6.2832,6.345,6.3877,6.4228,6.5007,6.5383,6.5584,6.5961,6.6112,6.6112,0.0,0.0,0.0,0.0,0.0,0.0,0.0,0.0,0.0,0.0,0.0,0.0,0.0,0.0,0.0,0.0,0.0,0.0,0.0,3.6523,3.6773,3.6949,3.9378,4.0954,4.142,4.3635,4.5545,4.7016,4.8101,4.86,4.8574,4.9587,5.0248,5.0472,5.1281,5.18,5.2126,5.2327,5.2594,5.2895,5.2895,5.2895,5.2895,0.0,0.0,0.0,0.0,0.0,0.0,0.0,0.0,0.0,5.3532,5.411,5.4723,5.5214,5.6168,5.7035,5.7286,5.7989,5.8742,5.8981,5.9257,5.9519,5.9551,5.9893,6.0333,6.0876,6.158,6.2202,6.2527,6.2536,6.2618,6.2781,6.2781,6.2781,6.2781,6.2781,6.2781,6.2781,6.2781,6.2781,6.2781,6.2781,6.2781,6.2781,6.2781,6.2781,6.2781,6.2781,6.2781,6.2781,6.2781,6.2781,6.2781,6.2781,6.2781,6.2781,6.2781,6.2781,6.2781,6.2781,6.2781,6.2781,6.2781,6.2781,6.2807,6.3199,6.3475,6.3751,6.4404,6.4781,6.5074,6.5584,6.5785,6.581,0.0,0.0,0.0,0.0,0.0,0.0,0.0,0.0,0.0,0.0,0.0,0.0,0.0,0.0,0.0,0.0,0.0,0.0,0.0,0.0,3.6953,3.7344,3.8746,4.1041,4.4298,4.498,4.6001,4.737,4.8189,4.8829,4.9329,5.0091,5.0746,5.1306,5.1891,5.2176,5.2201,5.2669,5.2895,5.2895,5.2895,5.2895,5.2895,5.2895,0.0,0.0,0.0,0.0,0.0,0.0,0.0,0.0,5.3607,5.4185,5.4773,5.5326,5.6244,5.7186,5.775,5.8328,5.8905,5.9382,5.9494,5.954,5.9682,6.0467,6.1071,6.0784,6.1466,6.2125,6.2125,6.2125,6.2249,6.2618,6.27,6.2741,6.2741,6.2781,6.2781,6.2741,6.2781,6.2781,6.2741,6.2781,6.2781,6.2781,6.2781,6.2781,6.2781,6.2781,6.2781,6.2781,6.2781,6.2781,6.2781,6.2781,6.2781,6.2781,6.2781,6.2781,6.2781,6.2781,6.2781,6.2781,6.2781,6.2781,6.2781,6.2781,6.3149,6.3626,6.3676,6.3977,6.4496,6.5007,6.5208,6.5283,0.0,0.0,0.0,0.0,0.0,0.0,0.0,0.0,0.0,0.0,0.0,0.0,0.0,0.0,0.0,0.0,0.0,0.0,0.0,0.0,3.7695,3.7793,3.9531,4.1397,4.3294,4.463,4.5666,4.639,4.7728,4.8406,4.8584,5.0155,5.0962,5.112,5.2204,5.2719,5.2719,5.2845,5.2895,5.2895,5.2895,5.2895,5.2895,5.2895,5.2895,0.0,0.0,0.0,0.0,0.0,0.0,0.0,5.4245,5.4762,5.5315,5.5867,5.6821,5.775,5.7851,5.8604,5.9357,5.9458,5.9562,5.9682,5.9749,6.0291,6.0776,6.0695,6.122,6.1655,6.1655,6.1672,6.1672,6.1779,6.2084,6.2331,6.2331,6.2577,6.2659,6.2372,6.2618,6.2659,6.2372,6.2618,6.2781,6.2781,6.2781,6.2781,6.2781,6.2781,6.2781,6.2781,6.2781,6.2781,6.2781,6.2781,6.2781,6.2781,6.2781,6.2781,6.2781,6.2781,6.2781,6.2781,6.2781,6.2781,6.2781,6.2781,6.2857,6.3007,6.3525,6.3751,6.3927,6.4454,6.4697,6.4773,0.0,0.0,0.0,0.0,0.0,0.0,0.0,0.0,0.0,0.0,0.0,0.0,0.0,0.0,0.0,0.0,0.0,0.0,0.0,0.0,3.7991,3.8223,3.9214,4.0428,4.1912,4.3669,4.5082,4.6105,4.8088,4.9241,0.0,5.0724,5.1485,5.193,5.2573,5.2895,5.2895,5.2895,5.2895,5.2895,5.2895,5.2895,5.2895,5.2895,5.2895,5.2895,5.2895,0.0,0.0,0.0,0.0,0.0,0.0,0.0,5.5541,5.6369,5.7223,5.7951,5.8227,5.888,5.9519,5.9562,5.9865,6.0054,5.9927,6.0326,6.0676,6.051,6.0813,6.1174,6.1174,6.1174,6.1233,6.1465,6.1713,6.1837,6.1837,6.2043,6.2084,6.1878,6.2043,6.2167,6.2208,6.2372,6.2577,6.2781,6.2781,6.2781,6.2781,6.2781,6.2781,6.2781,6.2781,6.2781,6.2781,6.2781,6.2781,6.2781,6.2781,6.2781,6.2781,6.2781,6.2781,6.2781,6.2781,6.2781,6.2781,6.2781,6.2781,6.2807,6.3149,6.3274,6.335,6.3902,6.4145,6.4178,0.0,0.0,0.0,0.0,0.0,0.0,0.0,0.0,0.0,0.0,0.0,0.0,0.0,0.0,0.0,0.0,0.0,0.0,0.0,0.0,0.0,3.8591,3.8846,3.959,4.0924,4.3075,4.4897,4.6357,4.8739,0.0,0.0,0.0,5.1871,5.2594,5.2688,5.2757,5.2826,5.2826,5.2861,5.2895,5.2895,5.2895,5.2895,5.2895,5.2895,5.2895,5.2895,5.2945,5.3096,5.3557,0.0,0.0,0.0,0.0,5.5717,5.6709,5.7449,5.8027,5.8541,5.9106,5.9556,5.974,6.0089,6.0329,6.0163,6.041,6.059,6.0255,6.0465,6.0716,6.0716,6.0716,6.0841,6.1191,6.134,6.1406,6.1406,6.1465,6.1465,6.1382,6.1448,6.163,6.2043,6.2167,6.2372,6.2781,6.2781,6.2781,6.2781,6.2781,6.2781,6.2781,6.2781,6.2781,6.2781,6.2781,6.2781,6.2781,6.2781,6.2781,6.2781,6.2781,6.2781,6.2781,6.2781,6.2781,6.2781,6.2781,6.2781,6.2781,6.2781,6.2781,6.2857,6.3375,6.355,6.3626,0.0,0.0,0.0,0.0,0.0,0.0,0.0,0.0,0.0,0.0,0.0,0.0,0.0,0.0,0.0,0.0,0.0,0.0,3.7796,0.0,0.0,3.8611,3.9838,4.0807,4.1487,4.433,4.6367,4.7474,0.0,0.0,0.0,0.0,0.0,5.1422,0.0,5.2134,5.2481,5.2481,5.2654,5.2895,5.2895,5.2895,5.2895,5.2895,5.2895,5.2895,5.2895,5.3196,5.3607,5.3683,5.4361,0.0,0.0,0.0,5.6219,5.6809,5.7449,5.8027,5.8541,5.9106,5.9633,6.0108,6.0065,6.0031,6.0515,6.041,6.0255,6.0213,6.0255,6.0297,6.0297,6.0297,6.0297,6.0381,6.0674,6.0883,6.0883,6.1216,6.134,6.0924,6.1257,6.1506,6.1606,6.1961,6.2372,6.2781,6.2781,6.2781,6.2781,6.2781,6.2781,6.2781,6.2781,6.2781,6.2781,6.2781,6.2781,6.2781,6.2781,6.2781,6.2781,6.2781,6.2781,6.2781,6.2781,6.2781,6.2781,6.2781,6.2781,6.2781,6.2781,6.2781,6.2807,6.2882,6.2907,6.3023,0.0,0.0,0.0,0.0,0.0,0.0,0.0,0.0,0.0,0.0,0.0,0.0,0.0,0.0,0.0,3.7047,3.7578,3.7991,3.8281,3.8513,3.8611,3.8611,3.9427,4.0428,4.1591,4.4263,4.5882,4.6365,0.0,0.0,0.0,5.0506,5.113,0.0,0.0,0.0,5.2064,5.2064,5.2273,5.2619,5.2377,5.2412,5.2619,5.2619,0.0,0.0,0.0,0.0,5.3808,5.4436,5.4988,5.544,5.5742,0.0,0.0,0.0,5.7926,5.8478,5.9006,5.9558,6.0007,6.0322,6.0376,6.0376,6.071,6.0629,6.0465,6.0255,6.0381,6.0465,6.0255,6.0213,6.0213,6.0213,6.0339,6.0465,6.0465,6.0632,6.0716,6.0507,6.0632,6.0966,6.1465,6.1672,6.2084,6.2741,6.2781,6.2781,6.2781,6.2781,6.2781,6.2781,6.2781,6.2781,6.2781,6.2781,6.2781,6.2781,6.2781,6.2781,6.2781,6.2781,6.2781,6.2781,6.2781,6.2781,6.2781,6.2781,6.2781,6.2781,6.2781,6.2781,6.2781,6.2781,6.2781,6.2832,0.0,0.0,0.0,0.0,0.0,0.0,0.0,0.0,0.0,0.0,0.0,0.0,0.0,0.0,0.0,0.0,3.7851,3.8223,3.8591,3.8708,3.873,3.873,3.9527,4.078,4.2505,4.4736,4.6156,0.0,0.0,0.0,4.8946,5.0139,5.0978,0.0,5.1506,0.0,0.0,0.0,0.0,5.2238,5.1925,5.1995,0.0,0.0,0.0,0.0,0.0,5.3638,5.4119,5.497,5.5418,5.5666,5.6068,5.6559,0.0,0.0,0.0,5.9006,5.9382,5.991,6.0383,6.0617,6.0788,6.0924,6.1135,6.1049,6.0841,6.0423,6.059,6.0674,6.0255,6.0213,6.0213,6.0213,6.0213,6.0213,6.0213,6.0213,6.0213,6.0213,6.0213,6.0548,6.1406,6.1506,6.1837,6.2741,6.2781,6.2781,6.2781,6.2781,6.2781,6.2781,6.2781,6.2781,6.2781,6.2781,6.2781,6.2781,6.2781,6.2781,6.2781,6.2781,6.2781,6.2781,6.2781,6.2781,6.2781,6.2781,6.2781,6.2781,6.2781,6.2781,6.2781,6.2781,6.2781,6.2781,0.0,0.0,0.0,0.0,0.0,0.0,0.0,0.0,0.0,0.0,0.0,0.0,0.0,3.7617,3.7835,3.7855,3.8281,3.8591,3.8611,3.8945,3.916,3.916,4.1036,0.0,4.5055,4.6739,0.0,0.0,0.0,0.0,5.059,5.066,5.0731,5.0767,5.0767,5.0943,5.1211,0.0,0.0,0.0,5.182,5.182,0.0,0.0,0.0,0.0,0.0,5.3557,5.4774,5.4823,5.5415,5.6168,5.6194,5.6559,5.7111,0.0,0.0,0.0,5.9483,5.991,6.0423,6.104,6.1206,6.143,6.2001,6.1754,6.1299,6.0883,6.0799,6.0674,6.0255,6.0213,6.0213,6.0213,6.0213,6.0213,6.0213,6.0213,6.0213,6.0213,6.0213,6.0548,6.1406,6.1506,6.1853,6.2741,6.2781,6.2781,6.2781,6.2781,6.2781,6.2781,6.2781,6.2781,6.2781,6.2781,6.2781,6.2781,6.2781,6.2781,6.2781,6.2781,6.2781,6.2781,6.2781,6.2781,6.2781,6.2781,6.2781,6.2781,6.2781,6.2781,6.2781,6.2781,6.2781,6.2781,0.0,0.0,0.0,0.0,0.0,0.0,0.0,0.0,0.0,0.0,0.0,0.0,0.0,3.7796,3.8027,3.832,3.873,3.8984,3.8984,3.9394,3.9648,3.9648,4.0605,4.1939,4.3706,4.5595,0.0,0.0,0.0,5.0175,4.9162,5.0211,5.0696,5.0696,5.0696,5.0767,5.0908,5.0908,0.0,0.0,0.0,0.0,0.0,0.0,5.2046,5.2325,5.3286,5.3983,5.4461,5.4807,5.5311,5.5866,5.6215,5.69,5.7775,5.8654,5.9182,5.9483,5.9483,6.0161,6.0914,6.114,6.1521,6.1918,6.2158,6.2043,6.1713,6.0966,6.1049,6.1008,6.0339,6.0213,6.0213,6.0213,6.0213,6.0213,6.0213,6.0213,6.0213,6.0213,6.0213,6.0423,6.1008,6.134,6.1754,6.2372,6.2659,6.2781,6.2781,6.2781,6.2781,6.2781,6.2781,6.2781,6.2781,6.2781,6.2781,6.2781,6.2781,6.2781,6.2781,6.2781,6.2781,6.2781,6.2781,6.2781,6.2781,6.2781,6.2781,6.2781,6.2781,6.2781,6.2781,6.2781,6.2781,6.2781,0.0,0.0,0.0,0.0,0.0,0.0,0.0,0.0,0.0,0.0,0.0,0.0,0.0,0.0,3.832,3.875,3.918,3.9434,3.9434,3.9844,4.0098,4.0098,4.0984,4.2021,4.3097,4.4945,0.0,0.0,0.0,0.0,0.0,4.9401,5.0175,5.0696,5.0696,5.0696,0.0,0.0,0.0,5.1025,5.0802,5.0934,5.1315,5.1679,5.2078,5.2526,5.3473,5.4022,5.4328,5.4671,5.5201,5.5732,5.6253,5.7212,5.8353,5.9232,5.9483,5.9483,5.9483,6.0311,6.119,6.119,6.1817,6.2413,6.2413,6.2413,6.2208,6.1423,6.1382,6.1282,6.0548,6.0297,6.0213,6.0213,6.0213,6.0213,6.0213,6.0213,6.0213,6.0213,6.0213,6.0339,6.0757,6.1091,6.1506,6.2125,6.2454,6.2659,6.2781,6.2781,6.2781,6.2781,6.2781,6.2781,6.2781,6.2781,6.2781,6.2781,6.2781,6.2781,6.2781,6.2781,6.2781,6.2781,6.2781,6.2781,6.2781,6.2781,6.2781,6.2781,6.2781,6.2781,6.2781,6.2781,6.2781,6.2781,0.0,0.0,0.0,0.0,0.0,0.0,0.0,0.0,0.0,0.0,0.0,0.0,0.0,0.0,0.0,3.918,3.9648,3.9922,3.9922,4.0312,4.0508,4.0508,4.2376,4.3418,4.3418,4.5004,0.0,0.0,0.0,0.0,0.0,0.0,4.9198,5.0696,5.0696,5.0696,5.0696,0.0,5.0696,5.0696,5.072,5.0997,5.1417,5.1537,5.2163,5.304,5.3077,5.365,5.436,5.4384,5.5011,5.5852,5.629,5.7474,5.8817,5.9357,5.9508,5.9483,0.0,0.0,0.0,6.119,6.1994,6.2781,6.2781,6.2781,6.27,6.229,6.1862,6.1406,6.0924,6.0507,6.0255,6.0255,6.0213,6.0213,6.0213,6.0213,6.0213,6.0213,6.0213,6.0381,6.0799,6.0817,6.1216,6.2125,6.2208,6.2372,6.2781,6.2781,6.2781,6.2781,6.2781,6.2781,6.2781,6.2781,6.2781,6.2781,6.2781,6.2781,6.2781,6.2781,6.2781,6.2781,6.2781,6.2781,6.2781,6.2781,6.2781,6.2781,6.2781,6.2781,6.2781,6.2781,6.2781,6.2781,0.0,0.0,0.0,0.0,0.0,0.0,0.0,0.0,0.0,0.0,0.0,0.0,0.0,0.0,0.0,3.9687,4.0098,4.0313,4.0313,4.0762,4.0996,4.0996,4.1559,4.185,4.185,4.3362,4.4741,4.5878,4.7082,4.8453,5.0033,5.0033,5.0282,0.0,5.0696,5.0696,5.0696,5.0696,5.0696,5.0744,5.1129,5.0601,4.9857,5.1868,5.2061,5.1422,5.305,5.3777,5.4021,5.4406,5.4889,5.5573,5.6762,5.7899,0.0,5.9032,5.9251,0.0,5.9483,0.0,0.0,0.0,0.0,0.0,6.2706,6.2781,6.27,6.229,6.2084,6.1837,6.1382,6.1216,6.115,6.1133,6.059,6.0213,6.0213,6.0213,6.0297,6.059,6.0632,6.0799,6.1257,6.1589,6.1919,6.2167,6.2454,6.2659,6.2781,6.2781,6.2781,6.2781,6.2781,6.2781,6.2781,6.2781,6.2781,6.2781,6.2781,6.2781,6.2781,6.2781,6.2781,6.2781,6.2781,6.2781,6.2781,6.2781,6.2781,6.2781,6.2781,6.2781,6.2781,6.2781,6.2781,6.2781,0.0,0.0,0.0,0.0,0.0,0.0,0.0,0.0,0.0,0.0,0.0,0.0,0.0,0.0,0.0,0.0,4.0547,4.0801,4.0801,4.1035,4.1211,4.1211,4.1211,4.1211,4.1211,4.2062,4.2981,4.3949,4.5527,4.7118,4.873,4.9401,5.0068,5.0696,0.0,0.0,0.0,5.0139,5.0377,5.0985,5.0565,5.0056,4.9657,5.0593,5.0924,5.1018,5.2295,5.3376,5.4207,5.4496,5.5172,5.6065,5.7135,5.8015,5.8653,5.8653,5.8809,0.0,0.0,0.0,6.0226,6.1,0.0,0.0,6.2656,6.2781,6.2741,6.2495,6.2331,6.2125,6.1862,6.163,6.1482,6.1506,6.1091,6.0757,6.0716,6.0716,6.0841,6.1049,6.1091,6.1216,6.1489,6.1754,6.2002,6.2167,6.2413,6.2618,6.2781,6.2781,6.2781,6.2781,6.2781,6.2781,6.2781,6.2781,6.2781,6.2781,6.2781,6.2781,6.2781,6.2781,6.2781,6.2781,6.2781,6.2781,6.2781,6.2781,6.2781,6.2781,6.2781,6.2781,6.2781,6.2781,6.2781,6.2781,0.0,0.0,3.8187,3.7263,3.7389,3.7748,3.816,0.0,0.0,0.0,0.0,0.0,0.0,0.0,0.0,0.0,4.1053,4.1211,4.1211,4.1211,4.1211,4.1211,4.1211,4.1211,4.1211,4.1211,4.1288,4.1463,4.3019,4.457,4.6174,4.7813,4.9306,5.0696,5.0696,0.0,0.0,4.9577,4.9906,5.0982,4.9411,4.9358,5.0079,4.8626,4.9185,5.0791,5.1246,5.2649,5.4387,5.466,5.5689,5.6896,5.7367,5.7853,5.8232,5.8232,5.831,0.0,0.0,0.0,0.0,6.0935,6.1542,0.0,6.2656,6.2781,6.2781,6.2781,6.2495,6.2249,6.2249,6.1919,6.1647,6.1647,6.1647,6.1606,6.1531,6.1489,6.1531,6.1572,6.1572,6.1614,6.1655,6.1647,6.1812,6.2249,6.2249,6.2413,6.2781,6.2781,6.2781,6.2781,6.2781,6.2781,6.2781,6.2781,6.2781,6.2781,6.2781,6.2781,6.2781,6.2781,6.2781,6.2781,6.2781,6.2781,6.2781,6.2781,6.2781,6.2781,6.2781,6.2781,6.2781,6.2781,6.2781,6.2781,0.0,0.0,3.7584,3.9243,3.9567,3.9792,4.0187,0.0,0.0,0.0,0.0,0.0,0.0,0.0,0.0,0.0,4.1868,4.1211,4.1211,4.1211,4.1211,4.1211,4.1211,4.1211,4.1211,4.1211,4.1811,4.3057,4.4666,4.6248,4.7872,4.9473,5.0412,5.0696,5.0696,5.0139,4.9332,5.0491,5.0105,4.864,4.8333,4.8328,4.8487,4.861,4.8057,4.769,5.0793,5.2216,5.293,5.5135,5.6387,5.6995,5.7052,5.7418,5.7734,5.7734,5.8222,5.8809,5.8887,5.9234,5.9832,6.0914,6.1266,0.0,6.2596,6.2781,6.2781,6.2781,6.2741,6.2659,6.2659,6.2618,6.2536,6.2536,6.2536,6.229,6.1614,6.1506,6.1647,6.2002,6.2043,6.2167,6.2495,6.2536,6.2577,6.2659,6.2659,6.27,6.2781,6.2781,6.2781,6.2781,6.2781,6.2781,6.2781,6.2781,6.2781,6.2781,6.2781,6.2781,6.2781,6.2781,6.2781,6.2781,6.2781,6.2781,6.2781,6.2781,6.2781,6.2781,6.2781,6.2781,6.2781,6.2781,6.2781,6.2781,0.0,3.7585,3.8492,3.895,3.9247,3.9549,3.9935,4.0197,0.0,0.0,0.0,0.0,0.0,0.0,0.0,0.0,0.0,0.0,0.0,4.1211,4.1211,4.1211,4.1211,4.154,4.2311,4.235,4.3096,4.4704,4.6307,4.7521,4.8345,4.9961,5.0246,4.9544,5.0604,5.0339,4.9089,5.0433,5.0835,5.0407,4.8698,4.7661,4.709,4.6483,4.6389,4.6982,4.9848,5.2254,5.4414,5.6032,5.6765,5.6981,5.6981,5.714,5.7299,5.7299,5.7592,5.7986,5.8222,5.8418,5.89,6.0452,6.0846,0.0,0.0,6.2781,6.2781,6.2781,6.2781,6.2781,6.2781,6.2781,6.2781,6.2781,6.2781,6.2659,6.2208,6.2167,6.2249,6.2454,6.2495,6.2577,6.2781,6.2781,6.2781,6.2781,6.2781,6.2781,6.2781,6.2781,6.2781,6.2781,6.2781,6.2781,6.2781,6.2781,6.2781,6.2781,6.2781,6.2781,6.2781,6.2781,6.2781,6.2781,6.2781,6.2781,6.2781,6.2781,6.2781,6.2781,6.2781,6.2781,6.2781,6.2781,6.2781,6.2781,0.0,0.0,3.9848,3.9145,3.9089,3.9304,3.9682,3.958,0.0,0.0,0.0,0.0,0.0,0.0,0.0,0.0,0.0,0.0,4.1211,4.1211,4.1211,4.1211,4.1211,4.1773,4.3019,4.3057,4.3835,4.5431,4.6751,4.7667,4.8345,4.9734,4.9865,4.8964,5.048,5.0472,4.9448,5.0176,5.1007,5.1577,4.914,4.7666,4.6651,4.4634,4.4954,4.6825,4.9052,5.2668,5.6404,5.6837,5.6981,5.6981,5.6981,5.6981,5.6981,5.6981,5.7061,5.718,5.7512,5.7728,5.8298,5.9959,6.0496,6.1005,0.0,0.0,0.0,6.2781,6.2781,6.2781,6.2781,6.2781,6.2756,6.2656,6.2731,6.2756,6.2656,6.2731,6.2781,6.2781,6.2781,6.2781,6.2781,6.2781,6.2781,6.2781,6.2781,6.2781,6.2781,6.2781,6.2781,6.2781,6.2781,6.2781,6.2781,6.2781,6.2781,6.2781,6.2781,6.2781,6.2781,6.2781,6.2781,6.2781,6.2781,6.2781,6.2781,6.2781,6.2781,6.2781,6.2781,6.2781,6.2781,6.2781,6.2781,6.2781,3.9573,4.0005,0.0,4.2791,4.2042,4.1332,4.1784,4.1003,0.0,0.0,0.0,0.0,0.0,0.0,0.0,0.0,0.0,4.1211,4.1211,4.1211,4.1211,4.1211,4.1211,4.1288,4.1463,4.1463,4.2216,4.376,4.3949,4.5506,4.8308,4.8951,4.9949,5.1094,5.0266,5.0074,5.0337,5.0452,4.9174,4.7164,4.8277,4.8854,4.8688,4.5506,4.4696,4.5681,4.9481,5.345,5.6909,5.6997,5.6981,5.6981,5.6981,5.6981,5.6981,5.6981,5.7259,5.7537,5.7592,5.8234,5.9106,5.9801,6.0617,6.1396,6.21,0.0,6.2781,6.2781,0.0,6.2781,6.2781,0.0,0.0,6.2169,6.2496,6.2606,6.2169,6.248,6.2781,6.2781,6.2781,6.2781,6.2781,6.2781,6.2781,6.2781,6.2781,6.2781,6.2781,6.2781,6.2781,6.2781,6.2781,6.2781,6.2781,6.2781,6.2781,6.2781,6.2781,6.2781,6.2781,6.2781,6.2781,6.2781,6.2781,6.2781,6.2781,6.2781,6.2781,6.2781,6.2781,6.2781,6.2781,6.2781,6.2781,6.2781,3.8806,4.0039,0.0,4.1131,4.1601,4.1768,4.1269,4.1027,0.0,0.0,0.0,0.0,4.5207,4.2925,4.1811,0.0,4.21,4.1211,4.1211,4.1211,0.0,4.1211,4.1211,4.1618,4.2503,4.2542,4.378,4.6285,4.6285,4.7606,5.0136,5.0408,5.0498,5.0547,5.0293,4.9761,4.9199,5.0436,4.9853,4.8152,4.8873,4.8965,4.8398,4.5515,4.546,4.7306,5.0328,5.3119,5.5587,5.6638,5.6981,5.6981,5.6981,5.6981,5.6981,5.6981,5.7357,5.7718,5.7718,5.8265,5.9001,5.978,6.0237,6.0777,6.1606,6.2125,6.2454,6.2454,0.0,0.0,0.0,0.0,0.0,0.0,6.2631,6.2706,6.2521,6.2631,6.2781,6.2781,6.2781,6.2781,6.2781,6.2781,6.2781,6.2781,6.2781,6.2781,6.2781,6.2781,6.2781,6.2781,6.2781,6.2781,6.2781,6.2781,6.2781,6.2781,6.2781,6.2781,6.2781,6.2781,6.2781,6.2781,6.2781,6.2781,6.2781,6.2781,6.2781,6.2781,6.2781,6.2781,6.2781,6.2781,6.2781,6.2781,3.8496,0.0,0.0,4.0918,4.2035,4.2687,4.1522,4.1266,4.1366,4.1773,4.1463,4.1811,4.3324,4.2139,4.1657,4.2772,4.185,4.1211,4.1211,4.1211,4.1211,4.1211,4.1211,4.1734,4.2848,4.2866,4.4277,4.7172,4.7209,4.8511,5.1006,5.1209,5.108,5.0765,5.0725,5.0093,4.9052,5.0168,4.9868,4.8713,4.8713,4.825,4.7299,4.5565,4.6403,4.8711,5.0377,5.2077,5.3875,5.5668,5.6254,5.6358,5.6861,5.6981,5.6981,5.6981,5.7381,5.7814,5.7814,5.8295,5.8979,5.9653,6.0012,6.0396,6.1135,6.1672,6.2043,6.2167,6.2413,0.0,0.0,0.0,6.2731,6.2581,0.0,6.2731,6.2581,6.2681,6.2781,6.2781,6.2781,6.2781,6.2781,6.2781,6.2781,6.2781,6.2781,6.2781,6.2781,6.2781,6.2781,6.2781,6.2781,6.2781,6.2781,6.2781,6.2781,6.2781,6.2781,6.2781,6.2781,6.2781,6.2781,6.2781,6.2781,6.2781,6.2781,6.2781,6.2781,6.2781,6.2781,6.2781,6.2781,6.2781,6.2781,6.2781,3.9746,4.075,0.0,4.4523,4.4953,4.4648,4.3563,4.2157,4.1734,4.3248,4.2139,4.1811,4.3324,4.2139,4.1211,4.1288,4.1211,4.1211,4.1211,4.1211,4.1211,4.1211,4.1211,4.1211,4.1288,4.1288,4.2281,4.431,4.4387,4.6246,4.9778,5.0434,5.154,5.2941,5.1813,5.1232,5.1116,4.9562,4.8144,4.6968,4.6968,4.6507,4.5789,4.6137,4.7384,4.8976,4.9082,5.0252,5.2057,5.3793,5.4365,5.4714,5.6438,5.6981,5.6981,5.6981,5.7381,5.7814,5.7814,5.856,5.9353,5.9419,6.0096,6.0775,6.0841,6.1174,6.1655,6.2084,6.2208,6.2331,6.2741,6.2781,6.2606,0.0,6.243,0.0,0.0,6.2496,6.2781,6.2781,6.2781,6.2781,6.2781,6.2781,6.2781,6.2781,6.2781,6.2781,6.2781,6.2781,6.2781,6.2781,6.2781,6.2781,6.2781,6.2781,6.2781,6.2781,6.2781,6.2781,6.2781,6.2781,6.2781,6.2781,6.2781,6.2781,6.2781,6.2781,6.2781,6.2781,6.2781,6.2781,6.2781,6.2781,6.2781,6.2781,4.0234,0.0,4.1081,4.189,4.3156,4.3593,4.2196,4.154,4.1405,4.1907,4.1502,4.1405,4.1907,4.1502,4.1211,4.1211,4.1211,4.1211,4.1211,4.1211,4.1211,4.1211,4.1211,4.1308,4.1582,4.1582,4.2583,4.4592,4.4631,4.5969,4.8586,4.9935,5.1047,5.1851,5.0313,4.9641,4.9545,4.8147,4.6804,4.569,4.6268,4.6319,4.6113,4.625,4.6682,4.7358,4.8568,4.936,5.0379,5.33,5.4283,5.4632,5.6438,5.6981,5.7053,5.743,5.7911,5.8416,5.8752,5.9378,5.9948,5.9948,6.0177,6.0423,6.0423,6.0716,6.1091,6.1257,6.1506,6.1878,6.2331,6.2413,6.2445,0.0,6.2656,6.2731,0.0,6.2681,6.2781,6.2781,6.2781,6.2781,6.2781,6.2781,6.2781,6.2781,6.2781,6.2781,6.2781,6.2781,6.2781,6.2781,6.2781,6.2781,6.2781,6.2781,6.2781,6.2781,6.2781,6.2781,6.2781,6.2781,6.2781,6.2781,6.2781,6.2781,6.2781,6.2781,6.2781,6.2781,6.2781,6.2781,6.2781,6.2781,6.2781,6.2781,4.2319,4.2401,4.2079,4.0934,4.1824,4.2542,4.21,4.154,4.1211,4.1211,4.1211,4.1211,4.1211,4.1211,4.1211,4.1211,4.1211,4.1211,4.1211,4.1211,4.1211,4.1211,4.1348,4.1523,4.1797,4.1953,4.2724,4.4217,4.4791,4.5867,4.7415,4.9096,5.0088,5.0342,4.9288,4.8547,4.8043,4.723,4.6283,4.5312,4.6016,4.6308,4.6308,4.6308,4.6308,4.6464,4.7598,4.803,4.8482,5.1409,5.2823,5.367,5.5466,5.6597,5.7357,5.7718,5.8319,5.8945,5.9305,5.9762,6.0213,6.0213,6.0213,6.0213,6.0213,6.0423,6.0632,6.0799,6.1049,6.1382,6.1878,6.2084,6.229,0.0,6.27,6.2781,0.0,6.2781,6.2781,6.2781,6.2781,6.2781,6.2781,6.2781,6.2781,6.2781,6.2781,6.2781,6.2781,6.2781,6.2781,6.2781,6.2781,6.2781,6.2781,6.2781,6.2781,6.2781,6.2781,6.2781,6.2781,6.2781,6.2781,6.2781,6.2781,6.2781,6.2781,6.2781,6.2781,6.2781,6.2781,6.2781,6.2781,6.2781,6.2781,6.2781,4.5568,4.5676,4.4741,4.1734,4.1211,4.1695,4.3172,4.2139,4.1211,4.1211,4.1211,4.1211,4.1211,4.1211,4.1211,4.1211,4.1211,4.1211,4.1211,4.123,4.125,4.125,4.1601,4.1836,4.1855,4.2266,4.2676,4.3146,4.4743,4.575,4.6224,4.7865,4.8697,4.8697,4.8798,4.8104,4.6927,4.6968,4.6506,4.5742,4.6152,4.6308,4.6308,4.6308,4.6308,4.6308,4.6308,4.6352,4.6682,4.8397,5.0252,5.214,5.3815,5.5922,5.7814,5.7862,5.8608,5.9402,5.9426,5.9828,6.0213,6.0213,6.0213,6.0213,6.0213,6.0213,6.0297,6.0716,6.0799,6.09,6.1399,6.1837,6.2125,6.2167,6.2536,6.2781,6.2781,6.2781,6.2781,6.2781,6.2781,6.2781,6.2781,6.2781,6.2781,6.2781,6.2781,6.2781,6.2781,6.2781,6.2781,6.2781,6.2781,6.2781,6.2781,6.2781,6.2781,6.2781,6.2781,6.2781,6.2781,6.2781,6.2781,6.2781,6.2781,6.2781,6.2781,6.2781,6.2781,6.2781,6.2781,6.2781,6.2781,6.2781,6.2781,6.2781,4.2388,4.2408,4.2139,4.1327,4.1211,4.1327,4.1734,4.1463,4.1211,4.1211,4.1211,4.1211,4.1211,4.1211,4.1211,4.1211,4.1211,4.1211,4.1211,4.1465,4.1641,4.1641,4.2031,4.2422,4.2734,4.2851,4.3125,4.3555,4.3967,4.4231,4.4432,4.6143,4.6928,4.7029,4.867,4.8466,4.6968,4.7651,4.7255,4.6152,4.625,4.6308,4.6308,4.6308,4.6308,4.6308,4.6308,4.7141,4.8354,4.8826,5.1073,5.3779,5.4637,5.6244,5.7959,5.8752,5.9161,5.9474,5.99,6.0117,6.0213,6.0213,6.0213,6.0213,6.0213,6.0213,6.0213,6.0339,6.0339,6.0507,6.09,6.1091,6.1382,6.2084,6.2536,6.2781,6.2781,6.2781,6.2781,6.2781,6.2781,6.2781,6.2781,6.2781,6.2781,6.2781,6.2781,6.2781,6.2781,6.2781,6.2781,6.2781,6.2781,6.2781,6.2781,6.2781,6.2781,6.2781,6.2781,6.2781,6.2781,6.2781,6.2781,6.2781,6.2781,6.2781,6.2781,6.2781,6.2781,6.2781,6.2781,6.2781,6.2781,6.2781,6.2781,6.2781,4.3248,4.2695,4.2216,4.2216,4.1657,4.1211,4.1211,4.1211,4.1211,4.1211,4.1211,4.1211,4.1211,4.1211,4.1211,4.1211,4.1387,4.1445,4.1445,4.1836,4.207,4.207,4.248,4.2832,4.3066,4.3262,4.3457,4.3711,4.3711,4.3711,4.3711,4.4699,4.5169,4.525,4.67,4.6845,4.6116,4.7067,4.7008,4.6308,4.6308,4.6308,0.0,4.6308,4.6308,4.6308,4.6308,4.6924,4.7814,4.7814,4.9784,5.2429,5.3555,5.5463,5.7532,5.9002,5.9546,5.9828,6.0141,6.0213,6.0213,6.0213,6.0213,6.0213,6.0213,6.0213,6.0213,6.0213,6.0213,6.0255,6.0507,6.0674,6.1133,6.2043,6.2372,6.2577,6.2781,6.2781,6.2781,6.2781,6.2781,6.2781,6.2781,6.2781,6.2781,6.2781,6.2781,6.2781,6.2781,6.2781,6.2781,6.2781,6.2781,6.2781,6.2781,6.2781,6.2781,6.2781,6.2781,6.2781,6.2781,6.2781,6.2781,6.2781,6.2781,6.2781,6.2781,6.2781,6.2781,6.2781,6.2781,6.2781,6.2781,6.2781,6.2781,6.2781,4.5303,4.4176,4.321,4.321,4.21,4.1211,4.1211,4.1211,4.1211,4.1211,4.1211,4.1211,4.1211,4.1269,4.1289,4.1289,4.1641,4.1875,4.1875,4.2266,4.25,4.25,4.293,4.3205,4.3205,4.3516,4.3711,4.3711,4.3711,4.3711,4.3711,4.3711,4.373,4.3808,4.4508,4.5064,4.5576,4.6063,4.6308,4.6308,4.6308,4.6308,4.6308,4.6308,4.6308,4.6308,4.6308,4.6464,4.6658,4.6455,4.7983,5.0264,5.2044,5.4427,5.696,5.895,5.981,6.0213,6.0213,6.0213,6.0213,6.0213,6.0213,6.0213,6.0213,6.0213,6.0213,6.0213,6.0213,6.0213,6.0213,6.0548,6.1091,6.1878,6.2125,6.2331,6.2659,6.2781,6.2781,6.2781,6.2781,0.0,6.2781,6.2781,6.2781,6.2781,6.2781,6.2781,6.2781,6.2781,6.2781,6.2781,6.2781,6.2781,6.2781,6.2781,6.2781,6.2781,6.2781,6.2781,6.2781,6.2781,6.2781,6.2781,6.2781,6.2781,6.2781,6.2781,6.2781,6.2781,6.2781,6.2781,6.2781,6.2781,6.2781,6.2822,4.2023,4.1811,4.1618,4.1618,4.1366,4.1211,4.1211,4.1211,4.1211,4.1211,4.1211,4.1211,4.1211,4.1484,4.1699,4.1699,4.207,4.2284,4.2284,4.2715,4.2969,4.2969,4.3359,4.3594,4.3594,4.3672,4.3711,4.3711,4.3711,4.3711,4.3711,4.3711,4.3906,4.438,4.6262,4.7563,4.8214,4.6864,4.6308,4.6308,4.6308,4.6308,4.6308,4.6308,4.6308,4.6308,4.6308,4.7271,4.8329,4.7164,4.9033,5.2044,5.3255,5.5007,5.7071,5.938,6.0141,6.0213,6.0213,6.0213,6.0213,6.0213,6.0213,6.0213,6.0213,6.0213,6.0213,6.0213,6.0213,6.0213,6.0213,6.0548,6.0841,6.1008,6.1672,6.2208,6.229,6.2577,6.2781,6.2781,6.2781,6.2781,6.2781,6.2781,6.2781,6.2781,6.2781,6.2781,6.2781,6.2781,6.2781,6.2781,6.2781,6.2781,6.2781,6.2781,6.2781,6.2781,6.2781,6.2781,6.2781,6.2781,6.2781,6.2781,6.2781,6.2781,6.2781,6.2781,6.2781,6.2781,6.2781,6.2781,6.2781,6.2781,6.2781,6.2985,4.1211,4.1211,4.1211,4.1211,4.1211,4.1211,4.1211,4.1211,4.1211,4.1211,4.1211,4.1289,4.1484,4.168,4.1894,4.2109,4.2519,4.2754,4.2754,4.3164,4.3398,4.3398,4.3594,4.3711,4.3711,4.3711,4.3711,4.3711,4.3711,4.3711,4.3711,4.3945,4.418,4.4475,4.5972,4.6995,4.7511,4.6682,4.6308,4.6308,4.6308,4.6308,4.6308,4.6308,4.6308,4.6308,4.6308,4.6995,4.7805,4.7121,4.8226,5.0179,5.188,5.3844,5.5935,5.81,5.9431,6.0213,6.0213,6.0213,6.0213,6.0213,6.0213,6.0213,6.0213,6.0213,6.0213,6.0213,6.0213,6.0213,6.0213,6.0339,6.0548,6.0757,6.1174,6.1548,6.1796,6.2208,6.2495,6.2495,6.2659,6.2781,6.2781,6.2781,6.2781,6.2781,6.2781,6.2781,6.2781,6.2781,6.2781,6.2781,6.2781,6.2781,6.2781,6.2781,6.2781,6.2781,6.2781,6.2781,6.2781,6.2781,6.2781,6.2781,6.2781,6.2781,6.2781,6.2781,6.2781,6.2781,6.2781,6.2781,6.2781,6.2781,6.2781,6.3067,4.1211,4.1211,4.1211,4.1211,4.1211,4.1211,4.1211,4.1211,4.1211,4.1211,4.125,4.1426,4.1758,4.1973,4.2207,4.2539,4.2969,4.3203,4.3203,4.3516,4.3711,4.3711,4.3711,4.3711,4.3711,4.3711,4.3711,4.3711,4.3711,4.375,4.3867,4.4219,4.4492,4.4707,4.5469,4.5996,4.6308,4.6308,4.6308,4.6308,4.6308,4.6308,4.6308,4.6308,4.6308,4.6308,4.6308,4.6562,4.6889,4.7031,4.7344,4.8134,5.049,5.2449,5.4279,5.6228,5.7827,5.9068,5.9515,5.96,5.9684,6.0087,6.0213,6.0213,6.0213,6.0213,6.0213,6.0213,6.0213,6.0213,6.0213,6.0213,6.0297,6.0632,6.0757,6.0924,6.1299,6.1754,6.2084,6.2167,6.2454,6.27,6.2781,6.2781,6.2781,6.2781,6.2781,6.2781,6.2781,6.2781,6.2781,6.2781,6.2781,6.2781,6.2781,6.2781,6.2781,6.2781,6.2781,6.2781,6.2781,6.2781,6.2781,6.2781,6.2781,6.2781,6.2781,6.2781,6.2781,6.2781,6.2781,6.2781,6.2781,6.2781,6.3026,6.3569,4.1211,4.1211,4.1211,4.1211,4.1211,4.1211,4.1211,4.1211,4.1211,4.1211,4.1504,4.1758,4.1797,4.25,4.2969,4.3008,4.3398,4.3652,4.3652,4.3691,4.3711,4.3711,4.3711,4.3711,4.3711,4.3711,4.3711,4.3711,4.3711,4.3926,4.4336,4.4375,4.4805,4.5629,4.6035,4.6269,4.6308,4.6308,4.6308,4.6308,4.6308,4.6308,4.6308,4.6308,4.6308,4.6308,4.6308,4.6562,4.6948,4.7383,4.7793,4.8567,5.0916,5.1781,5.2342,5.4235,5.4895,5.5421,5.716,5.7656,5.8042,5.9768,6.0213,6.0213,6.0213,6.0213,6.0213,6.0213,6.0213,6.0213,6.0213,6.0213,6.0213,6.0255,6.0548,6.0841,6.0883,6.1257,6.1738,6.2125,6.2208,6.2413,6.2741,6.2781,6.2781,6.2781,6.2781,6.2781,6.2781,6.2781,6.2781,6.2781,6.2781,6.2781,6.2781,6.2781,6.2781,6.2781,6.2781,6.2781,6.2781,6.2781,6.2781,6.2781,6.2781,6.2781,6.2781,6.2781,6.2781,6.2781,6.2781,6.2781,6.2781,6.2781,6.3746,6.5292,4.1211,4.1211,4.1211,4.1211,4.1211,4.1211,4.1211,4.1211,4.1308,4.1523,4.1699,4.1992,4.25,4.2871,4.3183,4.3437,4.3613,4.3711,4.3711,4.3711,4.3711,4.3711,4.3711,4.3711,4.3711,4.3711,4.3711,4.3711,4.3711,4.3945,4.4414,4.4648,4.5234,4.6055,4.623,4.6308,4.6308,4.6308,4.6308,4.6308,4.6308,4.6308,4.6308,4.6308,4.6308,4.6308,4.6308,4.6738,4.7344,4.7519,4.7851,4.8418,4.9654,5.0803,5.1868,5.2611,5.3615,5.4895,5.6857,5.7398,5.7827,5.9726,6.0213,6.0213,6.0213,6.0213,6.0213,6.0213,6.0213,6.0213,6.0213,6.0213,6.0213,6.0213,6.0339,6.0423,6.0423,6.0799,6.1257,6.173,6.2043,6.2372,6.2741,6.2781,6.2781,6.2781,6.2781,6.2781,6.2781,6.2781,6.2781,6.2781,6.2781,6.2781,6.2781,6.2781,6.2781,6.2781,6.2781,6.2781,6.2781,6.2781,6.2781,6.2781,6.2781,6.2781,6.2781,6.2781,6.2781,6.2781,6.2781,6.2781,6.2781,6.2781,6.3867,6.5503,4.1211,4.1211,4.1211,4.1211,4.1211,4.1211,4.1211,4.1308,4.1504,4.1933,4.209,4.2402,4.3008,4.3224,4.3379,4.3672,4.3711,4.3711,4.3711,4.3711,4.3711,4.3711,4.3711,4.3711,4.3711,4.3711,4.3769,4.3906,4.3906,4.4199,4.4785,4.5195,4.5723,4.6308,4.6308,4.6308,4.6308,4.6308,4.6308,4.6308,4.6308,4.6308,4.6308,4.6308,4.6308,4.6308,4.6308,4.6855,4.7578,4.7578,4.7949,4.8457,4.8815,4.9839,5.0894,5.0894,5.1823,5.328,5.5224,5.6141,5.6987,5.8875,5.9768,6.0213,6.0213,6.0213,6.0213,6.0213,6.0213,6.0213,6.0213,6.0213,6.0213,6.0213,6.0213,6.0213,6.0213,6.0423,6.0799,6.1233,6.1589,6.1961,6.2372,6.2536,6.2618,6.2618,6.2741,6.2781,6.2781,6.2781,6.2781,6.2781,6.2781,6.2781,6.2781,6.2781,6.2781,6.2781,6.2781,6.2781,6.2781,6.2781,6.2781,6.2781,6.2781,6.2781,6.2781,6.2781,6.2781,6.2781,6.2781,6.2781,6.2781,6.2781,6.3867,6.5503,4.1211,4.1211,4.1211,4.1211,4.1211,4.1211,4.1211,4.1523,4.1953,4.2323,4.2793,4.3107,4.3127,4.3437,4.3691,4.3711,4.3711,4.3711,4.3711,4.3711,4.3711,4.3711,4.3711,4.3711,4.3711,4.3711,4.3926,4.4394,4.4394,4.4824,4.5664,4.6094,4.6289,4.6308,4.6308,4.6308,4.6308,4.6308,4.6308,4.6308,4.6308,4.6308,4.6308,4.6308,4.6308,4.6308,4.6308,4.6855,4.7578,4.7578,4.819,4.8894,4.8913,4.8913,4.894,4.894,4.894,4.94,5.1236,5.3147,5.4983,5.6878,5.879,6.0213,6.0213,6.0213,6.0213,6.0213,6.0213,6.0213,6.0213,6.0213,6.0213,6.0213,6.0213,6.0213,6.0213,6.0213,6.0339,6.0757,6.0841,6.1008,6.1489,6.1944,6.2208,6.2208,6.2577,6.2781,6.2781,6.2781,6.2781,6.2781,6.2781,6.2781,6.2781,6.2781,6.2781,6.2781,6.2781,6.2781,6.2781,6.2781,6.2781,6.2781,6.2781,6.2781,6.2781,6.2781,6.2781,6.2781,6.2781,6.2781,6.2781,6.2781,6.3867,6.5503,4.1211,4.1211,4.1211,4.1211,4.1211,4.1211,4.1211,4.1523,4.1953,4.2323,4.2812,4.3183,4.3476,4.3633,4.3711,4.3711,4.3711,4.3711,4.3711,4.3711,4.3711,4.3711,4.3711,4.3711,4.3711,4.4023,4.4258,4.4394,4.4687,4.5117,4.5727,4.6113,4.6308,4.6308,4.6308,4.6308,4.6308,4.6308,4.6308,4.6308,4.6308,4.6308,4.6308,4.6308,4.6308,4.6308,4.6308,4.6855,4.7578,4.7578,4.819,4.8913,4.8913,4.8913,4.8913,4.8913,4.8913,4.9308,5.1211,5.2117,5.3369,5.6598,5.7827,5.862,5.9919,6.0213,6.0213,6.0213,6.0213,6.0213,6.0213,6.0213,6.0213,6.0213,6.0213,6.0213,6.0213,6.0213,6.0339,6.0757,6.0799,6.0966,6.1448,6.163,6.1878,6.2167,6.2331,6.2495,6.2781,6.2781,6.2781,6.2781,6.2781,6.2781,6.2781,6.2781,6.2781,6.2781,6.2781,6.2781,6.2781,6.2781,6.2781,6.2781,6.2781,6.2781,6.2781,6.2781,6.2781,6.2781,6.2781,6.2781,6.2781,6.2781,6.4537,6.701,4.1211,4.1211,4.1211,4.1211,4.1211,4.1269,4.1387,4.1758,4.2187,4.2617,4.3047,4.3418,4.3672,4.3711,4.3711,4.3711,4.3711,4.3711,4.3711,4.3711,4.3711,4.3711,4.3711,4.3789,4.3965,4.4258,4.4551,4.4883,4.5293,4.5644,4.5918,4.6172,4.6308,4.6308,4.6308,4.6308,4.6308,4.6308,4.6308,4.6308,4.6308,4.6308,4.6308,4.6308,4.6308,4.6308,4.6308,4.6855,4.7578,4.7578,4.819,4.8913,4.8913,4.8913,4.8913,4.8913,4.8913,4.917,5.0322,5.1145,5.2431,5.5531,5.6857,5.787,5.9768,6.0213,6.0213,6.0213,6.0213,6.0213,6.0213,6.0213,6.0213,6.0213,6.0213,6.0213,6.0213,6.0213,6.0297,6.0548,6.059,6.0674,6.0966,6.1174,6.1357,6.1672,6.1837,6.2125,6.2536,6.27,6.2781,6.2781,6.2781,6.2781,6.2781,6.2781,6.2781,6.2781,6.2781,6.2781,6.2781,6.2781,6.2781,6.2781,6.2781,6.2781,6.2781,6.2781,6.2781,6.2781,6.2781,6.2781,6.2781,6.2781,6.4523,6.6921,4.1211,4.1211,4.1211,4.1211,4.1211,4.1348,4.1738,4.2148,4.2578,4.3068,4.3437,4.3711,4.3711,4.3711,4.3711,4.3711,4.3711,4.3711,4.3711,4.3711,4.3711,4.3711,4.373,4.3945,4.4394,4.4453,4.4883,4.5723,4.6113,4.6308,4.6308,4.6308,4.6308,4.6308,4.6308,4.6308,4.6308,4.6308,4.6308,4.6308,4.6308,4.6308,4.6308,4.6308,4.6308,4.6308,4.6308,4.6836,4.7539,4.7578,4.817,4.8855,4.8894,4.8913,4.8913,4.8913,4.8913,4.8913,4.8913,5.0185,5.1958,5.3836,5.588,5.787,5.9768,6.0213,6.0213,6.0213,6.0213,6.0213,6.0213,6.0213,6.0213,6.0213,6.0213,6.0213,6.0213,6.0213,6.0213,6.0213,6.0213,6.0213,6.0213,6.0548,6.0757,6.0799,6.1216,6.1655,6.2125,6.2495,6.2741,6.2781,6.2781,6.2781,6.2781,6.2781,6.2781,6.2781,6.2781,6.2781,6.2781,6.2781,6.2781,6.2781,6.2781,6.2781,6.2781,6.2781,6.2781,6.2781,6.2781,6.2781,6.2781,6.2781,6.3947,6.5661,4.1211,4.1211,4.1211,4.1211,4.1211,4.1348,4.1738,4.2148,4.2578,4.3068,4.3437,4.3711,4.3711,4.3711,4.3711,4.3711,4.3711,4.3711,4.3711,4.3711,4.3711,4.3711,4.4043,4.4297,4.4394,4.5039,4.5625,4.6152,4.625,4.6308,4.6308,4.6308,4.6308,4.6308,4.6308,4.6308,4.6308,4.6308,4.6308,4.6308,4.6308,4.6308,4.6308,4.6308,4.6308,4.6308,4.6308,4.6641,4.7129,4.7461,4.793,4.8418,4.8796,4.8913,4.8913,4.8913,4.8913,4.8913,4.8913,4.9216,5.0002,5.1913,5.4917,5.787,5.9768,6.0213,6.0213,6.0213,6.0213,6.0213,6.0213,6.0213,6.0213,6.0213,6.0213,6.0213,6.0213,6.0213,6.0213,6.0213,6.0213,6.0213,6.0213,6.0297,6.0465,6.0799,6.0924,6.1174,6.1655,6.1779,6.2084,6.2781,6.2781,6.2781,6.2781,6.2781,6.2781,6.2781,6.2781,6.2781,6.2781,6.2781,6.2781,6.2781,6.2781,6.2781,6.2781,6.2781,6.2781,6.2781,6.2781,6.2781,6.2781,6.2781,6.4657,6.7111,4.1211,4.1211,4.1211,4.1211,4.1211,4.1426,4.1992,4.2285,4.2616,4.3281,4.3555,4.3711,4.3711,4.3711,4.3711,4.3711,4.3711,4.3711,4.3711,4.3711,4.3789,4.4004,4.4258,4.459,4.498,4.543,4.5879,4.6308,4.6308,4.6308,4.6308,4.6308,4.6308,4.6308,4.6308,4.6308,4.6308,4.6308,4.6308,4.6308,4.6308,4.6308,4.6308,4.6308,4.6308,4.6308,4.6308,4.6562,4.6928,4.7207,4.7695,4.8242,4.8476,4.8737,4.8913,4.8913,4.8913,4.8913,4.8913,4.8913,4.9335,5.1236,5.4565,5.7656,5.8686,5.96,6.0213,6.0213,6.0213,6.0213,6.0213,6.0213,6.0213,6.0213,6.0213,6.0213,6.0213,6.0213,6.0213,6.0213,6.0213,6.0213,6.0213,6.0213,6.0297,6.0507,6.0548,6.0716,6.1133,6.1174,6.1589,6.2495,6.2536,6.2618,6.2781,6.2781,6.2781,6.2781,6.2781,6.2781,6.2781,6.2781,6.2781,6.2781,6.2781,6.2781,6.2781,6.2781,6.2781,6.2781,6.2781,6.2781,6.2756,6.2505,6.4506,6.7203,4.1211,4.1211,4.1211,4.1211,4.1211,4.1465,4.2305,4.2382,4.2694,4.3594,4.3711,4.3711,4.3711,4.3711,4.3711,4.3711,4.3711,4.3711,4.3711,4.3711,4.3906,4.4375,4.4453,4.4863,4.5707,4.5742,4.5937,4.6308,4.6308,4.6308,4.6308,4.6308,4.6308,4.6308,4.6308,4.6308,4.6308,4.6308,4.6308,4.6308,4.6308,4.6308,4.6308,4.6308,4.6308,4.6308,4.6308,4.6523,4.6792,4.687,4.7402,4.8027,4.8086,4.8359,4.8718,4.8718,4.8718,4.8737,4.8874,4.8913,4.9335,5.1236,5.4345,5.703,5.7355,5.8856,6.0213,6.0213,6.0213,6.0213,6.0213,6.0213,6.0189,6.0075,6.0165,6.0189,6.0117,6.0165,6.0213,6.0213,6.0213,6.0213,6.0213,6.0213,6.0213,6.0213,6.0213,6.0339,6.0716,6.0716,6.1091,6.1961,6.2043,6.229,6.27,6.2781,6.2781,6.2781,6.2781,6.2781,6.2781,6.2781,6.2781,6.2781,6.2781,6.2781,6.2781,6.2781,6.2781,6.2781,6.2706,6.2656,6.2606,6.2094,6.3935,6.6606,4.1211,4.1211,4.1211,4.1211,4.1211,4.1465,4.2305,4.2382,4.2694,4.3594,4.3711,4.3711,4.3711,4.3711,4.3711,4.3711,4.3711,4.3711,4.3711,4.3711,4.3906,4.4375,4.4746,4.5156,4.5707,4.6016,4.623,4.6308,4.6308,4.6308,4.6308,4.6308,4.6308,4.6308,4.6308,4.6308,4.6308,4.6308,4.6308,4.6308,4.6308,4.6308,4.6308,4.6308,4.6308,4.6308,4.6308,4.6348,4.6465,4.6816,4.6967,4.7187,4.7558,4.7715,4.7773,4.7773,4.7773,4.7975,4.8698,4.8913,4.9335,5.1236,5.3348,5.5377,5.703,5.8856,6.0213,6.0213,6.0213,6.0213,6.0213,6.0213,6.0069,5.9594,5.9883,6.0069,5.957,5.9883,6.0213,6.0213,6.0213,6.0213,6.0213,6.0213,6.0213,6.0213,6.0213,6.0213,6.0297,6.0297,6.0507,6.1008,6.1382,6.182,6.229,6.2618,6.2781,6.2781,6.2781,6.2781,6.2781,6.2781,6.2781,6.2781,6.2781,6.2781,6.2781,6.2781,6.2781,6.2731,6.232,6.2144,6.2069,6.1517,6.3376,6.602,4.1211,4.1211,4.1211,4.1211,4.1211,4.1465,4.2305,4.2382,4.2694,4.3594,4.3711,4.3711,4.3711,4.3711,4.3711,4.3711,4.3711,4.3711,4.3711,4.3945,4.4277,4.4707,4.5156,4.5586,4.5996,4.6211,4.6308,4.6308,4.6308,4.6308,4.6308,4.6308,4.6308,4.6308,4.6308,4.6308,4.6308,4.6308,4.6308,4.6308,4.6308,4.6308,4.6308,4.6308,4.6308,4.6308,4.6308,4.6308,4.6328,4.6523,4.6738,4.6928,4.7168,4.7383,4.7578,4.7578,4.7578,4.7676,4.8112,4.8209,4.8644,5.0493,5.2358,5.4212,5.6103,5.7966,5.9329,5.9329,5.9329,5.9329,5.9329,5.9329,5.9329,5.9378,5.9594,5.9762,5.9852,6.0069,6.0213,6.0213,6.0213,6.0213,6.0213,6.0213,6.0213,6.0213,6.0213,6.0213,6.0213,6.0213,6.0297,6.0465,6.1133,6.1614,6.1796,6.2027,6.2084,6.2084,6.2372,6.2454,6.2495,6.27,6.2781,6.2781,6.2781,6.2781,6.2756,6.2496,6.2395,6.232,6.1768,6.1567,6.1492,6.0939,6.2714,6.5395,4.1211,4.1211,4.1211,4.1211,4.1211,4.1465,4.2305,4.2382,4.2694,4.3594,4.3711,4.3711,4.3711,4.3711,4.3711,4.3711,4.3711,4.3711,4.3711,4.4238,4.4687,4.4977,4.5527,4.5976,4.6289,4.6308,4.6308,4.6308,4.6308,4.6308,4.6308,4.6308,4.6308,4.6308,4.6308,4.6308,4.6308,4.6308,4.6308,4.6308,4.6308,4.6308,4.6308,4.6308,4.6308,4.6308,4.6308,4.6308,4.6308,4.6308,4.6523,4.6777,4.6777,4.7012,4.7285,4.7285,4.7285,4.7324,4.7519,4.7578,4.8007,4.9878,5.1719,5.3551,5.5377,5.7261,5.8608,5.8608,5.8608,5.8608,5.8608,5.8608,5.868,5.8969,5.9233,5.9498,5.9804,6.0069,6.0213,6.0213,6.0213,6.0213,6.0213,6.0213,6.0213,6.0213,6.0213,6.0213,6.0213,6.0213,6.0213,6.0213,6.0924,6.1365,6.1365,6.1572,6.1614,6.1531,6.2043,6.229,6.2208,6.2618,6.2706,6.2606,6.2606,6.2531,6.2421,6.1994,6.1818,6.1768,6.119,6.0989,6.0914,6.0337,6.1849,6.4257,4.1211,4.1211,4.1211,4.1211,4.1211,4.1465,4.2305,4.2382,4.2694,4.3594,4.3711,4.3711,4.3711,4.3711,4.3711,4.3711,4.3711,4.3711,4.3711,4.4512,4.4957,4.4977,4.582,4.6269,4.6308,4.6308,4.6308,4.6308,4.6308,4.6308,4.6308,4.6308,4.6308,4.6308,4.6308,4.6308,4.6308,4.6308,4.6308,4.6308,4.6308,4.6308,4.6308,4.6308,4.6308,4.6308,4.6308,4.6308,4.6308,4.6308,4.6328,4.6348,4.6348,4.6367,4.6406,4.6406,4.6406,4.6562,4.7363,4.7578,4.8007,4.9878,5.1719,5.3551,5.5377,5.7261,5.8608,5.8608,5.8608,5.8608,5.8608,5.8608,5.844,5.8007,5.8752,5.9233,5.8776,5.9546,6.0213,6.0213,6.0213,6.0213,6.0213,6.0213,6.0213,6.0213,6.0213,6.0213,6.0213,6.0213,6.0213,6.0213,6.0632,6.0841,6.0841,6.1713,6.1919,6.1531,6.2331,6.2536,6.2208,6.2618,6.2546,6.2069,6.2069,6.1768,6.1291,6.1305,6.124,6.119,6.0613,6.0387,6.0311,5.9759,6.0622,6.2242,4.1211,4.1211,4.1211,4.1211,4.1211,4.1465,4.2305,4.2382,4.2694,4.3594,4.3711,4.3711,4.3711,4.3711,4.3711,4.3711,4.3711,4.3711,4.3711,4.4531,4.5211,4.5801,4.6133,4.6308,4.6308,4.6308,4.6308,4.6308,4.6308,4.6308,4.6308,4.6308,4.6308,4.6308,4.6308,4.6308,4.6308,4.6308,4.6308,4.6308,4.6308,4.6308,4.6308,4.6308,4.6308,4.6308,4.6308,4.6308,4.6308,4.6308,4.6308,4.6308,4.6308,4.6308,4.6308,4.6308,4.6308,4.6367,4.6699,4.6797,4.7507,5.044,5.1698,5.2985,5.5888,5.7114,5.7622,5.7622,5.7622,5.7622,5.7622,5.7622,5.767,5.779,5.8416,5.8945,5.9065,5.9714,6.0213,6.0213,6.0213,6.0213,6.0213,6.0213,6.0213,6.0213,6.0213,6.0213,6.0213,6.0213,6.0069,5.969,5.9857,6.0085,6.0423,6.0799,6.1008,6.1091,6.1368,6.1547,6.162,6.1742,6.1692,6.1492,6.1492,6.1391,6.1165,6.0788,6.0638,6.0588,6.0035,5.9809,5.9784,5.9583,6.0495,6.2003,4.1211,4.1211,4.1211,4.1211,4.1211,4.1465,4.2305,4.2382,4.2694,4.3594,4.3711,4.3711,4.3711,4.3711,4.3711,4.3711,4.3711,4.3711,4.3711,4.4531,4.541,4.6269,4.6308,4.6308,4.6308,4.6308,4.6308,4.6308,4.6308,4.6308,4.6308,4.6308,4.6308,4.6308,4.6308,4.6308,4.6308,4.6308,4.6308,4.6308,4.6308,4.6308,4.6308,4.6308,4.6308,4.6308,4.6308,4.6308,4.6308,4.6308,4.6308,4.6308,4.6308,4.6308,4.6308,4.6308,4.6308,4.6308,4.6308,4.6308,4.7184,5.0801,5.1263,5.1932,5.6053,5.6558,5.6318,5.6901,5.6981,5.6981,5.6981,5.6981,5.7141,5.7502,5.8007,5.8488,5.8848,5.9353,5.969,5.969,5.969,5.969,5.969,5.969,5.969,5.969,5.969,5.969,5.969,5.969,5.9522,5.9161,5.9137,5.9305,5.9666,5.9981,6.0106,6.0123,6.0621,6.0855,6.0871,6.1101,6.109,6.0914,6.0914,6.0814,6.0613,6.0236,6.006,6.001,5.9633,5.9483,5.9483,5.9483,6.015,6.1391,4.1211,4.1211,4.1211,4.1211,4.1211,4.1465,4.2305,4.2382,4.2694,4.3594,4.3711,4.3711,4.3711,4.3711,4.3711,4.3711,4.3711,4.3711,4.3711,4.4531,4.541,4.6269,4.6308,4.6308,4.6308,4.6308,4.6308,4.6308,4.6308,4.6308,4.6308,4.6308,4.6308,4.6308,4.6308,4.6308,4.6308,4.6308,4.6308,4.6308,4.6308,4.6308,4.6308,4.6308,4.6308,4.6308,4.6308,4.6308,4.6308,4.6308,4.6308,4.6308,4.6308,4.6308,4.6308,4.6308,4.6308,4.6308,4.6308,4.6308,4.7184,5.0801,5.0336,5.0421,5.5772,5.5587,5.4795,5.6638,5.6981,5.6981,5.6981,5.6981,5.6981,5.6981,5.7454,5.7814,5.7814,5.8271,5.8608,5.8608,5.8608,5.8608,5.8608,5.8608,5.8608,5.8608,5.8608,5.8608,5.8608,5.8608,5.8608,5.8584,5.8584,5.8584,5.8584,5.9463,5.9463,5.8649,6.0366,6.0727,5.9949,6.0767,6.0864,6.0311,6.0311,6.001,5.9483,5.9483,5.9483,5.9483,5.9483,5.9483,5.9483,5.9483,5.9483,5.9946,4.1211,4.1211,4.1211,4.1211,4.1211,4.1465,4.2305,4.2382,4.2694,4.3594,4.3711,4.3711,4.3711,4.3711,4.3711,4.3711,4.3711,4.3965,4.459,4.4883,4.541,4.6269,4.6308,4.6308,4.6308,4.6308,4.6308,4.6308,4.6308,4.6308,4.6308,4.6308,4.6308,4.6308,4.6308,4.6308,4.6308,4.6308,4.6308,4.6308,4.6308,4.6308,4.6308,4.6308,4.6308,4.6308,4.6308,4.6308,4.6308,4.6308,4.6308,4.6308,4.6308,4.6308,4.6308,4.6308,4.6308,4.6308,4.6308,4.6308,4.6836,4.921,4.9403,5.0083,5.4161,5.4714,5.4795,5.6638,5.6981,5.6981,5.6981,5.6981,5.6981,5.6981,5.7454,5.7814,5.7814,5.8271,5.8608,5.8608,5.8608,5.8608,5.8608,5.8608,5.8608,5.8608,5.8608,5.8608,5.8608,5.8608,5.8416,5.8055,5.8055,5.7862,5.7502,5.8467,5.9016,5.9098,5.9515,5.9742,5.9772,5.9951,5.991,5.9734,5.9734,5.9633,5.9483,5.9483,5.9483,5.9483,5.9483,5.9483,5.9483,5.9483,5.9483,5.9741,4.1211,4.1211,4.1211,4.1211,4.1211,4.1465,4.2305,4.2382,4.2694,4.3594,4.3711,4.3711,4.3711,4.3711,4.3711,4.3711,4.3711,4.4082,4.4918,4.4977,4.541,4.6269,4.6308,4.6308,4.6308,4.6308,4.6308,4.6308,4.6308,4.6308,4.6308,4.6308,4.6308,4.6308,4.6308,4.6308,4.6308,4.6308,4.6308,4.6308,4.6308,4.6308,4.6308,4.6308,4.6308,4.6308,4.6308,4.6308,4.6308,4.6308,4.6308,4.6308,4.6308,4.6308,4.6308,4.6308,4.6308,4.6308,4.6308,4.6308,4.6551,4.7641,4.7943,4.9061,5.3341,5.3752,5.3956,5.6478,5.6981,5.6981,5.6981,5.6981,5.6981,5.6981,5.7285,5.7502,5.7502,5.7766,5.7983,5.7983,5.7983,5.7983,5.7983,5.7983,5.7983,5.7983,5.7983,5.7983,5.7983,5.7983,5.7838,5.7502,5.7502,5.7333,5.6981,5.7646,5.8104,5.8387,5.8806,5.9069,5.9148,5.9387,5.9483,5.9483,5.9483,5.9483,5.9483,5.9483,5.9483,5.9483,5.9483,5.9483,5.9483,5.9483,5.9357,5.9438,4.1211,4.1211,4.1211,4.1211,4.1211,4.1465,4.2305,4.2382,4.2694,4.3594,4.3711,4.3711,4.3711,4.3711,4.3711,4.3711,4.3711,4.4062,4.4879,4.4957,4.5391,4.6211,4.6289,4.6308,4.6308,4.6308,4.6308,4.6308,4.6308,4.6308,4.6308,4.6308,4.6308,4.6308,4.6308,4.6308,4.6308,4.6308,4.6308,4.6308,4.6308,4.6308,4.6308,4.6308,4.6308,4.6308,4.6308,4.6308,4.6308,4.6308,4.6308,4.6308,4.6308,4.6308,4.6308,4.6308,4.6308,4.6308,4.6308,4.6308,4.6308,4.6308,4.642,4.7857,5.2906,5.2846,5.2721,5.6278,5.6981,5.6981,5.6981,5.6981,5.6981,5.6981,5.6981,5.6981,5.6981,5.6981,5.6981,5.6981,5.6981,5.6981,5.6981,5.6981,5.6981,5.6981,5.6981,5.6981,5.6981,5.6981,5.6981,5.6981,5.6981,5.6981,5.6981,5.6981,5.6981,5.7021,5.8261,5.8653,5.835,5.912,5.9483,5.9483,5.9483,5.9483,5.9483,5.9483,5.9483,5.9483,5.9483,5.9483,5.9483,5.9433,5.9131,5.9136,4.1211,4.1211,4.1211,4.1211,4.1211,4.1465,4.2305,4.2382,4.2694,4.3594,4.3711,4.3711,4.3711,4.3711,4.3711,4.3711,4.3711,4.3945,4.4492,4.4844,4.5254,4.5781,4.6133,4.6308,4.6308,4.6308,4.6308,4.6308,4.6308,4.6308,4.6308,4.6308,4.6308,4.6308,4.6308,4.6308,4.6308,4.6308,4.6308,4.6308,4.6308,4.6308,4.6308,4.6308,4.6308,4.6308,4.6308,4.6308,4.6308,4.6308,4.6308,4.6308,4.6308,4.6308,4.6308,4.6308,4.6308,4.6308,4.6308,4.6308,4.6308,4.6308,4.7358,4.9082,5.1682,5.1974,5.2721,5.6278,5.6981,5.6981,5.6981,5.6981,5.6981,5.6981,5.6981,5.6981,5.6981,5.6981,5.6981,5.6981,5.6981,5.6981,5.6981,5.6981,5.6981,5.6981,5.6981,5.6981,5.6981,5.6981,5.6981,5.6981,5.6981,5.6981,5.6981,5.6981,5.6981,5.7021,5.7971,5.8364,5.835,5.912,5.9483,5.9483,5.9483,5.9483,5.9483,5.9483,5.9483,5.9483,5.9483,5.9483,5.9433,5.9031,5.8805,5.8997,4.1211,4.1211,4.1211,4.1211,4.1211,4.1465,4.2305,4.2382,4.2694,4.3594,4.3711,4.3711,4.3711,4.3711,4.3711,4.3711,4.3711,4.3906,4.4375,4.4785,4.5215,4.5707,4.6074,4.6308,4.6308,4.6308,4.6308,4.6308,4.6308,4.6308,4.6308,4.6308,4.6308,4.6308,4.6308,4.6308,4.6308,4.6308,4.6308,4.6308,4.6308,4.6308,4.6308,4.6308,4.6308,4.6308,4.6308,4.6308,4.6308,4.6308,4.6308,4.6308,4.6308,4.6308,4.6308,4.6308,4.6308,4.6308,4.6308,4.6308,4.6308,4.6308,4.7641,4.9445,5.1305,5.2348,5.3711,5.6438,5.6981,5.6981,5.6981,5.6981,5.6981,5.6981,5.6981,5.6981,5.6981,5.6981,5.6981,5.6981,5.6981,5.6981,5.6981,5.6981,5.6981,5.6981,5.6981,5.6981,5.6981,5.6981,5.6981,5.6981,5.6981,5.6981,5.6981,5.6981,5.6981,5.7021,5.7853,5.831,5.835,5.912,5.9483,5.9483,5.9483,5.9483,5.9483,5.9483,5.9483,5.9458,5.9232,5.9131,5.9056,5.8529,5.8579,5.9139,4.1211,4.1211,4.1211,4.1211,4.1211,4.1465,4.2305,4.2382,4.2694,4.3594,4.3711,4.3711,4.3711,4.3711,4.3711,4.3711,4.3711,4.3867,4.4258,4.4746,4.5176,4.5547,4.6035,4.6308,4.6308,4.6308,4.6308,4.6308,4.6308,4.6308,4.6308,4.6308,4.6308,4.6308,4.6308,4.6308,4.6308,4.6308,4.6308,4.6308,4.6308,4.6308,4.6308,4.6308,4.6308,4.6308,4.6308,4.6308,4.6308,4.6308,4.6308,4.6308,4.6308,4.6308,4.6308,4.6308,4.6308,4.6308,4.6308,4.6308,4.6308,4.6308,4.7641,4.936,5.0885,5.2823,5.4795,5.6638,5.6981,5.6981,5.6981,5.6981,5.6981,5.6981,5.6981,5.6981,5.6981,5.6981,5.6981,5.6981,5.6981,5.6981,5.6981,5.6981,5.6981,5.6981,5.6981,5.6981,5.6981,5.6981,5.6981,5.6981,5.6981,5.6981,5.6981,5.6981,5.6981,5.7021,5.7853,5.831,5.835,5.912,5.9483,5.9483,5.9483,5.9483,5.9483,5.9483,5.9433,5.9332,5.8842,5.8616,5.8504,5.7951,5.8165,5.8821,4.1211,4.1211,4.1211,4.1211,4.1211,4.1465,4.2305,4.2382,4.2694,4.3594,4.3711,4.3711,4.3711,4.3711,4.3711,4.3711,4.3711,4.373,4.3789,4.457,4.5058,4.5117,4.5879,4.6308,4.6308,4.6308,4.6308,4.6308,4.6308,4.6308,4.6308,4.6308,4.6308,4.6308,4.6308,4.6308,4.6308,4.6308,4.6308,4.6308,4.6308,4.6308,4.6308,4.6308,4.6308,4.6308,4.6308,4.6308,4.6308,4.6308,4.6308,4.6308,4.6308,4.6308,4.6308,4.6308,4.6308,4.6308,4.6308,4.6308,4.6308,4.6308,4.7641,4.9082,4.9318,5.191,5.4795,5.6638,5.6981,5.6981,5.6981,5.6981,5.6981,5.6981,5.6981,5.6981,5.6981,5.6981,5.6981,5.6981,5.6981,5.6981,5.6981,5.6981,5.6981,5.6981,5.6981,5.6981,5.6981,5.6981,5.6981,5.6981,5.6981,5.6981,5.6981,5.6981,5.6981,5.7021,5.7853,5.831,5.835,5.912,5.9483,5.9483,5.9483,5.9483,5.9483,5.9483,5.9232,5.8805,5.8755,5.8428,5.7951,5.7336,5.6907,5.6805,4.1211,4.1211,4.1211,4.1211,4.1211,4.1465,4.2305,4.2382,4.2694,4.3594,4.3711,4.3711,4.3711,4.3711,4.3711,4.3711,4.3711,4.3711,4.3711,4.4531,4.4977,4.4977,4.584,4.6308,4.6308,4.6308,4.6308,4.6308,4.6308,4.6308,4.6308,4.6308,4.6308,4.6308,4.6308,4.6308,4.6308,4.6308,4.6308,4.6308,4.6308,4.6308,4.6308,4.6308,4.6308,4.6308,4.6308,4.6308,4.6308,4.6308,4.6308,4.6308,4.6308,4.6308,4.6308,4.6308,4.6308,4.6308,4.6308,4.6308,4.6308,4.6308,4.7641,4.8997,4.8997,5.1743,5.4551,5.5345,5.6318,5.6981,5.6981,5.6981,5.6981,5.6981,5.6981,5.6981,5.6981,5.6981,5.6981,5.6981,5.6981,5.6981,5.6981,5.6981,5.6981,5.6981,5.6981,5.6981,5.6981,5.6981,5.6981,5.6981,5.6981,5.6981,5.6981,5.6981,5.6981,5.7021,5.7853,5.831,5.835,5.912,5.9483,5.9483,5.9483,5.9332,5.9056,5.9056,5.8755,5.8227,5.7863,5.7412,5.6922,5.6671,5.642,5.6522]}]]